     2              OBSERVATION DATA    GPS                 RINEX VERSION / TYPE
teqc 2000Feb29 Duncan Agnew 20000428 21:00:59UTC            PGM / RUN BY / DATE
                                                            COMMENT
L2: 1 -> 1; 150 -> 5; 250 -> 9                              COMMENT
L2: 1 -> 1; 150 -> 5; 250 -> 9                              COMMENT
L2: 1 -> 1; 150 -> 5; 250 -> 9                              COMMENT
L2: 1 -> 1; 150 -> 5; 250 -> 9                              COMMENT
L2: 1 -> 1; 150 -> 5; 250 -> 9                              COMMENT
Original Marker Name: PUET                                  COMMENT
Campaign Name: Hector Postseismic                           COMMENT
4-Character Station Name: PUET                              COMMENT
6-Character Antenna Code: DMRCHT                            COMMENT
Vertical Measurement Point: BCR                             COMMENT
Vertical Offset to Rinex Ref. Point: 0.0348                 COMMENT
Radial Measurement Point: ECF                               COMMENT
Radial Offset to Rinex Ref. Point: 0.1897                   COMMENT
Antenna Height from Field Measurement: 0.9825 m             COMMENT
Additional Antenna Identification Info.:                    COMMENT
Turborogue and Ashtech Choke Ring                           COMMENT
Original XYZ: -2330471.4933 -4733714.1576 3575489.0082      COMMENT
New XYZ position is based on association with SCEC monument COMMENT
E1F2H1D6+0011. Position of that monument is believed to be  COMMENT
valid to within 1 m horizontally; vertical accuracy         COMMENT
should be no worse than 3-times this value.                 COMMENT
                                                            COMMENT
Revised Rinex header created by UCSD GPS archive for        COMMENT
GSAC on 17-Jun-2000 (2000:169) 00:21:45 GMT                 COMMENT
For assistance contact dagnew@ucsd.edu                      COMMENT
or anderson@python.ucsd.edu                                 COMMENT
                                                            COMMENT
PUETT'S CORNER MARCH 1988                                   MARKER NAME
SEO UNIV SOUTHERN CALIFORNIA                                OBSERVER / AGENCY
203 ASHTECH Z-XII3 CD00                                     REC # / TYPE / VERS
364 DORNE-MARGOL. TYPE T                                    ANT # / TYPE
 -2325968.2391 -4733584.8664  3575546.1222                  APPROX POSITION XYZ
        0.9292        0.0000        0.0000                  ANTENNA: DELTA H/E/N
     1     1     0                                          WAVELENGTH FACT L1/2
     7    C1    L1    L2    P1    P2    S1    S2            # / TYPES OF OBSERV
     0                                                      INTERVAL
  2000     2     6     0     0   30.000000                  TIME OF FIRST OBS
  2000     2     6    17    56    0.000000                  TIME OF LAST OBS
                                                            END OF HEADER
 00  2  6  0  0 30.0000000  0  8G 4G 7G24G 6G 5G10G 9G30
  21470948.436   -19755381.04649 -15384360.73247  21470948.891    21470958.955
       238.000         198.000
  24234352.893    -5408775.09249  -4203575.03145  24234352.367    24234368.671
       203.000         144.000
  20186547.796   -22469816.66949 -16649012.22048  20186547.464    20186557.517
       244.000         215.000
  24844910.111    -4530434.56849  -3517729.36445  24844908.128    24844928.476
       202.000         139.000
  20759415.935   -23768932.18849 -18508004.26948  20759415.086    20759425.153
       245.000         213.000
  23886446.468    -7834646.62649  -6088854.95445  23886444.688    23886461.812
       213.000         155.000
  22330666.943   -16585073.15449 -12906931.54947  22330666.871    22330678.607
       232.000         188.000
  23457390.333    -9982483.79049  -7768782.77345  23457389.727    23457404.043
       218.000         159.000
 00  2  6  0  1  0.0000000  0  8G 4G 7G24G 6G 5G10G 9G30
  21485313.814   -19679890.70149 -15325537.11547  21485314.077    21485324.411
       238.000         198.000
  24247250.258    -5340999.41149  -4150762.87345  24247250.098    24247267.133
       208.000         143.000
  20186581.640   -22469638.54349 -16648873.36548  20186581.131    20186591.125
       244.000         215.000
  24831399.779    -4601429.95249  -3573050.00945  24831398.521    24831418.250
       201.000         140.000
  20749938.621   -23818735.52849 -18546811.97848  20749937.897    20749947.998
       245.000         213.000
  23867358.551    -7934953.13949  -6167015.48945  23867356.363    23867373.691
       214.000         156.000
  22344604.037   -16511833.52249 -12849861.72947  22344603.713    22344615.789
       232.000         188.000
  23438807.294   -10080136.98649  -7844875.86445  23438806.582    23438821.026
       219.000         160.000
 00  2  6  0  1 30.0000000  0  8G 4G 7G24G 6G 5G10G 9G30
  21499744.559   -19604056.66749 -15266445.69347  21499744.676    21499755.438
       238.000         198.000
  24260153.985    -5273190.02849  -4097924.45645  24260153.645    24260171.372
       201.000         142.000
  20186717.172   -22468926.08249 -16648318.15248  20186716.667    20186726.806
       244.000         215.000
  24817898.459    -4672377.78249  -3628333.61345  24817896.648    24817916.151
       202.000         139.000
  20740533.473   -23868159.58149 -18585324.14148  20740532.658    20740542.631
       245.000         213.000
  23848275.665    -8035232.67449  -6245155.00445  23848273.584    23848291.522
       214.000         155.000
  22358607.323   -16438245.81449 -12792520.67947  22358606.539    22358618.820
       232.000         188.000
  23420245.569   -10177678.23249  -7920881.74945  23420244.512    23420259.665
       219.000         161.000
 00  2  6  0  2  0.0000000  0  8G 4G 7G24G 6G 5G10G 9G30
  21514240.126   -19527882.31049 -15207089.08947  21514240.361    21514251.143
       238.000         197.000
  24273061.469    -5205360.82449  -4045070.60045  24273059.890    24273077.594
       201.000         141.000
  20186952.043   -22467691.49549 -16647356.08848  20186951.764    20186961.542
       244.000         215.000
  24804406.297    -4743277.49649  -3683579.73545  24804404.938    24804424.213
       201.000         139.000
  20731197.575   -23917219.85449 -18623552.84248  20731196.821    20731206.700
       245.000         213.000
  23829199.681    -8135476.37449  -6323266.59545  23829197.970    23829214.577
       213.000         155.000
  22372675.027   -16364319.33949 -12734915.65747  22372675.259    22372686.629
       231.000         188.000
  23401705.930   -10275103.67149  -7996797.37745  23401705.406    23401719.640
       219.000         162.000
 00  2  6  0  2 30.0000000  0  8G 4G 7G24G 6G 5G10G 9G30
  21528800.137   -19451369.00749 -15147468.36047  21528800.502    21528810.839
       238.000         197.000
  24285972.101    -5137514.48549  -3992203.39045  24285970.752    24285988.621
       204.000         141.000
  20187283.493   -22465949.60749 -16645998.71948  20187282.915    20187292.975
       244.000         215.000
  24790921.360    -4814140.03349  -3738796.91145  24790920.423    24790938.882
       202.000         138.000
  20721932.988   -23965905.25149 -18661489.42948  20721932.215    20721942.166
       245.000         213.000
  23810132.066    -8235675.81649  -6401343.70245  23810130.570    23810147.029
       214.000         156.000
  22386805.598   -16290062.85649 -12677053.49046  22386805.377    22386817.084
       232.000         187.000
  23383188.683   -10372411.48449  -8072621.36346  23383188.276    23383202.221
       220.000         163.000
 00  2  6  0  3  0.0000000  0  8G 4G 7G24G 6G 5G10G 9G30
  21543420.670   -19374537.73049 -15087599.86047  21543420.720    21543431.433
       238.000         197.000
  24298885.276    -5069655.34749  -3939326.18845  24298884.912    24298901.280
       206.000         140.000
  20187707.051   -22463723.30149 -16644263.88548  20187706.582    20187716.687
       244.000         215.000
  24777441.476    -4884975.67049  -3793993.12145  24777440.285    24777459.951
       203.000         138.000
  20712737.889   -24014225.44949 -18699141.44848  20712737.160    20712746.984
       247.000         213.000
  23791075.880    -8335815.25249  -6479374.04445  23791074.502    23791091.510
       214.000         156.000
  22400996.592   -16215488.77649 -12618943.84746  22400996.563    22401008.128
       231.000         187.000
  23364692.683   -10469607.35449  -8148358.12346  23364691.531    23364706.729
       221.000         164.000
 00  2  6  0  3 30.0000000  0  8G 4G 7G24G 6G 5G10G 9G30
  21558100.175   -19297396.41849 -15027489.77347  21558100.448    21558110.850
       238.000         197.000
  24311799.223    -5001792.37249  -3886446.00945  24311797.933    24311816.111
       203.000         140.000
  20188223.118   -22461011.03949 -16642150.38048  20188222.854    20188232.861
       244.000         215.000
  24763967.384    -4955780.94949  -3849165.69445  24763966.203    24763985.755
       202.000         139.000
  20703609.860   -24062193.18249 -18736518.81348  20703609.050    20703619.023
       247.000         213.000
  23772031.203    -8435894.12449  -6557357.19745  23772029.886    23772046.657
       215.000         155.000
  22415243.535   -16140620.72849 -12560605.13946  22415243.420    22415255.044
       231.000         187.000
  23346217.453   -10566694.22449  -8224009.95046  23346217.210    23346230.910
       220.000         165.000
 00  2  6  0  4  0.0000000  0  8G 4G 7G24G 6G 5G10G 9G30
  21572837.661   -19219950.42049 -14967142.27347  21572837.795    21572848.555
       238.000         196.000
  24324715.387    -4933917.66649  -3833556.66445  24324713.921    24324731.453
       201.000         139.000
  20188830.969   -22457816.80949 -16639661.32148  20188830.503    20188840.687
       244.000         215.000
  24750498.162    -5026560.73049  -3904318.40345  24750496.558    24750515.750
       202.000         139.000
  20694549.994   -24109802.73949 -18773617.08748  20694549.172    20694559.020
       247.000         214.000
  23752994.334    -8535931.87049  -6635308.31045  23752993.215    23753008.181
       216.000         155.000
  22429543.624   -16065473.29849 -12502048.73046  22429543.100    22429555.428
       230.000         186.000
  23327764.118   -10663666.37149  -8299572.39046  23327763.485    23327777.718
       221.000         166.000
 00  2  6  0  4 30.0000000  0  8G 4G 7G24G 6G 5G10G 9G30
  21587628.853   -19142222.47349 -14906575.06247  21587629.225    21587639.587
       238.000         196.000
  24337636.370    -4866017.44249  -3780647.44745  24337636.955    24337652.634
       209.000         139.000
  20189530.716   -22454139.46049 -16636795.80648  20189530.339    20189540.280
       244.000         215.000
  24737034.694    -5097310.36849  -3959447.61645  24737032.669    24737052.915
       202.000         139.000
  20685561.204   -24157038.80749 -18810424.32948  20685560.345    20685570.215
       247.000         214.000
  23733961.768    -8635947.40849  -6713242.12245  23733960.171    23733976.262
       215.000         154.000
  22443897.250   -15990044.41149 -12443273.00246  22443896.893    22443909.054
       230.000         186.000
  23309332.447   -10760524.30949  -8375045.83446  23309332.455    23309346.185
       221.000         166.000
 00  2  6  0  5  0.0000000  0  8G 4G 7G24G 6G 5G10G 9G30
  21602471.926   -19064221.53149 -14845795.13447  21602472.340    21602482.934
       237.000         196.000
  24350563.846    -4798083.01749  -3727711.55445  24350561.277    24350579.273
       208.000         138.000
  20190324.690   -22449966.83449 -16633544.36148  20190324.309    20190334.395
       244.000         215.000
  24723580.595    -5168010.32049  -4014538.12145  24723579.062    24723597.718
       202.000         140.000
  20676645.958   -24203888.48249 -18846930.48448  20676645.116    20676655.040
       247.000         214.000
  23714933.593    -8735939.59749  -6791157.74645  23714931.115    23714947.638
       215.000         155.000
  22458304.450   -15914334.28349 -12384278.11546  22458304.170    22458316.368
       231.000         186.000
  23290924.706   -10857256.57149  -8450421.36446  23290924.598    23290938.085
       222.000         166.000
 00  2  6  0  5 30.0000000  0  8G 4G 7G24G 6G 5G10G 9G30
  21617368.447   -18985939.70149 -14784796.32547  21617368.517    21617379.301
       237.000         196.000
  24363495.955    -4730124.32549  -3674756.74145  24363496.752    24363512.469
       207.000         138.000
  20191214.605   -22445290.07249 -16629900.08348  20191214.153    20191224.146
       244.000         215.000
  24710134.754    -5238667.37749  -4069595.20245  24710134.630    24710152.314
       204.000         139.000
  20667804.565   -24250349.80849 -18883134.02448  20667803.697    20667813.594
       247.000         214.000
  23695906.435    -8835926.30849  -6869069.10745  23695904.067    23695920.002
       215.000         154.000
  22472766.251   -15838337.18849 -12325059.63346  22472766.278    22472778.286
       230.000         186.000
  23272541.512   -10953859.79449  -8525696.33646  23272540.665    23272554.702
       220.000         165.000
 00  2  6  0  6  0.0000000  0  8G 4G 7G24G 6G 5G10G 9G30
  21632320.869   -18907364.42849 -14723568.87247  21632320.666    21632331.714
       237.000         195.000
  24376434.499    -4662131.95249  -3621775.69245  24376434.386    24376450.377
       208.000         137.000
  20192202.370   -22440099.13749 -16625855.14948  20192202.119    20192211.844
       244.000         215.000
  24696698.571    -5309273.98249  -4124612.98345  24696697.572    24696716.337
       206.000         139.000
  20659042.462   -24296394.60449 -18919012.99648  20659041.513    20659051.422
       247.000         214.000
  23676883.151    -8935892.85649  -6946964.76245  23676881.276    23676897.584
       214.000         153.000
  22487285.773   -15762036.78449 -12265604.80146  22487285.616    22487297.707
       231.000         185.000
  23254185.709   -11050319.12449  -8600859.19746  23254184.673    23254198.849
       220.000         165.000
 00  2  6  0  6 30.0000000  0  8G 4G 7G24G 6G 5G10G 9G30
  21647330.218   -18828489.84749 -14662108.19147  21647330.405    21647341.081
       237.000         195.000
  24389377.987    -4594113.89549  -3568774.62545  24389377.685    24389394.588
       212.000         137.000
  20193285.657   -22434406.27049 -16621419.09948  20193285.329    20193295.110
       245.000         215.000
  24683270.006    -5379840.31649  -4179599.38945  24683268.339    24683286.883
       206.000         140.000
  20650359.910   -24342021.31849 -18954566.19248  20650359.014    20650368.837
       247.000         214.000
  23657868.365    -9035814.75349  -7024825.63145  23657866.670    23657882.834
       215.000         153.000
  22501862.452   -15685436.10649 -12205915.98746  22501861.945    22501874.474
       231.000         185.000
  23235855.625   -11146643.35949  -8675916.78046  23235855.302    23235868.601
       221.000         164.000
 00  2  6  0  7  0.0000000  0  8G 4G 7G24G 6G 5G10G 9G30
  21662400.020   -18749297.50149 -14600399.89747  21662400.132    21662410.951
       237.000         195.000
  24402326.812    -4526067.99349  -3515751.86945  24402325.242    24402343.922
       212.000         138.000
  20194464.641   -22428210.50649 -16616591.18248  20194464.113    20194474.069
       245.000         215.000
  24669847.087    -5450376.76749  -4234562.50145  24669846.421    24669863.941
       207.000         141.000
  20641755.036   -24387239.72449 -18989801.22448  20641754.281    20641764.012
       247.000         214.000
  23638866.908    -9135666.68749  -7102632.00645  23638864.924    23638881.097
       213.000         153.000
  22516495.833   -15608537.20449 -12145994.79946  22516495.355    22516507.437
       230.000         185.000
  23217551.740   -11242829.71449  -8750866.92846  23217551.084    23217564.658
       220.000         164.000
 00  2  6  0  7 30.0000000  0  8G 4G 7G24G 6G 5G10G 9G30
  21677531.057   -18669783.54349 -14538440.99347  21677531.107    21677541.917
       237.000         194.000
  24415279.559    -4458001.29249  -3462712.87745  24415279.064    24415296.075
       211.000         138.000
  20195737.317   -22421522.30549 -16611379.54148  20195737.092    20195746.962
       244.000         215.000
  24656426.787    -5520899.85449  -4289515.24345  24656425.882    24656444.060
       208.000         142.000
  20633224.471   -24432067.91649 -19024732.19248  20633223.447    20633233.483
       247.000         214.000
  23619878.314    -9235451.15249  -7180385.80745  23619875.650    23619891.787
       214.000         153.000
  22531185.081   -15531344.70249 -12085844.82446  22531185.005    22531197.644
       230.000         184.000
  23199273.019   -11338883.98049  -8825714.16946  23199271.598    23199285.403
       220.000         164.000
 00  2  6  0  8  0.0000000  0  8G 4G 7G24G 6G 5G10G 9G30
  21692721.050   -18589959.80749 -14476240.70447  21692721.501    21692731.884
       236.000         194.000
  24428238.228    -4389902.88249  -3409649.19045  24428237.893    24428253.511
       212.000         139.000
  20197101.352   -22414354.09749 -16605793.87248  20197100.818    20197110.809
       244.000         215.000
  24643009.588    -5591406.54649  -4344455.18045  24643008.490    24643027.039
       210.000         142.000
  20624767.514   -24476509.09549 -19059361.59448  20624766.661    20624776.312
       247.000         214.000
  23600903.580    -9335162.37349  -7258082.53645  23600901.546    23600917.673
       214.000         153.000
  22545926.517   -15453877.95549 -12025481.15146  22545925.980    22545938.512
       230.000         184.000
  23181017.717   -11434815.12649  -8900465.46446  23181017.835    23181030.345
       221.000         164.000
 00  2  6  0  8 30.0000000  0  8G 4G 7G24G 6G 5G10G 9G30
  21707967.164   -18509841.10649 -14413810.57747  21707967.327    21707978.291
       237.000         194.000
  24441205.455    -4321760.13149  -3356550.96245  24441205.026    24441221.835
       216.000         139.000
  20198558.568   -22406696.04949 -16599826.51048  20198558.049    20198568.058
       244.000         215.000
  24629596.642    -5661890.72549  -4399377.60145  24629595.986    24629613.466
       212.000         143.000
  20616382.217   -24520573.81549 -19093697.65548  20616381.466    20616391.122
       247.000         214.000
  23581944.175    -9434793.19049  -7335716.63145  23581943.091    23581958.722
       214.000         153.000
  22560719.719   -15376139.19849 -11964905.53346  22560719.329    22560731.337
       229.000         183.000
  23162784.197   -11530631.91249  -8975127.66646  23162784.518    23162796.539
       220.000         164.000
 00  2  6  0  9  0.0000000  0  8G 4G 7G24G 6G 5G10G 9G30
  21723264.514   -18429453.10149 -14351170.59347  21723264.417    21723275.584
       236.000         193.000
  24454181.691    -4253569.89849  -3303415.71845  24454180.883    24454196.808
       212.000         139.000
  20200111.822   -22398533.54249 -16593466.05548  20200111.394    20200121.364
       244.000         215.000
  24616188.764    -5732348.32249  -4454279.30345  24616187.468    24616205.484
       213.000         143.000
  20608068.145   -24564264.14949 -19127741.98548  20608067.442    20608076.998
       247.000         214.000
  23562998.319    -9534353.34449  -7413295.66945  23562996.897    23563012.780
       215.000         154.000
  22575564.184   -15298131.28249 -11904120.16346  22575563.882    22575575.714
       229.000         183.000
  23144571.742   -11626338.07449  -9049703.66346  23144571.017    23144584.118
       221.000         165.000
 00  2  6  0  9 30.0000000  0  8G 4G 7G24G 6G 5G10G 9G30
  21738612.607   -18348798.30349 -14288322.71947  21738612.891    21738623.438
       236.000         193.000
  24467167.456    -4185329.20349  -3250241.15445  24467167.382    24467183.986
       210.000         139.000
  20201761.796   -22389862.64749 -16586709.45448  20201761.212    20201771.169
       244.000         215.000
  24602788.996    -5802763.36949  -4509147.85245  24602787.495    24602805.067
       213.000         144.000
  20599827.696   -24607567.67849 -19161484.91048  20599826.927    20599836.659
       248.000         215.000
  23544066.744    -9633838.09549  -7490815.95845  23544064.373    23544080.236
       215.000         154.000
  22590459.797   -15219854.36849 -11843125.19346  22590459.700    22590471.825
       230.000         183.000
  23126381.423   -11721927.75849  -9124188.87946  23126380.450    23126394.294
       222.000         165.000
 00  2  6  0 10  0.0000000  0  8G 4G 7G24G 6G 5G10G 9G30
  21754011.165   -18267878.46649 -14225268.32947  21754011.311    21754022.017
       236.000         193.000
  24480164.896    -4117027.43849  -3197018.98445  24480163.895    24480182.049
       210.000         139.000
  20203508.732   -22380682.19849 -16579555.80148  20203508.252    20203518.123
       244.000         215.000
  24589399.370    -5873125.18949  -4563974.91945  24589398.584    24589415.880
       213.000         144.000
  20591665.000   -24650462.65649 -19194909.48748  20591664.058    20591673.836
       248.000         215.000
  23525151.389    -9733237.68849  -7568269.89045  23525149.748    23525165.556
       214.000         155.000
  22605406.642   -15141308.24349 -11781920.45146  22605405.793    22605418.700
       229.000         182.000
  23108213.286   -11817401.03049  -9198583.39946  23108212.397    23108226.444
       222.000         165.000
 00  2  6  0 10 30.0000000  0  8G 4G 7G24G 6G 5G10G 9G30
  21769460.848   -18186689.98249 -14162004.60247  21769461.146    21769471.999
       236.000         192.000
  24493174.311    -4048662.68349  -3143747.73245  24493173.689    24493190.687
       214.000         137.000
  20205352.885   -22370990.63749 -16572003.88448  20205352.456    20205362.137
       245.000         215.000
  24576020.433    -5943430.71649  -4618758.11045  24576019.865    24576037.273
       213.000         144.000
  20583581.140   -24692943.22549 -19228011.15348  20583580.424    20583589.934
       248.000         215.000
  23506253.264    -9832546.65749  -7645653.20445  23506251.131    23506267.303
       216.000         156.000
  22620406.602   -15062482.77149 -11720498.03346  22620406.418    22620418.270
       228.000         182.000
  23090070.332   -11912741.92149  -9272874.76446  23090069.408    23090082.699
       222.000         165.000
 00  2  6  0 11  0.0000000  0  8G 4G 7G24G 6G 5G10G 9G30
  21784963.211   -18105224.80449 -14098525.26247  21784963.144    21784973.848
       235.000         192.000
  24506193.638    -3980245.65449  -3090435.74945  24506192.776    24506210.055
       213.000         136.000
  20207289.925   -22360811.10849 -16564071.73048  20207289.415    20207299.278
       244.000         215.000
  24562651.330    -6013684.61349  -4673501.06045  24562650.231    24562668.201
       213.000         144.000
  20575575.581   -24735012.46249 -19260792.29948  20575574.856    20575584.477
       248.000         215.000
  23487369.558    -9931780.07449  -7722977.65245  23487367.414    23487383.539
       217.000         157.000
  22635457.305   -14983390.90349 -11658868.03746  22635457.079    22635469.333
       229.000         182.000
  23071956.061   -12007932.20349  -9347048.75646  23071955.078    23071969.768
       222.000         165.000
 00  2  6  0 11 30.0000000  0  8G 4G 7G24G 6G 5G10G 9G30
  21800520.806   -18023469.07749 -14034819.51947  21800520.813    21800531.466
       235.000         192.000
  24519219.364    -3911795.01749  -3037097.57445  24519218.818    24519236.321
       208.000         136.000
  20209319.014   -22350147.89849 -16555762.68248  20209318.680    20209328.472
       244.000         215.000
  24549289.852    -6083898.23649  -4728212.63045  24549288.751    24549306.033
       211.000         143.000
  20567646.621   -24776678.89549 -19293259.56948  20567645.765    20567655.320
       248.000         215.000
  23468497.759   -10030951.14849  -7800253.54645  23468495.928    23468511.331
       218.000         159.000
  22650556.516   -14904044.32749 -11597039.55846  22650556.186    22650568.611
       228.000         181.000
  23053871.008   -12102968.75149  -9421102.96146  23053870.128    23053884.041
       222.000         165.000
 00  2  6  0 12  0.0000000  0  8G 4G 7G24G 6G 5G10G 9G30
  21816131.805   -17941432.76249 -13970895.13947  21816132.236    21816142.876
       235.000         192.000
  24532250.029    -3843317.92849  -2983738.77245  24532249.147    24532267.344
       204.000         135.000
  20211441.555   -22338993.78149 -16547071.11348  20211441.180    20211451.089
       244.000         215.000
  24535934.274    -6154080.61049  -4782899.83245  24535932.308    24535949.853
       212.000         142.000
  20559794.994   -24817939.34149 -19325410.48948  20559794.081    20559803.691
       248.000         215.000
  23449638.354   -10130056.70749  -7877478.37545  23449636.734    23449651.369
       217.000         160.000
  22665704.123   -14824443.22349 -11535012.75546  22665704.279    22665715.741
       229.000         181.000
  23035815.712   -12197849.03649  -9495035.38446  23035814.737    23035828.355
       222.000         166.000
 00  2  6  0 12 30.0000000  0  8G 4G 7G24G 6G 5G10G 9G30
  21831795.600   -17859119.14849 -13906754.67947  21831796.032    21831806.530
       235.000         192.000
  24545284.377    -3774821.92549  -2930365.26445  24545284.303    24545301.157
       208.000         134.000
  20213658.192   -22327345.15949 -16537994.22148  20213657.726    20213667.420
       244.000         215.000
  24522583.813    -6224236.17549  -4837566.14745  24522582.519    24522601.022
       213.000         142.000
  20552017.416   -24858810.50649 -19357258.07948  20552016.805    20552026.059
       248.000         215.000
  23430793.869   -10229084.08549  -7954642.28745  23430792.110    23430807.150
       217.000         161.000
  22680900.981   -14744583.03349 -11472784.07046  22680900.429    22680912.725
       229.000         181.000
  23017793.623   -12292554.65349  -9568831.71346  23017793.643    23017805.293
       221.000         166.000
 00  2  6  0 13  0.0000000  0  8G 4G 7G24G 6G 5G10G 9G30
  21847512.362   -17776527.06049 -13842397.22647  21847512.502    21847523.411
       235.000         191.000
  24558318.386    -3706327.32449  -2876992.82445  24558317.361    24558335.688
       207.000         136.000
  20215968.249   -22315205.56949 -16528534.75248  20215967.837    20215977.717
       244.000         215.000
  24509236.360    -6294375.92849  -4892220.15145  24509235.579    24509252.840
       211.000         141.000
  20544314.508   -24899289.18849 -19388799.83548  20544313.847    20544323.419
       247.000         215.000
  23411965.358   -10328027.18249  -8031740.52845  23411963.135    23411978.515
       218.000         161.000
  22696148.112   -14664459.11049 -11410349.86446  22696148.114    22696159.512
       228.000         180.000
  22999802.517   -12387097.51649  -9642501.20346  22999802.048    22999815.130
       221.000         166.000
 00  2  6  0 13 30.0000000  0  7G 4G24G 6G 5G10G 9G30
  21863283.036   -17693651.61049 -13777818.96847  21863283.564    21863293.605
       236.000         191.000
  20218374.288   -22302561.45149 -16518682.15148  20218373.941    20218383.747
       244.000         215.000
  24495893.049    -6364494.01549  -4946857.26245  24495892.297    24495908.834
       211.000         142.000
  20536690.857   -24939351.42249 -19420017.08348  20536690.035    20536699.539
       248.000         215.000
  23393159.668   -10426850.76249  -8108745.62145  23393158.413    23393172.973
       218.000         162.000
  22711449.087   -14584052.18249 -11347695.13646  22711448.441    22711460.673
       228.000         180.000
  22981842.317   -12481477.74949  -9716043.95946  22981841.962    22981853.933
       220.000         166.000
 00  2  6  0 14  0.0000000  0  7G 4G24G 6G 5G10G 9G30
  21879109.689   -17610482.20349 -13713011.65047  21879109.728    21879120.718
       236.000         191.000
  20220876.589   -22289411.62449 -16508435.48848  20220875.979    20220886.063
       244.000         215.000
  24482560.731    -6434554.25349  -5001449.29045  24482559.777    24482575.973
       210.000         142.000
  20529153.764   -24978958.81449 -19450879.90848  20529153.103    20529162.619
       248.000         216.000
  23374384.868   -10525511.76949  -8185624.05046  23374382.861    23374398.428
       218.000         163.000
  22726808.987   -14503335.26149 -11284798.85646  22726808.578    22726820.883
       227.000         180.000
  22963918.629   -12575666.11149  -9789437.20946  22963917.910    22963930.952
       220.000         166.000
 00  2  6  0 14 30.0000000  0  7G 4G24G 6G 5G10G 9G30
  21894979.278   -17527086.92749 -13648028.33047  21894979.361    21894990.635
       236.000         191.000
  20223459.885   -22275835.96549 -16497857.01348  20223459.470    20223469.231
       244.000         215.000
  24469226.955    -6504622.20149  -5056047.31745  24469224.498    24469241.687
       209.000         142.000
  20521690.087   -25018180.52649 -19481442.20148  20521689.350    20521698.797
       248.000         216.000
  23355625.458   -10624091.81349  -8262439.38446  23355624.188    23355638.489
       218.000         164.000
  22742211.791   -14422393.08449 -11221727.05846  22742211.704    22742223.524
       228.000         179.000
  22946016.692   -12669740.43149  -9862741.60046  22946016.104    22946029.244
       221.000         166.000
 00  2  6  0 15  0.0000000  0  7G 4G24G 6G 5G10G 9G30
  21910892.187   -17443464.09949 -13582867.69947  21910892.495    21910903.104
       235.000         190.000
  20226127.211   -22261818.89949 -16486934.58548  20226126.814    20226136.500
       244.000         215.000
  24455894.855    -6574681.10049  -5110638.31445  24455894.257    24455911.206
       209.000         143.000
  20514305.601   -25056985.81249 -19511680.00448  20514304.772    20514314.271
       248.000         216.000
  23336882.341   -10722586.63949  -8339188.32546  23336880.953    23336895.430
       219.000         165.000
  22757656.146   -14341232.58749 -11158485.13346  22757656.562    22757667.944
       227.000         179.000
  22928136.448   -12763700.66449  -9935957.10746  22928135.702    22928148.203
       222.000         167.000
 00  2  6  0 15 30.0000000  0  7G 4G24G 6G 5G10G 9G30
  21926849.772   -17359606.56249 -13517524.17647  21926849.728    21926860.877
       235.000         190.000
  20228882.450   -22247339.77549 -16475652.11148  20228882.266    20228891.830
       245.000         215.000
  24442570.941    -6644697.42849  -5165196.14345  24442569.981    24442586.350
       210.000         144.000
  20507002.182   -25095365.26549 -19541585.99048  20507001.438    20507010.763
       248.000         216.000
  23318158.402   -10820980.51649  -8415858.60546  23318156.786    23318171.831
       219.000         166.000
  22773139.876   -14259865.02249 -11095081.86446  22773139.823    22773151.637
       227.000         179.000
  22910285.074   -12857509.05349 -10009054.27946  22910284.710    22910297.146
       222.000         167.000
 00  2  6  0 16  0.0000000  0  7G 4G24G 6G 5G10G 9G30
  21942851.947   -17275514.45849 -13451997.88147  21942852.319    21942862.680
       235.000         189.000
  20231729.869   -22232376.53049 -16463992.39748  20231729.635    20231739.364
       245.000         215.000
  24429256.984    -6714661.29749  -5219713.07645  24429255.808    24429271.853
       210.000         144.000
  20499781.277   -25133311.04749 -19571154.04548  20499780.547    20499789.850
       248.000         216.000
  23299453.596   -10919273.66949  -8492450.39246  23299451.236    23299467.085
       219.000         166.000
  22788662.908   -14178291.07549 -11031517.77146  22788662.777    22788674.765
       227.000         179.000
  22892466.470   -12951145.53949 -10082017.52246  22892466.575    22892478.532
       223.000         168.000
 00  2  6  0 16 30.0000000  0  7G 4G24G 6G 5G10G 9G30
  21958899.283   -17191185.14849 -13386286.75647  21958899.490    21958910.182
       235.000         189.000
  20234672.907   -22216910.77349 -16451941.12048  20234672.668    20234682.205
       244.000         215.000
  24415953.374    -6784571.07049  -5274187.86445  24415952.878    24415968.261
       208.000         144.000
  20492643.027   -25170822.54349 -19600383.70048  20492642.309    20492651.622
       248.000         216.000
  23280770.665   -11017452.10049  -8568952.78246  23280768.859    23280783.220
       218.000         166.000
  22804226.986   -14096501.21349 -10967785.44646  22804227.222    22804238.840
       226.000         178.000
  22874683.965   -13044592.22549 -10154832.87446  22874682.887    22874695.801
       223.000         168.000
 00  2  6  0 17  0.0000000  0  7G 4G24G 6G 5G10G 9G30
  21974992.690   -17106613.88249 -13320387.09647  21974992.709    21975003.733
       235.000         189.000
  20237710.201   -22200949.45949 -16439503.69248  20237709.805    20237719.423
       245.000         215.000
  24402658.330    -6854435.61349  -5328627.41145  24402657.652    24402672.941
       209.000         146.000
  20485587.012   -25207901.87249 -19629276.60348  20485586.124    20485595.410
       249.000         216.000
  23262113.772   -11115493.76249  -8645348.60446  23262112.415    23262126.674
       219.000         166.000
  22819835.956   -14014475.48449 -10903869.31346  22819835.647    22819847.657
       226.000         178.000
  22856940.325   -13137834.60949 -10227489.03446  22856940.210    22856952.068
       224.000         169.000
 00  2  6  0 17 30.0000000  0  7G 4G24G 6G 5G10G 9G30
  21991130.343   -17021809.95649 -13254306.13247  21991130.477    21991141.616
       234.000         189.000
  20240837.939   -22184512.97849 -16426696.00148  20240837.660    20240847.266
       244.000         215.000
  24389366.390    -6924284.05249  -5383054.40845  24389366.113    24389381.386
       209.000         147.000
  20478611.391   -25244558.79749 -19657840.35548  20478610.523    20478620.017
       249.000         216.000
  23243482.043   -11213403.21349  -8721641.40146  23243480.973    23243495.445
       220.000         166.000
  22835489.723   -13932214.61549 -10839769.97246  22835489.430    22835502.170
       227.000         178.000
  22839234.197   -13230880.09249 -10299991.78446  22839233.777    22839246.165
       224.000         170.000
 00  2  6  0 18  0.0000000  0  7G 4G24G 6G 5G10G 9G30
  22007312.551   -16936771.88349 -13188042.73447  22007312.794    22007323.132
       234.000         188.000
  20244056.331   -22167600.04149 -16413517.04948  20244055.872    20244065.727
       244.000         215.000
  24376074.838    -6994130.14649  -5437479.59045  24376072.896    24376089.912
       209.000         147.000
  20471719.286   -25280776.67449 -19686061.99448  20471718.474    20471727.802
       248.000         216.000
  23224877.586   -11311169.31649  -8797822.49746  23224876.183    23224890.916
       220.000         166.000
  22851193.386   -13849691.46849 -10775466.24146  22851192.708    22851205.351
       226.000         178.000
  22821561.577   -13323749.53749 -10372357.36446  22821560.892    22821573.675
       225.000         171.000
 00  2  6  0 18 30.0000000  0  7G 4G24G 6G 5G10G 9G30
  22023540.693   -16851492.43949 -13121591.24647  22023541.040    22023551.687
       234.000         188.000
  20247360.511   -22150236.28349 -16399986.79948  20247360.064    20247369.931
       244.000         215.000
  24362783.311    -7063976.29949  -5491904.81545  24362782.287    24362799.015
       209.000         147.000
  20464908.853   -25316565.35049 -19713949.19148  20464907.969    20464917.227
       248.000         216.000
  23206300.266   -11408792.56249  -8873892.27646  23206297.984    23206312.083
       219.000         165.000
  22866945.992   -13766911.17049 -10710962.13846  22866945.513    22866957.884
       226.000         177.000
  22803919.287   -13416459.52449 -10444598.70646  22803919.515    22803931.236
       226.000         172.000
 00  2  6  0 19  0.0000000  0  7G 4G24G 6G 5G10G 9G30
  22039815.930   -16765965.62249 -13054947.00946  22039816.083    22039826.809
       233.000         187.000
  20250750.285   -22132422.62649 -16386105.98148  20250749.938    20250759.531
       245.000         215.000
  24349491.373    -7133824.61549  -5546331.74345  24349489.939    24349506.970
       209.000         148.000
  20458181.571   -25351917.00549 -19741495.85748  20458180.776    20458190.109
       248.000         217.000
  23187747.605   -11506286.25149  -8949861.10446  23187746.827    23187760.244
       220.000         166.000
  22882743.958   -13683892.16849 -10646272.02946  22882744.006    22882755.905
       226.000         177.000
  22786304.770   -13509023.56849 -10516726.33346  22786304.400    22786315.690
       225.000         172.000
 00  2  6  0 19 30.0000000  0  7G 4G24G 6G 5G10G 9G30
  22056136.664   -16680199.81349 -12988116.54246  22056137.144    22056148.033
       233.000         187.000
  20254228.041   -22114146.83049 -16371865.05348  20254227.590    20254237.298
       244.000         215.000
  24336202.606    -7203655.82649  -5600745.32645  24336201.578    24336217.852
       207.000         148.000
  20451541.102   -25386812.62649 -19768687.16748  20451540.313    20451549.702
       248.000         217.000
  23169219.960   -11603648.71749  -9025727.68546  23169218.244    23169232.227
       219.000         165.000
  22898584.026   -13600652.14549 -10581409.69346  22898584.020    22898596.262
       225.000         177.000
  22768719.410   -13601434.20049 -10588734.43146  22768718.514    22768730.842
       227.000         173.000
 00  2  6  0 20  0.0000000  0  7G 4G24G 6G 5G10G 9G30
  22072504.658   -16594185.56649 -12921092.48946  22072504.733    22072515.597
       233.000         187.000
  20257794.813   -22095403.02249 -16357259.44148  20257794.341    20257804.163
       245.000         215.000
  24322921.491    -7273447.25149  -5655127.91845  24322920.143    24322936.480
       208.000         148.000
  20444988.116   -25421248.33249 -19795520.10848  20444987.390    20444996.743
       248.000         217.000
  23150719.274   -11700869.32249  -9101483.73546  23150718.021    23150732.320
       218.000         165.000
  22914463.922   -13517202.85449 -10516384.30446  22914463.877    22914476.305
       225.000         177.000
  22751165.778   -13693678.35649 -10660612.80946  22751165.486    22751177.226
       225.000         173.000
 00  2  6  0 20 30.0000000  0  7G 4G24G 6G 5G10G 9G30
  22088919.223   -16507926.65949 -12853877.79246  22088919.209    22088930.796
       233.000         186.000
  20261449.281   -22076198.49249 -16342294.82248  20261448.901    20261458.484
       244.000         215.000
  24309649.185    -7343191.99949  -5709474.15345  24309648.391    24309663.244
       209.000         149.000
  20438522.944   -25455222.81949 -19821993.65648  20438522.126    20438531.487
       249.000         217.000
  23132246.145   -11797945.02249  -9177126.87046  23132244.211    23132258.208
       220.000         166.000
  22930378.636   -13433570.35049 -10451216.15046  22930378.299    22930391.276
       226.000         177.000
  22733648.543   -13785731.18549 -10732342.10046  22733647.863    22733659.646
       225.000         173.000
 00  2  6  0 21  0.0000000  0  7G 4G24G 6G 5G10G 9G30
  22105375.884   -16421446.29949 -12786490.53846  22105375.777    22105386.754
       231.000         186.000
  20265194.653   -22056516.28249 -16326957.99148  20265194.328    20265203.799
       245.000         215.000
  24296386.351    -7412887.19149  -5763781.76945  24296384.703    24296401.484
       208.000         148.000
  20432147.297   -25488726.78449 -19848100.57448  20432146.619    20432155.790
       248.000         217.000
  23113800.713   -11894875.18449  -9252656.59746  23113799.120    23113813.171
       220.000         165.000
  22946326.637   -13349763.02549 -10385911.77746  22946326.539    22946338.485
       225.000         177.000
  22716168.438   -13877588.81649 -10803919.29846  22716167.744    22716179.601
       225.000         174.000
 00  2  6  0 21 30.0000000  0  7G 4G24G 6G 5G10G 9G30
  22121874.215   -16334746.82149 -12718932.55246  22121874.345    22121885.562
       232.000         185.000
  20269031.784   -22036351.91049 -16311245.44948  20269031.432    20269040.945
       246.000         215.000
  24283136.839    -7482512.16949  -5818034.67845  24283135.375    24283151.991
       209.000         149.000
  20425860.753   -25521762.49449 -19873842.61648  20425860.061    20425869.162
       249.000         217.000
  23095386.502   -11991641.60949  -9328058.73846  23095384.968    23095398.910
       219.000         165.000
  22962311.059   -13265764.60449 -10320458.49546  22962310.873    22962323.452
       225.000         177.000
  22698729.501   -13969230.36449 -10875328.12546  22698729.417    22698740.896
       225.000         174.000
 00  2  6  0 22  0.0000000  0  7G 4G24G 6G 5G10G 9G30
  22138414.891   -16247825.15349 -12651201.42346  22138415.064    22138425.704
       231.000         185.000
  20272960.324   -22015706.96249 -16295158.43248  20272960.122    20272969.563
       246.000         215.000
  24269900.949    -7552066.38249  -5872232.46045  24269899.988    24269916.020
       211.000         150.000
  20419660.524   -25554344.61949 -19899231.21048  20419659.724    20419668.832
       248.000         217.000
  23077002.954   -12088246.62049  -9403335.10246  23077000.975    23077014.617
       219.000         164.000
  22978332.107   -13181573.75049 -10254855.25246  22978332.352    22978344.359
       225.000         177.000
  22681332.047   -14060653.78649 -10946566.97946  22681332.160    22681343.742
       226.000         174.000
 00  2  6  0 22 30.0000000  0  7G 4G24G 6G 5G10G 9G30
  22154993.994   -16160701.59949 -12583312.98746  22154994.067    22155005.390
       231.000         185.000
  20276979.091   -21994588.16249 -16278702.18648  20276978.720    20276988.348
       246.000         215.000
  24256677.131    -7621556.70349  -5926380.45645  24256676.352    24256692.228
       211.000         151.000
  20413543.907   -25586487.26949 -19924277.36648  20413543.238    20413552.426
       248.000         217.000
  23058648.740   -12184697.37549  -9478491.27246  23058647.261    23058660.773
       219.000         164.000
  22994391.248   -13097182.36549 -10189095.76646  22994391.724    22994402.717
       224.000         176.000
  22663976.948   -14151854.66249 -11017632.42546  22663977.235    22663988.302
       226.000         175.000
 00  2  6  0 23  0.0000000  0  7G 4G24G 6G 5G10G 9G30
  22171611.836   -16073374.39249 -12515265.86046  22171611.683    22171622.578
       230.000         184.000
  20281089.284   -21972988.72349 -16261871.41648  20281088.904    20281098.553
       246.000         215.000
  24243463.749    -7690992.30949  -5980485.82345  24243462.220    24243477.937
       213.000         152.000
  20407508.974   -25618200.91549 -19948989.22948  20407508.146    20407517.338
       249.000         217.000
  23040323.156   -12280997.74249  -9553530.25546  23040322.207    23040335.375
       220.000         165.000
  23010490.682   -13012579.50449 -10123171.48746  23010490.789    23010502.990
       224.000         176.000
  22646664.709   -14242830.33849 -11088522.37346  22646664.191    22646676.072
       227.000         175.000
 00  2  6  0 23 30.0000000  0  7G 4G24G 6G 5G10G 9G30
  22188269.843   -15985836.13849 -12447054.28146  22188269.860    22188280.994
       231.000         184.000
  20285285.082   -21950939.50749 -16244690.17448  20285284.590    20285293.938
       246.000         215.000
  24230254.689    -7760405.37249  -6034573.63445  24230253.664    24230269.038
       214.000         152.000
  20401551.866   -25649505.39749 -19973382.26748  20401551.180    20401560.195
       248.000         217.000
  23022024.936   -12377154.64649  -9628457.45546  23022023.415    23022036.616
       219.000         165.000
  23026627.830   -12927778.27849 -10057092.64946  23026627.717    23026639.797
       224.000         176.000
  22629397.992   -14333566.90349 -11159226.02246  22629397.974    22629409.765
       226.000         175.000
 00  2  6  0 24  0.0000000  0  7G 4G24G 6G 5G10G 9G30
  22204967.239   -15898090.96749 -12378681.46846  22204967.581    22204978.604
       231.000         184.000
  20289563.148   -21928457.82949 -16227171.94348  20289562.778    20289572.431
       246.000         215.000
  24217042.254    -7829836.31349  -6088675.36445  24217041.481    24217056.395
       213.000         153.000
  20395673.256   -25680397.28049 -19997453.79148  20395672.520    20395681.784
       249.000         217.000
  23003751.672   -12473180.05549  -9703282.19746  23003749.985    23003763.716
       219.000         166.000
  23042798.362   -12842801.59749  -9990877.08946  23042797.923    23042810.702
       224.000         175.000
  22612174.488   -14424076.26749 -11229752.61746  22612174.178    22612185.520
       227.000         176.000
 00  2  6  0 24 30.0000000  0  7G 4G24G 6G 5G10G 9G30
  22221703.682   -15810140.69449 -12310148.83046  22221703.885    22221715.366
       231.000         183.000
  20293921.026   -21905556.90549 -16209327.03248  20293920.531    20293930.298
       246.000         215.000
  24203823.532    -7899300.09649  -6142802.70645  24203822.792    24203837.433
       212.000         153.000
  20389876.205   -25710860.88949 -20021191.60148  20389875.343    20389884.445
       249.000         217.000
  22985503.189   -12569075.37849  -9778005.56346  22985501.798    22985515.145
       220.000         166.000
  23059002.639   -12757647.68349  -9924523.42546  23059002.904    23059014.688
       224.000         175.000
  22594991.699   -14514371.96049 -11300112.71946  22594991.693    22595003.338
       227.000         176.000
 00  2  6  0 25  0.0000000  0  7G 4G24G 6G 5G10G 9G30
  22238482.695   -15721966.52249 -12241441.73546  22238482.849    22238493.741
       230.000         183.000
  20298359.140   -21882234.11649 -16191153.39348  20298358.719    20298368.352
       246.000         215.000
  24190601.289    -7968782.09149  -6196944.23345  24190600.056    24190615.150
       213.000         153.000
  20384165.422   -25740870.85449 -20044575.92148  20384164.686    20384173.853
       248.000         217.000
  22967282.529   -12664824.64849  -9852615.13346  22967281.282    22967293.880
       220.000         167.000
  23075239.208   -12672324.11849  -9858037.57646  23075239.184    23075251.560
       224.000         175.000
  22577845.231   -14604476.64849 -11370323.99646  22577845.003    22577857.000
       227.000         177.000
 00  2  6  0 25 30.0000000  0  7G 4G24G 6G 5G10G 9G30
  22255302.640   -15633577.30149 -12172567.07246  22255302.974    22255313.717
       230.000         183.000
  20302875.672   -21858499.48149 -16172658.83748  20302875.332    20302884.876
       246.000         215.000
  24177379.157    -8038263.70449  -6251085.47845  24177378.369    24177392.791
       212.000         154.000
  20378545.356   -25770404.10849 -20067588.77848  20378544.657    20378553.683
       249.000         217.000
  22949092.565   -12760412.44849  -9927098.88646  22949091.045    22949104.546
       221.000         168.000
  23091507.432   -12586833.90049  -9791421.86446  23091507.662    23091519.843
       225.000         175.000
  22560731.199   -14694410.82149 -11440402.40046  22560730.781    22560742.913
       227.000         177.000
 00  2  6  0 26  0.0000000  0  7G 4G24G 6G 5G10G 9G30
  22272162.100   -15544980.36049 -12103530.54746  22272162.403    22272173.541
       230.000         182.000
  20307473.892   -21834335.49249 -16153829.72048  20307473.519    20307483.033
       246.000         215.000
  24164164.369    -8107706.72949  -6305196.64445  24164162.918    24164178.359
       213.000         154.000
  20373020.842   -25799435.24349 -20090210.37048  20373020.052    20373029.129
       248.000         217.000
  22930937.231   -12855818.43249 -10001440.96746  22930935.344    22930949.133
       222.000         168.000
  23107811.010   -12501158.46649  -9724661.83546  23107810.706    23107823.863
       223.000         175.000
  22543646.863   -14784188.73449 -11510359.03846  22543646.328    22543657.074
       227.000         177.000
 00  2  6  0 26 30.0000000  0  7G 4G24G 6G 5G10G 9G30
  22289060.361   -15456179.37749 -12034335.02846  22289060.924    22289071.673
       230.000         182.000
  20312156.044   -21809730.43249 -16134656.91248  20312155.587    20312165.334
       246.000         215.000
  24150963.858    -8177074.65049  -6359249.28845  24150962.427    24150977.728
       214.000         154.000
  20367590.907   -25827969.48849 -20112444.77648  20367590.241    20367599.183
       248.000         217.000
  22912822.895   -12951008.80749 -10075615.04146  22912821.284    22912834.440
       221.000         169.000
  23124151.763   -12415287.57249  -9657749.50446  23124151.913    23124164.008
       225.000         175.000
  22526594.173   -14873800.52849 -11580186.22546  22526593.864    22526605.979
       227.000         177.000
 00  2  6  0 27  0.0000000  0  7G 4G24G 6G 5G10G 9G30
  22305994.867   -15367188.22749 -11964991.32546  22305994.731    22306006.281
       230.000         182.000
  20316920.365   -21784693.47249 -16115147.56248  20316919.889    20316929.483
       246.000         215.000
  24137776.757    -8246372.32149  -6413247.19945  24137776.175    24137790.920
       213.000         154.000
  20362252.616   -25856022.12949 -20134303.91348  20362251.896    20362261.106
       248.000         217.000
  22894751.570   -13045973.14549 -10149612.99146  22894750.244    22894763.780
       222.000         170.000
  23140525.892   -12329240.98949  -9590700.27046  23140525.707    23140538.615
       223.000         175.000
  22509576.010   -14963230.57749 -11649871.78746  22509575.605    22509587.345
       227.000         177.000
 00  2  6  0 27 30.0000000  0  7G 4G24G 6G 5G10G 9G30
  22322962.745   -15278021.52049 -11895510.82646  22322962.535    22322973.863
       230.000         182.000
  20321767.342   -21759222.25849 -16095299.83148  20321766.904    20321776.475
       246.000         215.000
  24124598.236    -8315624.85149  -6467209.93045  24124596.939    24124612.960
       213.000         154.000
  20357003.161   -25883607.88249 -20155799.23648  20357002.470    20357011.485
       248.000         217.000
  22876721.319   -13140721.90849 -10223442.95346  22876720.396    22876733.697
       223.000         170.000
  23156932.682   -12243022.88149  -9523517.38446  23156932.359    23156945.517
       223.000         174.000
  22492599.882   -15052439.94449 -11719385.39746  22492600.067    22492611.106
       228.000         177.000
 00  2  6  0 28  0.0000000  0  7G 4G24G 6G 5G10G 9G30
  22339963.495   -15188682.20649 -11825895.82646  22339963.555    22339974.677
       229.000         181.000
  20326695.995   -21733321.85649 -16075117.67048  20326695.701    20326705.227
       246.000         215.000
  24111426.318    -8384842.43849  -6521145.42245  24111426.037    24111440.329
       214.000         154.000
  20351837.921   -25910750.99049 -20176949.64448  20351837.226    20351846.233
       248.000         217.000
  22858730.586   -13235262.99549 -10297111.09946  22858728.621    22858742.390
       222.000         171.000
  23173369.135   -12156649.04149  -9456213.14946  23173368.871    23173381.600
       222.000         174.000
  22475670.117   -15141405.70149 -11788709.17646  22475670.007    22475681.383
       228.000         178.000
 00  2  6  0 28 30.0000000  0  7G 4G24G 6G 5G10G 9G30
  22356994.622   -15099183.26749 -11756156.44846  22356994.944    22357005.923
       229.000         181.000
  20331705.513   -21706996.47349 -16054604.35048  20331705.053    20331714.555
       246.000         215.000
  24098256.453    -8454049.33949  -6575072.58945  24098254.985    24098270.269
       213.000         154.000
  20346754.483   -25937464.35349 -20197765.18248  20346753.646    20346762.524
       248.000         217.000
  22840775.648   -13329615.96149 -10370632.64946  22840774.081    22840787.249
       224.000         172.000
  23189832.345   -12070134.54249  -9388799.31146  23189831.524    23189844.369
       222.000         173.000
  22458787.651   -15230122.87349 -11857839.24046  22458787.465    22458798.245
       228.000         178.000
 00  2  6  0 29  0.0000000  0  7G 4G24G 6G 5G10G 9G30
  22374056.230   -15009524.17949 -11686292.27346  22374056.553    22374066.884
       230.000         180.000
  20336797.534   -21680237.66349 -16033753.29748  20336797.178    20336806.703
       246.000         215.000
  24085084.773    -8523265.89849  -6629007.29945  24085083.394    24085098.452
       214.000         155.000
  20341756.203   -25963730.27449 -20218232.06748  20341755.386    20341764.472
       248.000         217.000
  22822852.760   -13423800.36649 -10444022.85146  22822851.019    22822864.354
       224.000         172.000
  23206323.616   -11983472.53749  -9321270.53846  23206323.077    23206336.016
       224.000         172.000
  22441953.741   -15318584.85349 -11926770.45246  22441954.058    22441964.259
       228.000         178.000
 00  2  6  0 29 30.0000000  0  7G 4G24G 6G 5G10G 9G30
  22391149.919   -14919696.36049 -11616296.63046  22391150.269    22391160.877
       229.000         180.000
  20341977.158   -21653018.36849 -16012543.42648  20341976.842    20341986.422
       246.000         215.000
  24071915.234    -8592471.14849  -6682933.20345  24071914.350    24071929.207
       214.000         155.000
  20336845.272   -25989537.13349 -20238341.24848  20336844.545    20336853.589
       248.000         217.000
  22804963.456   -13517808.22149 -10517275.48946  22804961.923    22804975.203
       223.000         173.000
  23222847.755   -11896637.85149  -9253607.20546  23222848.177    23222859.888
       224.000         172.000
  22425168.264   -15406792.67949 -11995503.62546  22425168.259    22425179.229
       229.000         179.000
 00  2  6  0 30  0.0000000  0  7G 4G24G 6G 5G10G 9G30
  22408276.589   -14829695.21449 -11546165.93146  22408276.603    22408288.047
       229.000         180.000
  20347245.109   -21625334.93649 -15990971.88548  20347244.586    20347254.341
       246.000         215.000
  24058751.957    -8661643.68149  -6736833.62245  24058750.404    24058765.511
       216.000         155.000
  20332023.684   -26014874.50249 -20258084.58648  20332022.893    20332031.771
       248.000         217.000
  22787111.070   -13611622.17249 -10590377.03246  22787109.193    22787123.039
       224.000         173.000
  23239407.127   -11809618.14849  -9185799.69446  23239406.853    23239419.071
       223.000         171.000
  22408428.015   -15494762.55349 -12064051.37546  22408427.968    22408438.903
       228.000         179.000
 00  2  6  0 30 30.0000000  0  7G 4G24G 6G 5G10G 9G30
  22425436.945   -14739517.07549 -11475897.30746  22425437.233    22425448.244
       229.000         180.000
  20352603.011   -21597178.77449 -15969031.98248  20352602.866    20352612.308
       246.000         215.000
  24045593.670    -8730789.93449  -6790713.56045  24045593.112    24045607.402
       216.000         156.000
  20327292.681   -26039735.78549 -20277456.95048  20327291.779    20327300.946
       248.000         217.000
  22769296.878   -13705235.46949 -10663322.22246  22769296.214    22769308.470
       223.000         173.000
  23256002.399   -11722409.46649  -9117844.94146  23256002.584    23256014.534
       223.000         170.000
  22391732.564   -15582496.96049 -12132415.65546  22391731.957    22391743.634
       229.000         180.000
 00  2  6  0 31  0.0000000  0  7G 4G24G 6G 5G10G 9G30
  22442634.579   -14649143.25749 -11405476.21446  22442634.677    22442645.637
       228.000         179.000
  20358050.161   -21568553.62549 -15946726.63848  20358049.825    20358059.373
       246.000         215.000
  24032443.185    -8799895.30349  -6844561.64945  24032442.356    24032456.809
       215.000         156.000
  20322651.863   -26064123.24949 -20296460.10648  20322651.081    20322659.983
       248.000         218.000
  22751524.524   -13798628.70549 -10736095.94846  22751523.498    22751535.972
       224.000         174.000
  23272633.304   -11635013.56949  -9049744.28946  23272633.691    23272645.302
       223.000         170.000
  22375082.102   -15669994.91049 -12200595.69246  22375081.723    22375092.923
       229.000         180.000
 00  2  6  0 31 30.0000000  0  7G 4G24G 6G 5G10G 9G30
  22459866.563   -14558588.80049 -11334914.35446  22459866.118    22459878.154
       228.000         179.000
  20363582.638   -21539480.08349 -15924071.89148  20363582.405    20363591.860
       246.000         215.000
  24019300.881    -8868957.34449  -6898375.97045  24019300.324    24019314.153
       215.000         156.000
  20318098.922   -26088048.69049 -20315103.23848  20318098.043    20318107.098
       248.000         218.000
  22733793.684   -13891803.94449 -10808699.79746  22733792.273    22733804.079
       223.000         174.000
  23289295.430   -11547453.48849  -8981515.72546  23289295.406    23289307.207
       222.000         169.000
  22358475.365   -15757263.12249 -12268596.70146  22358475.140    22358485.863
       230.000         181.000
 00  2  6  0 32  0.0000000  0  7G 4G24G 6G 5G10G 9G30
  22477131.223   -14467862.35149 -11264218.47446  22477131.346    22477143.232
       228.000         179.000
  20369196.497   -21509978.89249 -15901083.91548  20369196.229    20369205.784
       246.000         215.000
  24006165.345    -8937983.96249  -6952162.69945  24006164.258    24006178.313
       215.000         156.000
  20313633.949   -26111511.98949 -20333386.26248  20313633.264    20313642.252
       248.000         218.000
  22716104.412   -13984760.70849 -10881133.42246  22716102.539    22716115.428
       223.000         174.000
  23305985.013   -11459749.36049  -8913174.90246  23305984.133    23305997.337
       222.000         169.000
  22341913.597   -15844295.01449 -12336413.57946  22341912.956    22341924.450
       229.000         181.000
 00  2  6  0 32 30.0000000  0  7G 4G24G 6G 5G10G 9G30
  22494426.830   -14376973.66049 -11193396.17546  22494427.242    22494438.182
       228.000         178.000
  20374888.237   -21480068.54849 -15877777.12048  20374887.999    20374897.429
       246.000         215.000
  23993035.964    -9006978.35249  -7005924.32245  23993034.638    23993049.167
       216.000         157.000
  20309257.680   -26134509.22849 -20351306.12648  20309256.924    20309265.914
       248.000         218.000
  22698457.533   -14077494.69749 -10953393.45146  22698456.306    22698468.978
       224.000         174.000
  23322697.637   -11371924.14849  -8844739.74546  23322696.753    23322709.310
       222.000         168.000
  22325396.834   -15931090.54649 -12404046.29246  22325396.280    22325407.623
       229.000         181.000
 00  2  6  0 33  0.0000000  0  7G 4G24G 6G 5G10G 9G30
  22511749.870   -14285940.67649 -11122461.44346  22511750.180    22511761.072
       227.000         178.000
  20380655.981   -21449758.66449 -15854158.99348  20380655.616    20380665.166
       246.000         215.000
  23979913.065    -9075938.44549  -7059659.20945  23979912.422    23979925.917
       215.000         157.000
  20304973.461   -26157022.58849 -20368848.93348  20304972.710    20304981.571
       248.000         218.000
  22680854.203   -14169999.83549 -11025475.15446  22680852.103    22680865.423
       223.000         175.000
  23339431.262   -11283988.35749  -8776218.40746  23339430.598    23339443.756
       223.000         168.000
  22308923.050   -16017659.98149 -12471502.81146  22308922.894    22308933.253
       230.000         182.000
 00  2  6  0 33 30.0000000  0  7G 4G24G 6G 5G10G 9G30
  22529100.859   -14194760.95249 -11051412.37646  22529100.998    22529112.686
       227.000         178.000
  20386502.829   -21419033.25549 -15830217.08248  20386502.618    20386512.106
       246.000         215.000
  23966798.597    -9144854.45249  -7113359.76645  23966797.042    23966811.743
       216.000         157.000
  20300787.198   -26179021.24649 -20385990.67548  20300786.378    20300795.240
       248.000         218.000
  22663297.143   -14262261.74349 -11097367.33246  22663295.417    22663308.409
       223.000         175.000
  23356184.995   -11195947.02349  -8707614.83746  23356184.530    23356197.706
       221.000         167.000
  22292497.433   -16103976.60449 -12538762.34946  22292497.055    22292507.789
       230.000         182.000
 00  2  6  0 34  0.0000000  0  7G 4G24G 6G 5G10G 9G30
  22546482.160   -14103421.87949 -10980239.12646  22546481.915    22546493.702
       227.000         177.000
  20392428.075   -21387895.73449 -15805954.04748  20392427.686    20392437.226
       246.000         215.000
  23953692.677    -9213725.61849  -7167025.38045  23953692.364    23953706.002
       216.000         157.000
  20296700.402   -26200497.16349 -20402725.08848  20296699.787    20296708.646
       248.000         218.000
  22645788.363   -14354270.19949 -11169062.03246  22645786.968    22645799.548
       224.000         175.000
  23372958.804   -11107800.40549  -8638929.22846  23372958.757    23372971.299
       221.000         167.000
  22276121.345   -16190032.74449 -12605818.90346  22276121.012    22276131.688
       230.000         182.000
 00  2  6  0 34 30.0000000  0  7G 4G24G 6G 5G10G 9G30
  22563895.850   -14011912.36249 -10908933.05246  22563895.750    22563907.251
       227.000         177.000
  20398433.736   -21356335.59449 -15781361.69748  20398433.338    20398442.894
       246.000         215.000
  23940594.326    -9282557.04949  -7220660.04545  23940593.442    23940607.407
       217.000         157.000
  20292716.273   -26221433.68249 -20419039.18948  20292715.455    20292724.306
       249.000         218.000
  22628325.986   -14446034.74849 -11240566.66046  22628324.777    22628336.510
       224.000         176.000
  23389754.443   -11019538.76049  -8570153.99546  23389754.450    23389766.226
       220.000         166.000
  22259796.059   -16275821.93049 -12672667.45746  22259795.634    22259806.690
       230.000         182.000
 00  2  6  0 35  0.0000000  0  7G 4G24G 6G 5G10G 9G30
  22581344.425   -13920219.63949 -10837484.22046  22581344.660    22581355.610
       228.000         177.000
  20404522.643   -21324338.00049 -15756428.48148  20404522.303    20404531.672
       246.000         215.000
  23927501.778    -9351357.97049  -7274270.95245  23927500.966    23927514.622
       216.000         157.000
  20288834.206   -26241833.89649 -20434935.39748  20288833.443    20288842.429
       249.000         218.000
  22610908.575   -14537562.96049 -11311887.15346  22610906.955    22610920.146
       223.000         176.000
  23406576.114   -10931140.50149  -8501272.31046  23406576.494    23406588.968
       220.000         166.000
  22243527.188   -16361314.69349 -12739285.02946  22243526.707    22243537.828
       230.000         182.000
 00  2  6  0 35 30.0000000  0  7G 4G24G 6G 5G10G 9G30
  22598830.060   -13828332.39149 -10765883.81446  22598830.295    22598841.859
       227.000         176.000
  20410694.502   -21291904.49049 -15731155.59148  20410694.160    20410703.599
       246.000         215.000
  23914414.663    -9420130.13449  -7327859.43845  23914413.976    23914427.755
       216.000         157.000
  20285050.332   -26261718.06549 -20450429.49148  20285049.792    20285058.460
       248.000         218.000
  22593533.212   -14628870.13449 -11383035.39946  22593531.973    22593544.354
       224.000         176.000
  23423426.093   -10842593.65549  -8432274.84246  23423425.400    23423438.124
       219.000         165.000
  22227318.182   -16446492.79349 -12805657.40846  22227318.068    22227328.551
       230.000         183.000
 00  2  6  0 36  0.0000000  0  7G 4G24G 6G 5G10G 9G30
  22616350.638   -13736261.40049 -10694140.23746  22616350.346    22616362.419
       226.000         176.000
  20416944.613   -21259059.97349 -15705562.43548  20416944.384    20416953.749
       246.000         215.000
  23901329.852    -9488890.30149  -7381438.58245  23901328.694    23901342.959
       215.000         156.000
  20281359.349   -26281114.03249 -20465543.16648  20281358.538    20281367.399
       249.000         218.000
  22576198.061   -14719966.19249 -11454019.13746  22576196.265    22576209.750
       225.000         176.000
  23440306.950   -10753884.36649  -8363150.80146  23440306.623    23440319.681
       221.000         166.000
  22211165.237   -16531376.46649 -12871800.36846  22211165.040    22211175.375
       232.000         183.000
 00  2  6  0 36 30.0000000  0  7G 4G24G 6G 5G10G 9G30
  22633901.886   -13644029.02049 -10622270.91146  22633902.146    22633913.874
       226.000         175.000
  20423272.328   -21225807.47249 -15679651.37148  20423272.073    20423281.306
       246.000         215.000
  23888247.177    -9557639.27949  -7435009.01445  23888245.692    23888259.783
       214.000         156.000
  20277758.080   -26300038.40549 -20480289.36948  20277757.221    20277766.057
       249.000         218.000
  22558903.216   -14810850.36649 -11524837.78246  22558901.477    22558915.029
       225.000         176.000
  23457217.040   -10665021.38649  -8293906.99646  23457217.646    23457230.174
       219.000         166.000
  22195066.563   -16615975.14249 -12937721.25046  22195066.425    22195076.619
       231.000         184.000
 00  2  6  0 37  0.0000000  0  7G 4G24G 6G 5G10G 9G30
  22651479.944   -13551655.96549 -10550291.96346  22651479.637    22651491.599
       226.000         175.000
  20429674.500   -21192163.49849 -15653435.26648  20429674.081    20429683.376
       246.000         215.000
  23875166.882    -9626375.73649  -7488569.67245  23875166.046    23875178.910
       214.000         155.000
  20274241.105   -26318519.92849 -20494690.49748  20274240.325    20274249.177
       249.000         218.000
  22541652.129   -14901504.86149 -11595477.46946  22541651.000    22541662.791
       225.000         176.000
  23474151.801   -10576029.07849  -8224562.42246  23474151.213    23474164.834
       218.000         166.000
  22179018.472   -16700307.71449 -13003434.77746  22179017.845    22179028.967
       231.000         184.000
 00  2  6  0 37 30.0000000  0  7G 4G24G 6G 5G10G 9G30
  22669080.768   -13459163.18449 -10478219.74446  22669081.262    22669092.219
       226.000         175.000
  20436148.676   -21158141.20049 -15626924.36148  20436148.399    20436157.695
       244.000         215.000
  23862089.378    -9695097.43649  -7542118.83245  23862088.680    23862102.367
       214.000         155.000
  20270809.311   -26336553.86449 -20508742.85548  20270808.601    20270817.239
       248.000         218.000
  22524447.702   -14991913.91449 -11665925.89046  22524445.851    22524458.364
       226.000         177.000
  23491104.534   -10486941.97749  -8155143.98246  23491104.507    23491117.527
       219.000         166.000
  22163016.003   -16784400.62049 -13068961.54546  22163015.374    22163026.448
       232.000         185.000
 00  2  6  0 38  0.0000000  0  7G 4G24G 6G 5G10G 9G30
  22686702.749   -13366559.31449 -10406060.94946  22686702.643    22686714.147
       225.000         175.000
  20442693.101   -21123749.97249 -15600125.98348  20442692.718    20442702.314
       244.000         215.000
  23849014.664    -9763804.60049  -7595656.67045  23849013.831    23849027.251
       215.000         155.000
  20267466.822   -26354118.59849 -20522429.61048  20267466.125    20267474.839
       249.000         218.000
  22507295.777   -15082047.17249 -11736159.42446  22507294.334    22507306.274
       226.000         177.000
  23508072.386   -10397775.60649  -8085663.77346  23508072.310    23508084.550
       218.000         166.000
  22147057.298   -16868263.46949 -13134309.05046  22147056.822    22147067.608
       231.000         185.000
 00  2  6  0 38 30.0000000  0  7G 4G24G 6G 5G10G 9G30
  22704344.608   -13273850.83649 -10333820.63346  22704344.979    22704356.350
       225.000         174.000
  20449310.299   -21088976.38649 -15573029.65948  20449309.977    20449319.420
       245.000         215.000
  23835942.898    -9832496.15849  -7649182.34645  23835941.561    23835956.300
       214.000         155.000
  20264218.210   -26371190.04249 -20535731.97848  20264217.544    20264226.305
       249.000         218.000
  22490198.998   -15171890.61949 -11806167.11446  22490197.560    22490210.106
       225.000         177.000
  23525051.461   -10308550.37949  -8016137.69946  23525051.476    23525063.863
       219.000         166.000
  22131144.498   -16951884.89449 -13199468.42246  22131144.378    22131155.131
       232.000         186.000
 00  2  6  0 39  0.0000000  0  7G 4G24G 6G 5G10G 9G30
  22722010.030   -13181018.77049 -10261484.01446  22722010.040    22722022.515
       225.000         174.000
  20456002.954   -21053806.11449 -15545624.24048  20456002.844    20456012.207
       245.000         215.000
  23822873.333    -9901176.08849  -7702698.95645  23822872.469    23822886.416
       214.000         154.000
  20261067.861   -26387745.13049 -20548632.00048  20261067.505    20261075.857
       249.000         218.000
  22473159.717   -15261431.70849 -11875939.22346  22473158.586    22473169.683
       226.000         178.000
  23542044.041   -10219253.98449  -7946556.18546  23542043.592    23542056.789
       220.000         166.000
  22115280.012   -17035252.86949 -13264430.31646  22115279.391    22115290.371
       232.000         186.000
 00  2  6  0 39 30.0000000  0  7G 4G24G 6G 5G10G 9G30
  22739703.955   -13088037.09549 -10189030.81046  22739703.971    22739716.460
       225.000         174.000
  20462770.830   -21018240.71249 -15517910.91648  20462770.389    20462779.890
       244.000         215.000
  23809807.195    -9969838.30849  -7756201.76945  23809806.794    23809819.079
       213.000         154.000
  20258021.646   -26403752.86049 -20561105.50348  20258021.014    20258029.569
       249.000         218.000
  22456177.877   -15350671.27749 -11945476.37246  22456176.812    22456188.394
       227.000         178.000
  23559054.161   -10129865.66349  -7876903.02246  23559054.476    23559066.719
       219.000         166.000
  22099468.003   -17118344.91449 -13329177.18846  22099467.647    22099477.703
       233.000         186.000
 00  2  6  0 40  0.0000000  0  7G 4G24G 6G 5G10G 9G30
  22757427.860   -12994897.52849 -10116454.56446  22757428.120    22757440.423
       225.000         174.000
  20469614.119   -20982278.82149 -15489888.64348  20469613.871    20469623.392
       244.000         215.000
  23796744.922   -10038480.03049  -7809688.60645  23796743.577    23796757.931
       212.000         153.000
  20255077.009   -26419226.79849 -20573163.07048  20255076.213    20255084.953
       249.000         218.000
  22439251.325   -15439620.30549 -12014787.13146  22439250.380    22439261.928
       227.000         178.000
  23576086.354   -10040361.41249  -7807159.53246  23576086.435    23576099.463
       219.000         166.000
  22083710.746   -17201149.25449 -13393699.87646  22083710.405    22083720.468
       233.000         187.000
 00  2  6  0 40 30.0000000  0  7G 4G24G 6G 5G10G 9G30
  22775182.000   -12901599.14549 -10043754.57546  22775182.070    22775193.752
       224.000         174.000
  20476534.903   -20945909.93449 -15461549.23048  20476534.610    20476543.927
       245.000         215.000
  23783687.292   -10107097.15449  -7863156.27045  23783686.656    23783700.269
       213.000         153.000
  20252228.887   -26434193.59349 -20584825.46148  20252228.094    20252236.741
       249.000         218.000
  22422375.616   -15528302.09849 -12083889.64546  22422374.223    22422385.818
       227.000         179.000
  23593141.493    -9950736.55749  -7737322.07846  23593141.538    23593154.646
       219.000         166.000
  22068010.723   -17283652.85249 -13457988.22346  22068010.574    22068020.568
       233.000         187.000
 00  2  6  0 41  0.0000000  0  7G 4G24G 6G 5G10G 9G30
  22792963.578   -12808156.42149  -9970942.11146  22792963.570    22792974.932
       224.000         173.000
  20483529.023   -20909155.43749 -15432909.34148  20483528.648    20483538.193
       245.000         215.000
  23770636.005   -10175681.28549  -7916598.22945  23770635.162    23770648.656
       213.000         154.000
  20249471.642   -26448682.83749 -20596115.73748  20249470.903    20249479.592
       249.000         218.000
  22405546.644   -15616738.22149 -12152800.74046  22405545.434    22405557.406
       227.000         179.000
  23610219.215    -9860992.66549  -7667391.86146  23610219.125    23610232.621
       219.000         166.000
  22052366.089   -17365865.12449 -13522049.55746  22052366.205    22052376.280
       233.000         187.000
 00  2  6  0 41 30.0000000  0  7G 4G24G 6G 5G10G 9G30
  22810767.956   -12714593.95349  -9898036.33846  22810768.574    22810779.775
       224.000         173.000
  20490592.326   -20872037.44749 -15403986.21248  20490591.998    20490601.419
       244.000         214.000
  23757591.596   -10244229.36949  -7970012.09245  23757590.622    23757603.671
       212.000         154.000
  20246799.842   -26462722.85049 -20607055.96148  20246798.943    20246807.613
       249.000         218.000
  22388762.224   -15704940.35749 -12221529.49546  22388760.534    22388772.781
       228.000         180.000
  23627315.762    -9771150.00649  -7597384.68546  23627315.780    23627328.339
       219.000         166.000
  22036777.010   -17447785.71649 -13585883.61846  22036776.697    22036786.281
       233.000         187.000
 00  2  6  0 42  0.0000000  0  7G 4G24G 6G 5G10G 9G30
  22828587.800   -12620950.34549  -9825067.33846  22828587.877    22828600.139
       224.000         173.000
  20497725.887   -20834550.09649 -15374775.27148  20497725.470    20497734.649
       244.000         214.000
  23744551.823   -10312752.60649  -8023406.58545  23744551.659    23744564.340
       213.000         155.000
  20244209.868   -26476333.09049 -20617661.29648  20244209.066    20244217.857
       249.000         218.000
  22372021.545   -15792912.60649 -12290079.12446  22372020.572    22372031.859
       227.000         180.000
  23644426.428    -9681233.21749  -7527319.75046  23644426.494    23644439.238
       218.000         167.000
  22021242.414   -17529420.01849 -13649494.59647  22021242.321    22021251.898
       233.000         188.000
 00  2  6  0 42 30.0000000  0  7G 4G24G 6G 5G10G 9G30
  22846421.171   -12527235.53749  -9752042.86546  22846421.242    22846432.928
       224.000         172.000
  20504928.841   -20796698.01249 -15345280.12248  20504928.583    20504937.883
       244.000         214.000
  23731517.048   -10381249.67649  -8076780.69845  23731516.143    23731529.615
       214.000         156.000
  20241705.710   -26489492.48349 -20627915.32348  20241704.959    20241713.734
       249.000         219.000
  22355327.171   -15880641.36449 -12358439.01746  22355325.910    22355337.030
       227.000         180.000
  23661547.289    -9591262.92749  -7457213.13046  23661547.162    23661560.536
       219.000         167.000
  22005762.434   -17610767.09149 -13712881.76347  22005762.148    22005772.194
       233.000         188.000
 00  2  6  0 43  0.0000000  0  7G 4G24G 6G 5G10G 9G30
  22864268.878   -12433445.34749  -9678959.65846  22864268.996    22864280.458
       223.000         172.000
  20512202.528   -20758474.51149 -15315495.55748  20512202.178    20512211.565
       244.000         214.000
  23718487.156   -10449721.64149  -8130135.26745  23718486.294    23718500.241
       214.000         157.000
  20239293.243   -26502169.86949 -20637793.76048  20239292.529    20239301.140
       249.000         219.000
  22338684.306   -15968099.32849 -12426587.90046  22338682.662    22338694.431
       227.000         181.000
  23678678.776    -9501236.74049  -7387062.96446  23678678.952    23678692.159
       218.000         167.000
  21990336.592   -17691829.75649 -13776047.30747  21990336.237    21990346.083
       233.000         188.000
 00  2  6  0 43 30.0000000  0  7G 4G24G 6G 5G10G 9G30
  22882133.626   -12339565.48449  -9605806.57646  22882133.509    22882145.527
       224.000         172.000
  20519548.775   -20719869.82149 -15285413.95948  20519548.412    20519557.792
       244.000         214.000
  23705457.056   -10518194.59649  -8183490.61045  23705456.174    23705470.203
       216.000         158.000
  20236977.763   -26514337.50749 -20647274.99248  20236977.082    20236985.566
       249.000         219.000
  22322097.088   -16055265.08549 -12494509.10346  22322095.925    22322107.398
       228.000         181.000
  23695820.833    -9411155.14849  -7316869.62246  23695820.635    23695834.037
       218.000         166.000
  21974966.006   -17772601.95349 -13838986.52147  21974965.848    21974975.767
       234.000         189.000
 00  2  6  0 44  0.0000000  0  7G 4G24G 6G 5G10G 9G30
  22900020.544   -12245569.18849  -9532562.76646  22900021.465    22900032.500
       223.000         172.000
  20526972.082   -20680859.91749 -15255016.60648  20526971.723    20526981.142
       244.000         214.000
  23692428.499   -10586659.30849  -8236839.53045  23692428.213    23692441.325
       216.000         160.000
  20234768.006   -26525949.68549 -20656323.39548  20234767.432    20234775.829
       249.000         219.000
  22305569.375   -16142117.88349 -12562186.43146  22305567.557    22305579.395
       227.000         181.000
  23712977.235    -9320997.93049  -7246617.35746  23712976.978    23712990.485
       217.000         166.000
  21959653.382   -17853069.65349 -13901688.47147  21959653.108    21959662.981
       234.000         189.000
 00  2  6  0 44 30.0000000  0  7G 4G24G 6G 5G10G 9G30
  22917935.491   -12151425.79149  -9459204.30446  22917936.193    22917947.014
       224.000         172.000
  20534473.511   -20641439.70949 -15224299.53048  20534473.100    20534482.544
       245.000         214.000
  23679404.424   -10655100.70449  -8290170.28645  23679404.120    23679416.812
       217.000         161.000
  20232665.634   -26536997.61849 -20664932.12448  20232664.778    20232673.525
       249.000         219.000
  22289104.936   -16228638.38249 -12629604.81546  22289103.735    22289115.226
       228.000         182.000
  23730149.953    -9230754.92549  -7176298.24646  23730150.109    23730162.942
       217.000         166.000
  21944400.627   -17933222.69749 -13964145.23247  21944400.298    21944410.269
       235.000         189.000
 00  2  6  0 45  0.0000000  0  7G 4G24G 6G 5G10G 9G30
  22935878.904   -12057132.76349  -9385729.26446  22935878.951    22935890.594
       223.000         171.000
  20542052.583   -20601611.29649 -15193264.37748  20542052.153    20542061.516
       245.000         214.000
  23666384.129   -10723521.86449  -8343485.29045  23666383.983    23666396.247
       218.000         162.000
  20230668.967   -26547489.94249 -20673107.91448  20230668.280    20230676.875
       249.000         219.000
  22272703.193   -16314829.37349 -12696766.45046  22272702.149    22272713.531
       228.000         182.000
  23747339.022    -9140425.97649  -7105912.17446  23747339.249    23747352.270
       217.000         165.000
  21929209.337   -18013052.85749 -14026350.39047  21929208.915    21929219.088
       235.000         190.000
 00  2  6  0 45 30.0000000  0  7G 4G24G 6G 5G10G 9G30
  22953849.894   -11962694.71949  -9312141.21046  22953850.250    22953861.498
       224.000         171.000
  20549707.281   -20561385.33849 -15161919.44448  20549707.114    20549716.141
       244.000         214.000
  23653370.683   -10791907.24849  -8396772.40046  23653369.663    23653383.096
       219.000         163.000
  20228776.929   -26557432.51549 -20680855.32848  20228776.290    20228784.864
       249.000         219.000
  22256362.563   -16400699.18749 -12763677.81046  22256361.362    22256372.682
       229.000         182.000
  23764541.360    -9050027.48249  -7035471.90246  23764541.580    23764555.183
       217.000         164.000
  21914082.011   -18092546.83349 -14088293.58947  21914081.327    21914091.106
       234.000         190.000
 00  2  6  0 46  0.0000000  0  7G 4G24G 6G 5G10G 9G30
  22971845.621   -11868126.74649  -9238451.92046  22971846.102    22971857.250
       223.000         170.000
  20557436.167   -20520769.85649 -15130270.98248  20557435.613    20557444.926
       244.000         214.000
  23640369.146   -10860230.09749  -8450010.78146  23640368.863    23640381.423
       219.000         164.000
  20226985.760   -26566844.92749 -20688189.62348  20226985.150    20226993.619
       249.000         219.000
  22240081.037   -16486258.51049 -12830347.23246  22240079.873    22240090.741
       229.000         183.000
  23781753.634    -8959576.82349  -6964990.99346  23781753.385    23781766.712
       216.000         163.000
  21899020.865   -18171692.95049 -14149965.72347  21899020.474    21899030.406
       234.000         190.000
 00  2  6  0 46 30.0000000  0  7G 4G24G 6G 5G10G 9G30
  22989862.597   -11773447.03849  -9164675.56646  22989862.999    22989874.269
       223.000         170.000
  20565235.611   -20479783.20349 -15098333.29948  20565235.254    20565244.709
       245.000         214.000
  23627378.767   -10928494.31049  -8503203.45946  23627377.927    23627390.247
       220.000         166.000
  20225289.726   -26575757.44549 -20695134.39548  20225289.044    20225297.481
       249.000         219.000
  22223857.237   -16571514.62549 -12896780.37846  22223856.185    22223867.612
       229.000         183.000
  23798973.805    -8869084.26849  -6894477.42745  23798973.913    23798987.357
       216.000         162.000
  21884026.330   -18250488.98249 -14211365.07047  21884025.904    21884035.883
       234.000         190.000
 00  2  6  0 47  0.0000000  0  7G 4G24G 6G 5G10G 9G30
  23007896.883   -11678676.35749  -9090828.30646  23007896.804    23007908.715
       223.000         169.000
  20573102.458   -20438442.40449 -15066119.65848  20573102.228    20573111.557
       245.000         214.000
  23614399.081   -10996701.99749  -8556352.08746  23614398.742    23614411.584
       219.000         166.000
  20223689.875   -26584164.60449 -20701685.37548  20223689.051    20223697.603
       249.000         219.000
  22207688.432   -16656481.32249 -12962988.00446  22207686.908    22207698.231
       229.000         184.000
  23816199.867    -8778560.88349  -6823939.84345  23816199.868    23816212.858
       215.000         161.000
  21869096.446   -18328945.39849 -14272499.77847  21869095.550    21869105.750
       235.000         191.000
 00  2  6  0 47 30.0000000  0  7G 4G24G 6G 5G10G 9G30
  23025946.849   -11583823.06649  -9016916.70746  23025947.039    23025958.404
       223.000         169.000
  20581035.877   -20396751.86149 -15033633.49348  20581035.636    20581044.868
       245.000         214.000
  23601428.836   -11064860.51549  -8609462.38246  23601428.251    23601440.792
       221.000         167.000
  20222186.178   -26592066.26649 -20707842.46848  20222185.532    20222193.875
       249.000         219.000
  22191575.932   -16741152.30349 -13028965.20346  22191574.383    22191585.810
       229.000         184.000
  23833432.599    -8688002.75749  -6753375.20045  23833432.808    23833445.101
       214.000         160.000
  21854229.567   -18407070.64249 -14333376.43547  21854229.202    21854239.127
       234.000         191.000
 00  2  6  0 48  0.0000000  0  7G 4G24G 6G 5G10G 9G30
  23044011.627   -11488892.26449  -8942944.68646  23044011.843    23044023.084
       223.000         168.000
  20589035.899   -20354711.54049 -15000874.77548  20589035.597    20589045.018
       245.000         214.000
  23588464.744   -11132986.53449  -8662547.37146  23588464.566    23588477.303
       221.000         168.000
  20220780.045   -26599455.42349 -20713600.20648  20220779.416    20220787.725
       249.000         219.000
  22175524.120   -16825504.35149 -13094693.88246  22175523.465    22175533.934
       229.000         184.000
  23850676.184    -8597387.36149  -6682765.93545  23850676.960    23850689.492
       214.000         158.000
  21839423.839   -18484874.61549 -14394002.74747  21839423.831    21839433.027
       235.000         191.000
 00  2  6  0 48 30.0000000  0  7G 4G24G 6G 5G10G 9G30
  23062090.763   -11393885.81849  -8868913.71246  23062089.897    23062103.173
       223.000         167.000
  20597102.441   -20312321.44449 -14967843.50048  20597102.173    20597111.463
       245.000         214.000
  23575504.738   -11201091.12449  -8715615.65446  23575503.938    23575516.539
       220.000         168.000
  20219474.282   -26606316.99449 -20718946.83348  20219473.550    20219481.986
       249.000         219.000
  22159535.827   -16909522.61149 -13160162.46346  22159534.394    22159545.865
       229.000         185.000
  23867933.723    -8506699.10749  -6612099.89945  23867933.973    23867947.503
       213.000         158.000
  21824674.606   -18562381.62149 -14454397.65947  21824674.282    21824683.962
       235.000         191.000
 00  2  6  0 49  0.0000000  0  7G 4G24G 6G 5G10G 9G30
  23080185.736   -11298796.24249  -8794817.99546  23080186.569    23080198.088
       223.000         167.000
  20605236.658   -20269575.68049 -14934535.08748  20605236.322    20605245.377
       245.000         214.000
  23562548.300   -11269176.50149  -8768668.96446  23562548.047    23562560.185
       220.000         168.000
  20218272.882   -26612630.12949 -20723866.11348  20218272.101    20218280.678
       249.000         219.000
  22143615.184   -16993185.46049 -13225354.10646  22143613.795    22143625.554
       229.000         185.000
  23885205.904    -8415933.54849  -6541373.61845  23885206.366    23885219.640
       213.000         157.000
  21809980.410   -18639599.39949 -14514567.20247  21809980.345    21809989.763
       235.000         191.000
 00  2  6  0 49 30.0000000  0  7G 4G24G 6G 5G10G 9G30
  23098296.388   -11203624.26849  -8720658.07146  23098296.312    23098307.816
       222.000         166.000
  20613441.287   -20226459.72949 -14900938.21148  20613440.982    20613450.326
       245.000         214.000
  23549594.062   -11337250.44849  -8821713.37846  23549593.296    23549605.445
       221.000         168.000
  20217175.213   -26618398.30649 -20728360.74648  20217174.471    20217182.881
       249.000         219.000
  22127765.365   -17076476.13649 -13290255.73946  22127764.158    22127775.151
       229.000         186.000
  23902494.689    -8325080.70449  -6470579.33045  23902494.707    23902508.953
       212.000         156.000
  21795343.737   -18716515.02749 -14574501.31147  21795343.817    21795352.979
       236.000         192.000
 00  2  6  0 50  0.0000000  0  7G 4G24G 6G 5G10G 9G30
  23116424.182   -11108362.02949  -8646427.81446  23116424.762    23116435.773
       222.000         165.000
  20621715.001   -20182981.08449 -14867058.71948  20621714.564    20621723.930
       245.000         214.000
  23536644.704   -11405298.81949  -8874737.86546  23536643.970    23536656.105
       220.000         168.000
  20216180.332   -26623626.13249 -20732434.33048  20216179.640    20216187.976
       249.000         219.000
  22111984.722   -17159403.31849 -13354874.13546  22111983.322    22111994.454
       230.000         186.000
  23919798.246    -8234150.41849  -6399724.69445  23919798.398    23919811.603
       212.000         155.000
  21780767.318   -18793114.01349 -14634188.68947  21780767.219    21780776.904
       236.000         192.000
 00  2  6  0 50 30.0000000  0  7G 4G24G 6G 5G10G 9G30
  23134572.038   -11012994.70449  -8572115.67346  23134572.159    23134584.338
       221.000         164.000
  20630055.605   -20139150.80649 -14832905.22548  20630055.330    20630064.587
       245.000         214.000
  23523702.516   -11473309.73149  -8927733.16146  23523701.660    23523714.686
       220.000         168.000
  20215285.474   -26628328.51149 -20736098.47348  20215284.850    20215293.207
       249.000         219.000
  22096268.459   -17241992.00349 -13419228.77246  22096267.242    22096278.242
       230.000         186.000
  23937111.217    -8143170.40349  -6328831.32245  23937110.543    23937125.024
       212.000         154.000
  21766253.293   -18869385.13349 -14693620.58747  21766253.336    21766262.728
       237.000         193.000
 00  2  6  0 51  0.0000000  0  7G 4G24G 6G 5G10G 9G30
  23152739.803   -10917522.44749  -8497721.72146  23152739.822    23152751.243
       221.000         163.000
  20638460.911   -20094980.42649 -14798486.72048  20638460.551    20638469.682
       244.000         214.000
  23510765.697   -11541292.17049  -8980706.27446  23510764.866    23510777.077
       220.000         168.000
  20214486.146   -26632528.73549 -20739371.32948  20214485.453    20214493.765
       249.000         219.000
  22080613.187   -17324260.35949 -13483333.80346  22080611.631    22080622.792
       231.000         186.000
  23954428.812    -8052166.37949  -6257919.23745  23954428.085    23954442.086
       211.000         154.000
  21751805.693   -18945307.40049 -14752780.65147  21751805.858    21751814.839
       236.000         193.000
 00  2  6  0 51 30.0000000  0  7G 4G24G 6G 5G10G 9G30
  23170924.819   -10821959.50349  -8423257.12346  23170924.243    23170937.688
       220.000         163.000
  20646928.462   -20050483.14249 -14763813.47948  20646928.219    20646937.454
       245.000         214.000
  23497833.231   -11609251.97849  -9033661.74346  23497832.629    23497844.235
       220.000         168.000
  20213778.613   -26636246.70749 -20742268.40248  20213777.943    20213786.296
       249.000         219.000
  22065014.234   -17406232.63649 -13547208.12946  22065013.099    22065023.850
       231.000         187.000
  23971747.772    -7961155.19949  -6187001.57345  23971748.384    23971761.068
       212.000         153.000
  21737425.479   -19020875.19149 -14811664.50347  21737425.294    21737434.585
       238.000         193.000
 00  2  6  0 52  0.0000000  0  7G 4G24G 6G 5G10G 9G30
  23189128.351   -10726299.41149  -8348716.82145  23189127.581    23189140.278
       220.000         162.000
  20655454.601   -20005677.79849 -14728900.19448  20655454.197    20655463.483
       244.000         214.000
  23484902.858   -11677200.81349  -9086608.65946  23484902.131    23484914.130
       220.000         167.000
  20213162.075   -26639486.40549 -20744792.79148  20213161.479    20213169.723
       249.000         219.000
  22049470.456   -17487914.88649 -13610856.46446  22049469.220    22049480.252
       231.000         187.000
  23989063.873    -7870158.59049  -6116095.27745  23989064.486    23989078.001
       212.000         154.000
  21723111.625   -19096094.47449 -14870276.79247  21723111.433    21723120.964
       236.000         194.000
 00  2  6  0 52 30.0000000  0  7G 4G24G 6G 5G10G 9G30
  23207346.333   -10630563.22849  -8274117.22645  23207346.029    23207358.017
       220.000         162.000
  20664041.419   -19960553.49749 -14693738.37048  20664041.092    20664050.311
       245.000         213.000
  23471971.229   -11745155.98249  -9139560.50946  23471970.313    23471982.468
       219.000         167.000
  20212637.933   -26642240.46849 -20746938.76148  20212637.262    20212645.440
       249.000         219.000
  22033984.564   -17569293.11749 -13674267.90346  22033983.291    22033994.307
       231.000         187.000
  24006376.079    -7779183.05849  -6045205.39845  24006375.972    24006389.497
       212.000         154.000
  21708862.046   -19170976.05549 -14928625.93547  21708861.638    21708870.901
       237.000         194.000
 00  2  6  0 53  0.0000000  0  7G 4G24G 6G 5G10G 9G30
  23225575.532   -10534768.38149  -8199471.91745  23225576.198    23225587.125
       219.000         162.000
  20672692.713   -19915090.50949 -14658312.63748  20672692.203    20672701.633
       245.000         213.000
  23459038.179   -11813118.59349  -9192518.16146  23459037.117    23459049.416
       219.000         166.000
  20212210.863   -26644484.57849 -20748687.37048  20212210.208    20212218.470
       249.000         219.000
  22018561.784   -17650339.62149 -13737420.86247  22018560.678    22018571.338
       231.000         188.000
  24023688.024    -7688208.88549  -5974316.58145  24023688.297    24023701.706
       214.000         155.000
  21694679.508   -19245505.31249 -14986700.54947  21694679.596    21694688.450
       237.000         194.000
 00  2  6  0 53 30.0000000  0  7G 4G24G 6G 5G10G 9G30
  23243814.783   -10438920.36549  -8124785.13745  23243813.982    23243827.535
       218.000         161.000
  20681409.700   -19869282.21049 -14622617.82648  20681409.388    20681418.820
       244.000         213.000
  23446106.400   -11881074.69249  -9245470.74146  23446105.929    23446117.508
       219.000         166.000
  20211885.478   -26646194.41649 -20750019.65948  20211884.783    20211893.095
       249.000         219.000
  22003207.364   -17731027.03349 -13800294.00847  22003206.147    22003216.848
       231.000         188.000
  24041001.742    -7597225.43249  -5903420.53745  24041001.881    24041015.662
       214.000         155.000
  21680563.868   -19319682.87249 -15044501.09547  21680563.748    21680572.553
       237.000         194.000
 00  2  6  0 54  0.0000000  0  7G 4G24G 6G 5G10G 9G30
  23262065.262   -10343013.54049  -8050052.54545  23262065.497    23262077.464
       219.000         161.000
  20690195.025   -19823114.92949 -14586643.29348  20690194.866    20690204.106
       244.000         213.000
  23433181.717   -11948993.28549  -9298394.10546  23433180.946    23433192.634
       218.000         165.000
  20211667.152   -26647341.44849 -20750913.40048  20211666.444    20211674.920
       249.000         219.000
  21987925.751   -17811331.75849 -13862868.96347  21987924.287    21987935.521
       231.000         188.000
  24058317.710    -7506230.10849  -5832515.22845  24058317.743    24058331.622
       214.000         154.000
  21666517.166   -19393498.06049 -15102019.27947  21666516.673    21666526.061
       237.000         194.000
 00  2  6  0 54 30.0000000  0  7G 4G24G 6G 5G10G 9G30
  23280325.192   -10247056.86449  -7975281.11545  23280325.376    23280337.372
       220.000         161.000
  20699050.910   -19776576.90149 -14550379.86548  20699050.645    20699059.821
       244.000         213.000
  23420269.421   -12016846.83549  -9351266.80346  23420268.226    23420280.222
       217.000         165.000
  20211556.234   -26647924.10849 -20751367.37048  20211555.581    20211563.784
       249.000         219.000
  21972717.284   -17891252.06349 -13925144.37147  21972716.115    21972727.087
       232.000         189.000
  24075638.423    -7415210.03849  -5761590.65045  24075638.432    24075651.855
       216.000         155.000
  21652541.680   -19466939.29849 -15159246.07647  21652541.637    21652550.966
       238.000         195.000
 00  2  6  0 55  0.0000000  0  7G 4G24G 6G 5G10G 9G30
  23298599.948   -10151022.63749  -7900449.28445  23298599.975    23298611.657
       218.000         161.000
  20707975.944   -19729675.23849 -14513833.08148  20707975.767    20707984.860
       245.000         213.000
  23407371.017   -12084627.39249  -9404082.61446  23407370.165    23407382.081
       218.000         164.000
  20211552.170   -26647945.29349 -20751383.82748  20211551.414    20211559.701
       249.000         219.000
  21957582.604   -17970784.61549 -13987117.63547  21957581.063    21957592.175
       232.000         189.000
  24092964.251    -7324163.25949  -5690645.25945  24092964.728    24092978.384
       216.000         155.000
  21638640.463   -19539990.17349 -15216168.69347  21638640.171    21638649.368
       237.000         195.000
 00  2  6  0 55 30.0000000  0  7G 4G24G 6G 5G10G 9G30
  23316889.813   -10054908.67749  -7825555.30145  23316890.013    23316901.215
       218.000         162.000
  20716967.019   -19682426.68349 -14477015.99348  20716966.572    20716975.856
       244.000         213.000
  23394484.727   -12152344.41949  -9456848.93546  23394484.425    23394495.318
       218.000         164.000
  20211652.564   -26647417.47449 -20750972.48948  20211651.845    20211660.117
       249.000         219.000
  21942519.293   -18049942.27549 -14048798.77947  21942518.141    21942528.656
       231.000         189.000
  24110292.450    -7233103.51749  -5619689.77045  24110293.091    24110306.173
       216.000         156.000
  21624809.539   -19612671.46749 -15272803.33247  21624809.186    21624818.236
       238.000         195.000
 00  2  6  0 56  0.0000000  0  7G 4G24G 6G 5G10G 9G30
  23335195.752    -9958710.35549  -7750595.57045  23335196.270    23335206.811
       217.000         162.000
  20726024.442   -19634829.54949 -14439927.27748  20726024.052    20726033.125
       244.000         213.000
  23381607.003   -12220016.54249  -9509580.26546  23381606.181    23381618.273
       218.000         164.000
  20211855.165   -26646352.60749 -20750142.66948  20211854.534    20211862.870
       249.000         219.000
  21927527.000   -18128726.77049 -14110189.14747  21927525.760    21927536.676
       232.000         189.000
  24127623.673    -7142028.15249  -5548722.11345  24127623.854    24127637.367
       216.000         155.000
  21611048.609   -19684985.03649 -15329151.43147  21611048.532    21611057.553
       237.000         196.000
 00  2  6  0 56 30.0000000  0  7G 4G24G 6G 5G10G 9G30
  23353516.720    -9862433.27349  -7675574.50745  23353517.156    23353529.465
       218.000         162.000
  20735146.135   -19586894.48549 -14402575.24248  20735145.717    20735155.017
       244.000         213.000
  23368730.185   -12287683.76849  -9562307.77846  23368729.165    23368741.471
       217.000         164.000
  20212154.154   -26644781.14349 -20748918.10148  20212153.517    20212161.665
       249.000         219.000
  21912605.931   -18207136.85349 -14171287.76147  21912604.819    21912615.169
       232.000         190.000
  24144958.359    -7050934.53449  -5477740.22945  24144958.483    24144972.208
       215.000         155.000
  21597357.095   -19756933.97049 -15385215.39947  21597356.861    21597366.001
       237.000         196.000
 00  2  6  0 57  0.0000000  0  7G 4G24G 6G 5G10G 9G30
  23371848.407    -9766099.61349  -7600509.32845  23371847.756    23371860.186
       218.000         162.000
  20744328.487   -19538640.84549 -14364974.97048  20744328.240    20744337.543
       244.000         213.000
  23355850.768   -12355364.67549  -9615045.95246  23355850.231    23355861.286
       219.000         164.000
  20212549.463   -26642703.59849 -20747299.18448  20212548.674    20212556.984
       249.000         219.000
  21897757.729   -18285163.98649 -14232087.97347  21897756.519    21897767.131
       232.000         190.000
  24162294.327    -6959834.07549  -5406753.01545  24162294.432    24162308.143
       215.000         155.000
  21583733.251   -19828527.31949 -15441002.29247  21583732.973    21583742.096
       238.000         196.000
 00  2  6  0 57 30.0000000  0  7G 4G24G 6G 5G10G 9G30
  23390186.010    -9669734.81049  -7525419.88745  23390185.671    23390198.388
       219.000         162.000
  20753573.347   -19490058.62149 -14327118.65947  20753573.000    20753582.465
       244.000         212.000
  23342970.878   -12423048.11049  -9667786.10746  23342970.548    23342981.910
       219.000         164.000
  20213042.115   -26640114.58049 -20745281.71948  20213041.443    20213049.586
       249.000         219.000
  21882983.426   -18362802.84049 -14292585.62747  21882982.357    21882992.652
       233.000         190.000
  24179632.147    -6868723.73449  -5335758.10945  24179632.209    24179646.353
       214.000         155.000
  21570176.480   -19899767.88749 -15496514.28847  21570176.388    21570185.488
       239.000         197.000
 00  2  6  0 58  0.0000000  0  7G 4G24G 6G 5G10G 9G30
  23408528.493    -9573344.39549  -7450310.46146  23408528.563    23408540.573
       218.000         163.000
  20762879.302   -19441155.32249 -14289012.15547  20762878.918    20762888.030
       244.000         212.000
  23330092.981   -12490720.98949  -9720518.02046  23330092.423    23330104.301
       220.000         164.000
  20213630.223   -26637023.72149 -20742873.20548  20213629.545    20213637.661
       249.000         219.000
  21868283.249   -18440052.05449 -14352779.65847  21868282.153    21868292.881
       232.000         190.000
  24196969.314    -6777617.06949  -5264766.05845  24196969.477    24196983.587
       213.000         155.000
  21556690.356   -19970637.39049 -15551737.13547  21556690.344    21556699.514
       238.000         197.000
 00  2  6  0 58 30.0000000  0  7G 4G24G 6G 5G10G 9G30
  23426875.699    -9476929.36949  -7375181.88746  23426875.412    23426887.922
       219.000         163.000
  20772244.197   -19391942.43549 -14250664.42347  20772243.865    20772252.923
       244.000         212.000
  23317220.979   -12558362.93749  -9773225.82846  23317220.414    23317232.068
       219.000         165.000
  20214316.719   -26633415.89949 -20740061.86648  20214316.160    20214324.250
       249.000         219.000
  21853654.745   -18516924.60649 -14412680.19047  21853653.181    21853663.967
       232.000         190.000
  24214303.434    -6686526.29049  -5193786.39245  24214304.166    24214317.049
       213.000         155.000
  21543275.752   -20041131.17349 -15606667.21747  21543275.950    21543284.380
       238.000         197.000
 00  2  6  0 59  0.0000000  0  7G 4G24G 6G 5G10G 9G30
  23445229.933    -9380477.27249  -7300024.38846  23445229.455    23445241.793
       218.000         163.000
  20781667.096   -19342424.52749 -14212079.01547  20781666.821    20781676.039
       244.000         212.000
  23304357.688   -12625959.02249  -9825897.90846  23304356.979    23304368.198
       221.000         165.000
  20215107.963   -26629257.56149 -20736821.55148  20215107.193    20215115.473
       249.000         219.000
  21839096.791   -18593426.51249 -14472291.91347  21839095.769    21839105.886
       232.000         191.000
  24231633.433    -6595456.91149  -5122823.40945  24231633.999    24231647.192
       215.000         156.000
  21529932.039   -20111252.15549 -15661306.80247  21529931.918    21529940.884
       239.000         197.000
 00  2  6  0 59 30.0000000  0  7G 4G24G 6G 5G10G 9G30
  23463598.961    -9283947.21949  -7224806.12446  23463598.519    23463610.735
       219.000         163.000
  20791148.935   -19292597.00749 -14173252.34847  20791148.507    20791157.909
       244.000         212.000
  23291504.925   -12693500.11149  -9878527.14246  23291503.857    23291516.042
       221.000         166.000
  20216006.107   -26624537.50949 -20733143.53648  20216005.461    20216013.541
       249.000         219.000
  21824609.836   -18669555.47449 -14531613.02247  21824608.448    21824618.966
       233.000         191.000
  24248958.960    -6504411.34949  -5051878.98245  24248959.185    24248973.225
       214.000         157.000
  21516662.653   -20180982.60949 -15715642.07747  21516662.505    21516671.230
       239.000         197.000
 00  2  6  1  0  0.0000000  0  7G 4G24G 6G 5G10G 9G30
  23481984.420    -9187331.02249  -7149520.76746  23481983.861    23481996.721
       218.000         163.000
  20800685.237   -19242483.31349 -14134202.69147  20800684.905    20800694.135
       244.000         212.000
  23278660.335   -12760998.31549  -9931122.95146  23278659.669    23278670.750
       221.000         167.000
  20217011.174   -26619255.77549 -20729027.84948  20217010.485    20217018.771
       250.000         219.000
  21810193.841   -18745311.41949 -14590643.48147  21810192.838    21810202.722
       233.000         191.000
  24266279.201    -6413393.50849  -4980956.15945  24266279.784    24266293.566
       214.000         158.000
  21503468.812   -20250316.12549 -15769668.04947  21503468.638    21503477.331
       239.000         198.000
 00  2  6  1  0 30.0000000  0  7G 4G24G 6G 5G10G 9G30
  23500385.500    -9090632.57049  -7074171.34345  23500385.722    23500397.019
       218.000         162.000
  20810277.747   -19192074.19449 -14094922.83147  20810277.455    20810286.440
       244.000         212.000
  23265822.001   -12828463.75149  -9983693.23246  23265820.488    23265832.527
       221.000         168.000
  20218124.732   -26613403.73349 -20724467.76648  20218124.034    20218132.221
       249.000         219.000
  21795850.939   -18820683.32349 -14649374.68547  21795849.507    21795859.781
       233.000         191.000
  24283596.098    -6322393.04149  -4910046.87745  24283595.886    24283610.734
       213.000         158.000
  21490350.784   -20319251.34449 -15823383.66447  21490350.710    21490359.353
       239.000         198.000
 00  2  6  1  1  0.0000000  0  7G 4G24G 6G 5G10G 9G30
  23518800.014    -8993863.56549  -6998766.93845  23518799.814    23518812.081
       218.000         162.000
  20819926.460   -19141369.80749 -14055412.88847  20819926.305    20819935.221
       244.000         211.000
  23252990.492   -12895893.06549 -10036235.37246  23252990.000    23253000.977
       221.000         168.000
  20219341.091   -26607011.51349 -20719486.76748  20219340.412    20219348.438
       249.000         219.000
  21781583.678   -18895657.55149 -14707796.01847  21781582.264    21781592.283
       233.000         192.000
  24300908.703    -6231415.19649  -4839155.22645  24300908.691    24300922.850
       212.000         158.000
  21477309.817   -20387781.31549 -15876783.50647  21477309.558    21477318.625
       239.000         198.000
 00  2  6  1  1 30.0000000  0  7G 4G24G 6G 5G10G 9G30
  23537222.611    -8897052.00949  -6923329.36845  23537222.840    23537234.566
       216.000         161.000
  20829630.807   -19090372.86349 -14015674.97847  20829630.467    20829639.742
       244.000         211.000
  23240164.993   -12963290.51749 -10088752.67046  23240164.549    23240175.257
       223.000         169.000
  20220653.604   -26600113.92849 -20714111.98048  20220652.873    20220661.070
       249.000         219.000
  21767392.869   -18970230.10849 -14765904.35447  21767391.648    21767402.017
       233.000         192.000
  24318215.646    -6140467.23549  -4768286.86745  24318215.859    24318230.314
       212.000         158.000
  21464346.534   -20455903.30049 -15929865.43847  21464346.352    21464354.984
       239.000         198.000
 00  2  6  1  2  0.0000000  0  7G 4G24G 6G 5G10G 9G30
  23555644.988    -8800241.60149  -6847892.70545  23555645.056    23555657.761
       217.000         160.000
  20839392.036   -19039077.23649 -13975704.32647  20839391.769    20839400.659
       244.000         211.000
  23227343.485   -13030667.29349 -10141253.87246  23227343.085    23227354.076
       223.000         169.000
  20222060.320   -26592721.48749 -20708351.59048  20222059.619    20222067.797
       247.000         219.000
  21753278.498   -19044400.98049 -14823699.69247  21753277.329    21753287.090
       233.000         192.000
  24335515.863    -6049554.46549  -4697445.91945  24335515.773    24335530.427
       211.000         157.000
  21451456.539   -20523640.11749 -15982647.23847  21451456.356    21451464.993
       240.000         199.000
 00  2  6  1  2 30.0000000  0  7G 4G24G 6G 5G10G 9G30
  23574068.284    -8703426.61149  -6772452.44545  23574067.932    23574080.602
       216.000         159.000
  20849211.633   -18987474.73349 -13935494.54647  20849211.321    20849220.435
       244.000         211.000
  23214527.409   -13098015.37949 -10193732.70346  23214526.508    23214538.097
       222.000         169.000
  20223562.641   -26584826.55449 -20702199.65048  20223562.089    20223570.188
       248.000         219.000
  21739241.239   -19118166.76349 -14881179.38247  21739239.937    21739250.287
       234.000         193.000
  24352807.839    -5958685.32449  -4626638.97545  24352807.862    24352821.980
       210.000         156.000
  21438639.267   -20590994.80149 -16035131.27647  21438639.209    21438647.850
       240.000         199.000
 00  2  6  1  3  0.0000000  0  7G 4G24G 6G 5G10G 9G30
  23592493.591    -8606601.03549  -6697003.94145  23592493.177    23592506.051
       215.000         158.000
  20859088.276   -18935572.60349 -13895051.28647  20859087.954    20859096.852
       244.000         211.000
  23201714.994   -13165344.29449 -10246196.60746  23201714.158    23201724.882
       223.000         170.000
  20225161.358   -26576425.00049 -20695652.93948  20225160.763    20225168.803
       247.000         219.000
  21725282.003   -19191522.33749 -14938339.42247  21725281.031    21725290.810
       234.000         193.000
  24370090.141    -5867866.69949  -4555871.39645  24370090.328    24370104.944
       210.000         155.000
  21425893.658   -20657972.87649 -16087321.85547  21425893.353    21425901.811
       240.000         200.000
 00  2  6  1  3 30.0000000  0  7G 4G24G 6G 5G10G 9G30
  23610921.180    -8509763.47749  -6621546.07445  23610921.059    23610933.281
       216.000         157.000
  20869023.435   -18883362.85849 -13854368.33347  20869023.076    20869032.012
       244.000         211.000
  23188904.979   -13232660.46249 -10298650.57646  23188904.176    23188915.038
       223.000         170.000
  20226863.481   -26567479.97249 -20688682.74448  20226862.804    20226870.849
       248.000         219.000
  21711403.359   -19264454.60449 -14995169.61547  21711402.079    21711412.417
       234.000         194.000
  24387364.258    -5777091.13049  -4485137.35845  24387364.159    24387379.214
       208.000         153.000
  21413219.223   -20724577.03249 -16139221.07947  21413219.117    21413227.588
       240.000         200.000
 00  2  6  1  4  0.0000000  0  7G 4G24G 6G 5G10G 9G30
  23629354.101    -8412897.42749  -6546066.02545  23629354.039    23629365.858
       214.000         156.000
  20879018.453   -18830838.51949 -13813440.24347  20879018.037    20879027.310
       244.000         211.000
  23176099.805   -13299951.64449 -10351085.07146  23176099.410    23176110.435
       224.000         171.000
  20228673.752   -26557966.91249 -20681269.93048  20228673.161    20228681.186
       248.000         219.000
  21697607.381   -19336952.36749 -15051661.23247  21697606.290    21697616.204
       235.000         194.000
  24404629.444    -5686362.43749  -4414439.85045  24404629.087    24404644.185
       208.000         152.000
  21400616.954   -20790801.86049 -16190824.71847  21400617.071    21400625.041
       239.000         200.000
 00  2  6  1  4 30.0000000  0  7G 4G24G 6G 5G10G 9G30
  23647797.480    -8315976.48749  -6470543.21945  23647798.140    23647809.529
       213.000         155.000
  20889071.828   -18778007.59649 -13772273.25647  20889071.517    20889080.332
       244.000         211.000
  23163303.079   -13367197.96049 -10403484.59146  23163302.110    23163313.972
       223.000         171.000
  20230593.458   -26547878.50149 -20673408.78448  20230592.792    20230600.816
       247.000         219.000
  21683895.627   -19409007.44549 -15107807.90147  21683894.502    21683904.311
       236.000         194.000
  24421889.773    -5595659.29349  -4343762.27045  24421889.308    24421905.198
       206.000         151.000
  21388092.767   -20856616.36049 -16242108.62047  21388092.672    21388101.335
       240.000         200.000
 00  2  6  1  5  0.0000000  0  7G 4G24G 6G 5G10G 9G30
  23666248.353    -8219016.35149  -6394989.84945  23666248.477    23666260.839
       214.000         154.000
  20899183.617   -18724869.52449 -13730866.93447  20899183.187    20899192.326
       244.000         211.000
  23150514.076   -13434403.98949 -10455852.72846  23150513.983    23150524.354
       223.000         171.000
  20232621.283   -26537221.88649 -20665104.88848  20232620.588    20232628.613
       247.000         219.000
  21670268.540   -19480617.67749 -15163607.93547  21670267.526    21670277.413
       235.000         194.000
  24439146.734    -5504973.70749  -4273098.36045  24439146.621    24439161.757
       206.000         148.000
  21375647.549   -20922015.86849 -16293069.15547  21375647.477    21375656.002
       239.000         200.000
 00  2  6  1  5 30.0000000  0  7G 4G24G 6G 5G10G 9G30
  23684705.037    -8122026.05449  -6319413.00245  23684704.210    23684716.952
       213.000         153.000
  20909351.539   -18671436.59949 -13689230.85447  20909351.187    20909360.230
       244.000         211.000
  23137733.554   -13501565.26949 -10508185.98146  23137732.511    23137743.753
       223.000         172.000
  20234755.459   -26526006.52849 -20656365.60548  20234754.751    20234762.830
       247.000         219.000
  21656725.576   -19551785.85349 -15219063.51347  21656724.432    21656734.316
       236.000         195.000
  24456398.927    -5414313.20449  -4202454.00345  24456398.418    24456413.892
       203.000         146.000
  21363281.176   -20987001.12049 -16343706.88847  21363280.918    21363289.314
       240.000         200.000
 00  2  6  1  6  0.0000000  0  7G 4G24G 6G 5G10G 9G30
  23703169.359    -8024995.40249  -6243804.69745  23703169.327    23703180.358
       212.000         152.000
  20919573.242   -18617720.95349 -13647374.47647  20919573.061    20919582.028
       244.000         211.000
  23124959.698   -13568691.38249 -10560491.84746  23124959.134    23124969.882
       224.000         172.000
  20236991.653   -26514254.92349 -20647208.46648  20236990.933    20236998.921
       247.000         219.000
  21643264.388   -19622524.34149 -15274184.26647  21643263.301    21643272.919
       236.000         195.000
  24473646.043    -5323679.27549  -4131830.36945  24473646.347    24473661.138
       201.000         144.000
  21350995.859   -21051560.36749 -16394012.67647  21350995.993    21351004.317
       239.000         201.000
 00  2  6  1  6 30.0000000  0  7G 4G24G 6G 5G10G 9G30
  23721638.938    -7927936.97049  -6168174.75645  23721638.551    23721651.677
       210.000         152.000
  20929845.412   -18563740.15149 -13605311.47747  20929845.150    20929854.071
       244.000         210.000
  23112189.376   -13635798.94549 -10612783.26046  23112188.575    23112199.282
       224.000         172.000
  20239327.281   -26501980.81549 -20637644.18148  20239326.736    20239334.680
       247.000         219.000
  21629881.344   -19692852.17649 -15328985.02947  21629880.086    21629890.050
       236.000         195.000
  24490887.538    -5233075.07249  -4061229.88445  24490888.461    24490903.640
       203.000         145.000
  21338791.429   -21115694.44049 -16443987.16047  21338791.442    21338799.747
       239.000         201.000
 00  2  6  1  7  0.0000000  0  7G 4G24G 6G 5G10G 9G30
  23740112.515    -7830857.54349  -6092528.41445  23740112.242    23740124.195
       211.000         151.000
  20940168.935   -18509489.49449 -13563038.20347  20940168.713    20940177.535
       244.000         210.000
  23099420.884   -13702896.84849 -10665067.15746  23099419.665    23099431.500
       223.000         172.000
  20241761.703   -26489187.76249 -20627675.52348  20241761.050    20241768.988
       248.000         219.000
  21616577.631   -19762763.16349 -15383460.97247  21616576.316    21616586.455
       236.000         196.000
  24508119.379    -5142522.16649  -3990669.37645  24508119.182    24508134.770
       208.000         146.000
  21326666.572   -21179410.47449 -16493635.90247  21326666.306    21326674.756
       239.000         201.000
 00  2  6  1  7 30.0000000  0  7G 4G24G 6G 5G10G 9G30
  23758591.022    -7733752.06749  -6016861.78545  23758590.760    23758603.503
       211.000         150.000
  20950542.790   -18454974.43549 -13520558.89947  20950542.461    20950551.294
       244.000         210.000
  23086654.015   -13769986.38749 -10717344.53646  23086653.422    23086664.018
       224.000         173.000
  20244294.148   -26475879.48149 -20617305.39048  20244293.577    20244301.419
       247.000         219.000
  21603352.946   -19832258.67749 -15437613.17447  21603351.871    21603361.686
       236.000         196.000
  24525338.714    -5052034.41749  -3920159.62745  24525339.231    24525354.779
       207.000         146.000
  21314621.068   -21242709.49949 -16542959.70347  21314620.975    21314629.183
       239.000         201.000
 00  2  6  1  8  0.0000000  0  7G 4G24G 6G 5G10G 9G30
  23777073.709    -7636624.89249  -5941178.25245  23777073.984    23777085.095
       211.000         149.000
  20960967.928   -18400189.77849 -13477869.52347  20960967.504    20960976.371
       244.000         210.000
  23073889.648   -13837062.85449 -10769611.73546  23073889.159    23073900.682
       225.000         173.000
  20246925.342   -26462052.22249 -20606530.86248  20246924.766    20246932.677
       247.000         219.000
  21590206.735   -19901341.89749 -15491444.10847  21590205.462    21590215.269
       237.000         196.000
  24542545.648    -4961612.22649  -3849700.95945  24542546.479    24542561.421
       208.000         146.000
  21302655.648   -21305587.70549 -16591955.59747  21302655.538    21302664.038
       239.000         201.000
 00  2  6  1  8 30.0000000  0  7G 4G24G 6G 5G10G 9G30
  23795557.118    -7539493.93549  -5865491.78545  23795557.089    23795569.010
       212.000         149.000
  20971445.009   -18345131.96749 -13434967.30147  20971444.651    20971453.759
       243.000         210.000
  23061131.374   -13904107.26849 -10821853.96946  23061130.651    23061141.619
       226.000         174.000
  20249656.479   -26447699.83949 -20595347.14748  20249655.935    20249663.912
       247.000         219.000
  21577141.399   -19969999.99049 -15544943.78047  21577140.087    21577150.159
       237.000         196.000
  24559737.375    -4871269.98449  -3779304.60645  24559737.418    24559753.448
       210.000         146.000
  21290770.748   -21368042.65149 -16640621.68447  21290770.656    21290778.839
       240.000         201.000
 00  2  6  1  9  0.0000000  0  7G 4G24G 6G 5G10G 9G30
  23814041.749    -7442356.58749  -5789800.34245  23814041.752    23814054.343
       211.000         149.000
  20981974.049   -18289801.24649 -13391852.42647  20981973.902    20981982.550
       243.000         210.000
  23048379.612   -13971117.56849 -10874069.62746  23048379.609    23048389.225
       225.000         174.000
  20252488.774   -26432815.97349 -20583749.29248  20252488.164    20252496.203
       247.000         219.000
  21564161.082   -20038211.34449 -15598095.34047  21564160.123    21564169.720
       236.000         196.000
  24576913.141    -4781011.51749  -3708973.52345  24576912.977    24576928.223
       209.000         146.000
  21278966.785   -21430072.60349 -16688956.60947  21278966.898    21278974.950
       240.000         202.000
 00  2  6  1  9 30.0000000  0  7G 4G24G 6G 5G10G 9G30
  23832526.122    -7345220.41649  -5714109.79745  23832526.655    23832538.434
       213.000         150.000
  20992554.865   -18234198.55249 -13348525.61747  20992554.567    20992563.378
       243.000         209.000
  23035635.331   -14038088.82749 -10926254.87146  23035635.132    23035645.684
       226.000         175.000
  20255424.231   -26417389.82649 -20571728.88048  20255423.492    20255431.577
       247.000         218.000
  21551266.428   -20105972.59749 -15650896.17347  21551265.389    21551274.903
       237.000         197.000
  24594072.559    -4690838.73649  -3638709.19445  24594073.038    24594088.262
       212.000         147.000
  21267244.625   -21491672.56149 -16736956.47147  21267244.653    21267252.555
       240.000         202.000
 00  2  6  1 10  0.0000000  0  7G 4G24G 6G 5G10G 9G30
  23851010.393    -7248085.08449  -5638419.91045  23851010.959    23851022.018
       214.000         150.000
  21003187.432   -18178323.81349 -13304986.83647  21003187.216    21003196.147
       243.000         209.000
  23022901.034   -14105007.32549 -10978399.00046  23022900.068    23022911.071
       226.000         175.000
  20258464.063   -26401415.11149 -20559281.01448  20258463.448    20258471.424
       246.000         218.000
  21538459.345   -20173273.76749 -15703338.50247  21538458.166    21538467.890
       236.000         197.000
  24611216.334    -4600748.72449  -3568509.37045  24611216.999    24611231.762
       213.000         147.000
  21255606.639   -21552830.08049 -16784611.58047  21255606.620    21255614.551
       240.000         202.000
 00  2  6  1 10 30.0000000  0  7G 4G24G 6G 5G10G 9G30
  23869496.100    -7150942.10049  -5562724.05145  23869495.952    23869507.919
       214.000         150.000
  21013870.959   -18122181.40749 -13261239.48347  21013870.620    21013879.337
       244.000         209.000
  23010175.956   -14171877.31249 -11030505.33646  23010174.777    23010186.181
       226.000         175.000
  20261608.762   -26384889.50749 -20546403.88448  20261608.240    20261616.099
       247.000         218.000
  21525742.569   -20240100.29449 -15755410.98447  21525741.359    21525750.972
       237.000         197.000
  24628343.986    -4510743.26149  -3498375.43645  24628344.532    24628360.440
       213.000         147.000
  21244053.119   -21613543.82849 -16831920.88747  21244053.368    21244061.086
       240.000         203.000
 00  2  6  1 11  0.0000000  0  7G 4G24G 6G 5G10G 9G30
  23887985.283    -7053780.86749  -5487013.97945  23887985.292    23887996.378
       213.000         151.000
  21024605.406   -18065771.30049 -13217283.53647  21024605.469    21024614.025
       243.000         209.000
  22997457.256   -14238713.70249 -11082585.48646  22997456.652    22997466.897
       226.000         175.000
  20264858.188   -26367813.45449 -20533097.83348  20264857.601    20264865.519
       247.000         218.000
  21513116.115   -20306452.09549 -15807113.55147  21513115.120    21513124.427
       237.000         197.000
  24645456.905    -4420814.87649  -3428301.56245  24645457.735    24645472.925
       213.000         147.000
  21232581.645   -21673826.30649 -16878894.14347  21232581.720    21232589.856
       241.000         203.000
 00  2  6  1 11 30.0000000  0  7G 4G24G 6G 5G10G 9G30
  23906477.397    -6956604.12849  -5411291.84045  23906477.840    23906489.618
       213.000         151.000
  21035391.986   -18009087.44749 -13173114.28147  21035391.671    21035400.685
       243.000         209.000
  22984746.486   -14305508.78149 -11134633.45246  22984745.961    22984756.554
       226.000         175.000
  20268211.354   -26350192.26749 -20519367.00248  20268210.630    20268218.571
       247.000         218.000
  21500579.125   -20372333.70549 -15858449.73847  21500577.800    21500587.617
       237.000         197.000
  24662553.218    -4330974.17949  -3358296.01445  24662553.280    24662569.125
       213.000         146.000
  21221192.170   -21733677.96449 -16925531.69147  21221192.124    21221200.215
       241.000         203.000
 00  2  6  1 12  0.0000000  0  7G 4G24G 6G 5G10G 9G30
  23924973.014    -6859409.08549  -5335555.41645  23924973.925    23924985.434
       215.000         152.000
  21046228.499   -17952141.16749 -13128740.53347  21046228.239    21046237.212
       243.000         209.000
  22972043.437   -14372263.06549 -11186649.62746  22972043.095    22972053.823
       226.000         176.000
  20271666.121   -26332036.88449 -20505219.91748  20271665.498    20271673.462
       247.000         218.000
  21488130.641   -20437750.44649 -15909423.69247  21488129.607    21488138.743
       237.000         198.000
  24679633.920    -4241215.69349  -3288354.53145  24679634.555    24679648.856
       214.000         146.000
  21209885.729   -21793093.31849 -16971829.26347  21209885.422    21209893.681
       241.000         203.000
 00  2  6  1 12 30.0000000  0  7G 4G24G 6G 5G10G 9G30
  23943470.066    -6762206.29049  -5259812.96045  23943469.591    23943482.416
       214.000         153.000
  21057113.921   -17894937.75249 -13084166.42047  21057113.644    21057122.537
       243.000         208.000
  22959346.095   -14438987.37049 -11238642.44146  22959345.176    22959356.297
       226.000         176.000
  20275222.596   -26313347.33149 -20490656.59448  20275221.966    20275230.041
       247.000         218.000
  21475769.454   -20502708.29449 -15960040.06947  21475768.385    21475778.027
       237.000         198.000
  24696698.569    -4151541.33649  -3218478.59845  24696699.071    24696713.703
       212.000         146.000
  21198662.379   -21852072.07549 -17017786.62747  21198662.331    21198670.442
       241.000         204.000
 00  2  6  1 13  0.0000000  0  7G 4G24G 6G 5G10G 9G30
  23961965.655    -6665011.23449  -5184076.53445  23961965.077    23961977.700
       214.000         153.000
  21068048.226   -17837477.35949 -13039392.06647  21068047.704    21068056.912
       243.000         208.000
  22946655.934   -14505673.96549 -11290605.87446  22946655.411    22946666.120
       225.000         176.000
  20278880.714   -26294123.46949 -20475676.92748  20278880.213    20278888.022
       246.000         218.000
  21463493.611   -20567217.59049 -16010306.92647  21463492.723    21463502.010
       237.000         198.000
  24713746.804    -4061953.02249  -3148669.71845  24713747.069    24713761.838
       213.000         145.000
  21187523.658   -21910605.93149 -17063397.31747  21187523.453    21187531.460
       241.000         204.000
 00  2  6  1 13 30.0000000  0  7G 4G24G 6G 5G10G 9G30
  23980458.923    -6567828.55349  -5108349.73245  23980459.154    23980470.395
       214.000         154.000
  21079030.411   -17779765.41749 -12994421.69947  21079030.211    21079039.189
       242.000         208.000
  22933974.628   -14572314.01049 -11342533.03046  22933973.830    22933984.921
       225.000         176.000
  20282641.840   -26274358.48949 -20460275.61048  20282641.320    20282649.129
       247.000         218.000
  21451303.660   -20631275.84449 -16060222.32647  21451302.502    21451311.717
       237.000         198.000
  24730778.746    -3972450.50849  -3078927.68745  24730779.238    24730794.242
       211.000         144.000
  21176474.443   -21968669.48849 -17108641.54347  21176474.452    21176482.434
       241.000         204.000
 00  2  6  1 14  0.0000000  0  7G 4G24G 6G 5G10G 9G30
  23998948.754    -6470663.82749  -5032636.93045  23998948.763    23998960.944
       214.000         154.000
  21090059.511   -17721807.03849 -12949259.30547  21090059.126    21090068.098
       243.000         208.000
  22921301.323   -14638912.18349 -11394427.55746  22921300.614    22921311.675
       225.000         176.000
  20286506.491   -26254049.57649 -20444450.45048  20286505.914    20286513.816
       247.000         218.000
  21439199.568   -20694882.67549 -16109785.96547  21439198.262    21439207.868
       238.000         198.000
  24747797.419    -3883017.59949  -3009239.89945  24747796.807    24747813.111
       210.000         143.000
  21165516.907   -22026251.30249 -17153510.38447  21165516.708    21165524.680
       242.000         205.000
 00  2  6  1 14 30.0000000  0  7G 4G24G 6G 5G10G 9G30
  24017435.145    -6373516.88249  -4956937.96945  24017435.046    24017447.914
       215.000         154.000
  21101137.920   -17663589.45049 -12903894.92847  21101137.626    21101146.451
       242.000         207.000
  22908634.972   -14705473.62149 -11446293.46246  22908634.652    22908644.593
       225.000         176.000
  20290476.598   -26233186.38549 -20428193.38848  20290476.066    20290483.834
       247.000         218.000
  21427182.811   -20758030.35349 -16158991.82847  21427181.711    21427191.162
       237.000         199.000
  24764801.991    -3793658.32049  -2939609.49945  24764801.455    24764817.747
       212.000         141.000
  21154650.559   -22083353.98549 -17198005.87947  21154650.490    21154658.589
       241.000         205.000
 00  2  6  1 15  0.0000000  0  7G 4G24G 6G 5G10G 9G30
  24035919.394    -6276381.54849  -4881248.06345  24035919.919    24035930.821
       215.000         154.000
  21112267.855   -17605100.94549 -12858319.44547  21112267.631    21112276.531
       242.000         207.000
  22895977.263   -14771989.52549 -11498123.87446  22895976.725    22895987.271
       225.000         176.000
  20294553.606   -26211761.45649 -20411498.60748  20294553.063    20294560.945
       246.000         218.000
  21415255.934   -20820705.96549 -16207829.85147  21415255.187    21415263.973
       237.000         199.000
  24781791.734    -3704377.55249  -2870040.26745  24781791.383    24781807.382
       210.000         142.000
  21143874.893   -22139980.03549 -17242129.97347  21143874.870    21143882.778
       241.000         205.000
 00  2  6  1 15 30.0000000  0  7G 4G24G 6G 5G10G 9G30
  24054403.668    -6179245.79349  -4805557.82445  24054403.023    24054415.396
       213.000         154.000
  21123449.511   -17546340.72649 -12812532.23747  21123449.380    21123458.176
       242.000         207.000
  22883329.784   -14838451.63849 -11549912.37646  22883329.171    22883339.401
       226.000         176.000
  20298737.656   -26189774.11949 -20394365.58848  20298736.997    20298744.789
       247.000         218.000
  21403421.245   -20882897.34649 -16256290.55047  21403420.280    21403429.505
       237.000         199.000
  24798766.878    -3615173.54149  -2800530.86345  24798767.251    24798782.796
       210.000         142.000
  21133190.098   -22196128.49749 -17285881.92547  21133190.207    21133198.122
       241.000         205.000
 00  2  6  1 16  0.0000000  0  7G 4G24G 6G 5G10G 9G30
  24072887.613    -6082111.82949  -4729868.99145  24072887.567    24072899.519
       213.000         154.000
  21134682.739   -17487309.72649 -12766534.02947  21134682.424    21134691.398
       242.000         207.000
  22870691.655   -14904865.03449 -11601662.91446  22870691.060    22870701.174
       226.000         177.000
  20303027.018   -26167233.21449 -20376801.21448  20303026.517    20303034.327
       247.000         218.000
  21391678.711   -20944604.43149 -16304373.87747  21391677.620    21391686.748
       238.000         199.000
  24815725.527    -3526055.93649  -2731088.76645  24815726.540    24815741.722
       210.000         142.000
  21122592.715   -22251817.79149 -17329276.07747  21122592.573    21122600.447
       242.000         205.000
 00  2  6  1 16 30.0000000  0  7G 4G24G 6G 5G10G 9G30
  24091373.600    -5984967.31549  -4654171.92545  24091372.800    24091384.587
       212.000         154.000
  21145967.331   -17428008.78949 -12720325.48247  21145967.212    21145975.923
       241.000         207.000
  22858063.932   -14971223.44749 -11653370.61046  22858063.592    22858074.260
       227.000         177.000
  20307421.410   -26144140.51749 -20358806.87948  20307420.965    20307428.637
       247.000         218.000
  21380029.945   -21005818.47949 -16352073.02547  21380029.094    21380038.192
       238.000         199.000
  24832665.227    -3437038.53649  -2661724.79145  24832666.163    24832681.747
       212.000         142.000
  21112080.195   -22307061.08249 -17372322.70447  21112080.351    21112087.985
       242.000         205.000
 00  2  6  1 17  0.0000000  0  7G 4G24G 6G 5G10G 9G30
  24109860.404    -5887818.29049  -4578471.33245  24109861.270    24109872.332
       210.000         153.000
  21157299.558   -17368457.61349 -12673921.93847  21157299.606    21157308.311
       241.000         206.000
  22845446.204   -15037529.56449 -11705037.55846  22845445.567    22845456.005
       226.000         178.000
  20311917.614   -26120512.54549 -20340395.44048  20311917.072    20311924.811
       247.000         218.000
  21368475.791   -21066535.45849 -16399384.84347  21368474.733    21368483.702
       238.000         200.000
  24849584.647    -3348127.35349  -2592443.56645  24849585.550    24849600.533
       209.000         144.000
  21101651.048   -22361866.13849 -17415027.84147  21101651.141    21101658.813
       242.000         205.000
 00  2  6  1 17 30.0000000  0  7G 4G24G 6G 5G10G 9G30
  24128345.551    -5790677.91249  -4502777.51645  24128345.544    24128357.708
       211.000         152.000
  21168675.340   -17308677.48649 -12627339.99547  21168675.081    21168683.949
       241.000         206.000
  22832835.455   -15103798.73649 -11756675.71346  22832835.157    22832844.650
       227.000         178.000
  20316510.641   -26096375.95049 -20321587.67648  20316510.133    20316517.922
       247.000         218.000
  21357014.954   -21126762.16149 -16446314.63247  21357014.117    21357023.147
       239.000         200.000
  24866483.291    -3259325.64749  -2523247.65545  24866483.352    24866499.065
       209.000         144.000
  21091305.240   -22416233.38449 -17457391.83347  21091305.363    21091313.050
       242.000         205.000
 00  2  6  1 18  0.0000000  0  7G 4G24G 6G 5G10G 9G30
  24146827.221    -5693555.75749  -4427097.87145  24146827.839    24146838.760
       209.000         151.000
  21180091.817   -17248683.05149 -12580591.05247  21180091.418    21180100.501
       242.000         206.000
  22820227.456   -15170053.60249 -11808302.73746  22820227.205    22820236.806
       228.000         178.000
  20321199.117   -26071737.72949 -20302389.03748  20321198.587    20321206.549
       247.000         218.000
  21345646.569   -21186502.98049 -16492865.80547  21345645.537    21345654.650
       239.000         200.000
  24883359.927    -3170639.14249  -2454141.50945  24883360.258    24883375.232
       206.000         143.000
  21081043.332   -22470159.60049 -17499412.16947  21081043.167    21081051.085
       242.000         205.000
 00  2  6  1 18 30.0000000  0  7G 4G24G 6G 5G10G 9G30
  24165302.635    -5596466.58149  -4351443.89745  24165303.389    24165315.107
       211.000         150.000
  21191545.483   -17188493.38849 -12533689.98247  21191545.229    21191554.125
       241.000         206.000
  22807621.952   -15236295.48449 -11859919.63946  22807621.742    22807631.348
       227.000         179.000
  20325982.033   -26046603.28849 -20282803.72848  20325981.356    20325989.381
       246.000         218.000
  21334370.648   -21245757.85349 -16539038.32247  21334369.593    21334378.609
       238.000         200.000
  24900213.698    -3082072.84349  -2385129.05845  24900215.190    24900229.479
       205.000         143.000
  21070867.939   -22523631.29549 -17541078.33047  21070867.852    21070875.850
       241.000         205.000
 00  2  6  1 19  0.0000000  0  7G 4G24G 6G 5G10G 9G30
  24183768.911    -5499425.26449  -4275827.22845  24183768.475    24183780.532
       206.000         149.000
  21203035.652   -17128112.25549 -12486639.71347  21203035.374    21203044.311
       241.000         206.000
  22795017.667   -15302530.83549 -11911531.45446  22795017.148    22795026.987
       228.000         179.000
  20330860.734   -26020965.28549 -20262826.03448  20330860.208    20330868.030
       246.000         218.000
  21323186.245   -21304531.84449 -16584836.12647  21323185.296    21323194.200
       239.000         201.000
  24917043.876    -2993630.58249  -2316213.25345  24917044.729    24917059.727
       203.000         142.000
  21060784.177   -22576621.35549 -17582369.19547  21060784.302    21060791.834
       242.000         206.000
 00  2  6  1 19 30.0000000  0  7G 4G24G 6G 5G10G 9G30
  24202227.571    -5402424.27249  -4200242.01145  24202227.806    24202239.614
       208.000         147.000
  21214564.020   -17067530.19549 -12439432.87747  21214563.893    21214572.561
       241.000         206.000
  22782416.644   -15368749.18449 -11963130.02146  22782415.912    22782426.265
       227.000         179.000
  20335837.627   -25994811.46449 -20242446.40348  20335836.913    20335844.788
       246.000         218.000
  21312093.540   -21362824.12449 -16630258.57047  21312092.675    21312101.525
       239.000         201.000
  24933848.819    -2905320.88649  -2247400.77045  24933850.165    24933864.767
       201.000         140.000
  21050795.100   -22629113.87849 -17623272.37147  21050795.218    21050802.958
       242.000         206.000
 00  2  6  1 20  0.0000000  0  7G 4G24G 6G 5G10G 9G30
  24220680.886    -5305451.09149  -4124678.42545  24220680.302    24220692.972
       209.000         146.000
  21226132.600   -17006736.75949 -12392061.33247  21226132.105    21226140.992
       241.000         205.000
  22769820.231   -15434943.05449 -12014709.52946  22769819.652    22769828.762
       228.000         179.000
  20340920.166   -25968102.25749 -20221634.00448  20340919.504    20340927.441
       246.000         218.000
  21301094.371   -21420624.76449 -16675297.92247  21301093.530    21301102.508
       239.000         201.000
  24950627.909    -2817147.18849  -2178694.25645  24950628.200    24950642.991
       201.000         139.000
  21040901.795   -22681103.14349 -17663783.40047  21040901.827    21040909.289
       242.000         206.000
 00  2  6  1 20 30.0000000  0  7G 4G24G 6G 5G10G 9G30
  24239131.578    -5208491.91649  -4049125.79945  24239131.988    24239143.366
       204.000         146.000
  21237747.421   -16945700.11749 -12344500.27547  21237747.293    21237755.961
       241.000         205.000
  22757233.460   -15501086.58449 -12066249.79446  22757233.045    22757242.862
       227.000         179.000
  20346115.143   -25940802.36449 -20200361.33148  20346114.578    20346122.383
       246.000         218.000
  21290192.572   -21477913.66649 -16719938.51447  21290191.757    21290200.781
       239.000         201.000
  24967380.464    -2729112.74349  -2110096.23745  24967381.412    24967396.007
       202.000         139.000
  21031105.100   -22732584.85249 -17703898.93247  21031105.299    21031112.902
       242.000         206.000
 00  2  6  1 21  0.0000000  0  6G 4G24G 6G 5G10G30
  24257585.829    -5111514.07849  -3973558.59845  24257585.953    24257597.488
       208.000         146.000
  21249416.106   -16884380.75449 -12296718.91747  21249415.846    21249424.700
       242.000         205.000
  22744662.324   -15567148.00149 -12117726.09746  22744661.668    22744671.186
       227.000         179.000
  20351428.513   -25912880.15649 -20178603.73448  20351427.830    20351435.675
       246.000         218.000
  21279394.884   -21534655.39649 -16764152.74147  21279393.922    21279402.616
       239.000         202.000
  21021406.816   -22783549.35449 -17743611.44247  21021406.773    21021414.487
       242.000         206.000
 00  2  6  1 21 30.0000000  0  6G 4G24G 6G 5G10G30
  24276051.193    -5014477.89249  -3897945.92945  24276051.489    24276062.790
       209.000         144.000
  21261145.106   -16822744.27949 -12248690.46847  21261144.866    21261153.704
       242.000         205.000
  22732115.604   -15633080.88449 -12169102.23046  22732114.844    22732125.185
       226.000         179.000
  20356867.303   -25884299.07349 -20156332.73748  20356866.784    20356874.526
       246.000         218.000
  21268711.039   -21590799.16549 -16807901.02947  21268710.128    21268719.003
       239.000         202.000
  21011811.173   -22833974.31649 -17782903.53847  21011811.256    21011818.702
       242.000         206.000
 00  2  6  1 22  0.0000000  0  6G 4G24G 6G 5G10G30
  24294510.556    -4917473.03349  -3822357.68345  24294510.790    24294521.924
       206.000         144.000
  21272918.470   -16760874.66249 -12200480.34947  21272918.165    21272926.834
       242.000         205.000
  22719578.107   -15698965.29649 -12220440.60046  22719577.044    22719587.087
       226.000         179.000
  20362414.355   -25855149.04249 -20133618.39648  20362413.784    20362421.498
       246.000         217.000
  21258126.764   -21646419.44249 -16851241.39647  21258125.866    21258134.692
       239.000         202.000
  21002301.712   -22883946.60249 -17821842.89947  21002301.839    21002309.231
       242.000         207.000
 00  2  6  1 22 30.0000000  0  6G 4G24G 6G 5G10G30
  24312962.591    -4820506.91549  -3746799.61745  24312962.776    24312974.779
       213.000         145.000
  21284734.185   -16698782.31749 -12152096.67547  21284733.975    21284742.874
       242.000         205.000
  22707052.802   -15764785.40649 -12271728.86546  22707051.895    22707062.182
       226.000         179.000
  20368061.275   -25825474.04849 -20110494.99348  20368060.765    20368068.522
       246.000         217.000
  21247642.370   -21701514.83349 -16894172.76347  21247641.584    21247650.127
       239.000         202.000
  20992880.370   -22933455.63949 -17860421.28747  20992880.441    20992887.828
       242.000         207.000
 00  2  6  1 23  0.0000000  0  6G 4G24G 6G 5G10G30
  24331405.560    -4723588.27349  -3671278.54045  24331405.349    24331417.552
       210.000         144.000
  21296585.888   -16636501.20149 -12103565.91047  21296585.760    21296594.380
       242.000         205.000
  22694536.692   -15830557.21149 -12322979.49746  22694536.729    22694545.629
       226.000         180.000
  20373798.426   -25795325.00549 -20087002.20548  20373797.833    20373805.626
       246.000         217.000
  21237253.787   -21756106.72249 -16936711.78947  21237252.966    21237261.701
       240.000         202.000
  20983545.154   -22982512.13449 -17898647.05147  20983545.084    20983552.689
       242.000         207.000
 00  2  6  1 23 30.0000000  0  6G 4G24G 6G 5G10G30
  24349837.318    -4626728.48249  -3595803.33145  24349837.039    24349848.795
       210.000         144.000
  21308468.068   -16574059.85049 -12054910.28947  21308467.855    21308476.390
       241.000         204.000
  22682021.898   -15896322.45549 -12374225.01946  22682021.353    22682031.582
       226.000         180.000
  20379619.942   -25764732.58549 -20063163.92848  20379619.413    20379627.288
       246.000         217.000
  21226955.685   -21810223.21849 -16978880.37847  21226954.585    21226963.606
       240.000         202.000
  20974294.361   -23031125.14749 -17936527.24047  20974294.538    20974301.956
       243.000         207.000
 00  2  6  1 24  0.0000000  0  6G 4G24G 6G 5G10G30
  24368258.508    -4529924.28049  -3520371.41345  24368258.356    24368270.278
       209.000         144.000
  21320380.022   -16511461.98549 -12006132.70847  21320379.688    21320388.612
       242.000         204.000
  22669508.275   -15962081.54149 -12425465.74246  22669507.956    22669517.471
       227.000         180.000
  20385525.475   -25733698.81049 -20038981.73948  20385524.815    20385532.766
       246.000         217.000
  21216746.164   -21863874.17849 -17020686.21547  21216745.243    21216753.772
       238.000         203.000
  20965129.364   -23079287.18449 -17974056.02347  20965129.463    20965136.710
       243.000         207.000
 00  2  6  1 24 30.0000000  0  6G 4G24G 6G 5G10G30
  24386669.392    -4433174.20349  -3444981.70245  24386670.200    24386680.880
       209.000         143.000
  21332321.165   -16448710.63849 -11957235.53347  21332320.902    21332329.710
       241.000         204.000
  22656993.746   -16027845.18149 -12476710.00146  22656992.970    22657003.377
       227.000         181.000
  20391516.475   -25702215.69049 -20014449.40948  20391515.747    20391523.615
       246.000         217.000
  21206624.099   -21917065.53949 -17062133.92247  21206623.050    21206631.709
       239.000         203.000
  20956052.015   -23126988.72049 -18011225.96847  20956052.107    20956059.389
       243.000         207.000
 00  2  6  1 25  0.0000000  0  6G 4G24G 6G 5G10G30
  24405072.850    -4336463.30849  -3369622.51545  24405073.259    24405084.713
       211.000         142.000
  21344296.506   -16385779.66949 -11908198.38847  21344296.351    21344305.229
       242.000         204.000
  22644477.844   -16093615.82649 -12527959.73146  22644477.504    22644486.762
       227.000         181.000
  20397601.125   -25670240.51749 -19989533.66648  20397600.605    20397608.256
       247.000         217.000
  21196593.962   -21969773.75149 -17103205.15647  21196593.044    21196601.371
       239.000         203.000
  20947065.833   -23174211.09449 -18048022.54547  20947066.008    20947073.346
       243.000         208.000
 00  2  6  1 25 30.0000000  0  6G 4G24G 6G 5G10G30
  24423467.188    -4239800.60149  -3294300.87145  24423467.415    24423477.476
       211.000         142.000
  21356310.152   -16322647.48849 -11859004.45847  21356310.024    21356318.816
       242.000         204.000
  22631965.042   -16159370.68649 -12579197.15946  22631964.827    22631974.083
       228.000         181.000
  20403788.128   -25637727.44049 -19964198.77048  20403787.572    20403795.410
       246.000         217.000
  21186661.219   -22021970.16749 -17143877.57947  21186660.170    21186668.928
       239.000         203.000
  20938176.838   -23220922.61349 -18084421.05247  20938176.922    20938184.421
       243.000         208.000
 00  2  6  1 26  0.0000000  0  6G 4G24G 6G 5G10G30
  24441852.326    -4143186.09149  -3219016.79445  24441852.667    24441863.203
       211.000         143.000
  21368367.222   -16259287.21349 -11809632.79347  21368366.987    21368375.810
       241.000         204.000
  22619464.881   -16225059.14449 -12630382.84346  22619464.710    22619473.813
       228.000         182.000
  20410084.204   -25604641.33449 -19938417.36448  20410083.753    20410091.492
       247.000         217.000
  21176831.257   -22073626.56949 -17184129.22247  21176830.096    21176838.880
       239.000         203.000
  20929390.767   -23267093.42949 -18120398.23547  20929390.664    20929398.222
       243.000         208.000
 00  2  6  1 26 30.0000000  0  6G 4G24G 6G 5G10G30
  24460230.003    -4046610.42549  -3143762.96345  24460230.755    24460241.172
       212.000         142.000
  21380473.024   -16195670.70649 -11760061.46347  21380472.787    21380481.433
       242.000         204.000
  22606979.918   -16290667.50249 -12681506.10346  22606979.374    22606988.765
       228.000         182.000
  20416491.761   -25570969.35249 -19912179.42848  20416491.157    20416498.989
       247.000         217.000
  21167109.564   -22124713.89449 -17223937.42647  21167108.546    21167117.331
       239.000         204.000
  20920710.762   -23312706.94649 -18155941.15647  20920710.623    20920718.259
       243.000         208.000
 00  2  6  1 27  0.0000000  0  7G17G 4G24G 6G 5G10G30
  25069905.056    -3732317.96049  -2890575.96045  25069903.207    25069918.596
       196.000         137.000
  24478604.648    -3950050.76549  -3068521.60945  24478605.004    24478615.737
       213.000         142.000
  21392632.571   -16131771.63649 -11710269.96347  21392632.219    21392640.877
       241.000         203.000
  22594517.134   -16356159.37549 -12732538.60346  22594517.061    22594526.237
       228.000         182.000
  20423015.382   -25536687.43949 -19885466.22748  20423014.911    20423022.569
       247.000         217.000
  21157502.504   -22175198.77549 -17263276.20147  21157501.397    21157510.248
       239.000         204.000
  20912140.808   -23357741.78049 -18191033.15947  20912140.846    20912148.274
       243.000         208.000
 00  2  6  1 27 30.0000000  0  7G17G 4G24G 6G 5G10G30
  25052558.111    -3823474.83749  -2961606.93545  25052556.346    25052572.458
       195.000         135.000
  24496970.523    -3853537.24349  -2993316.23945  24496969.961    24496981.465
       209.000         141.000
  21404838.965   -16067626.75549 -11660286.91547  21404838.958    21404847.718
       241.000         203.000
  22582073.431   -16421550.95949 -12783492.94346  22582072.886    22582082.439
       228.000         183.000
  20429646.046   -25501842.93949 -19858314.64448  20429645.481    20429653.296
       246.000         217.000
  21148002.214   -22225122.78749 -17302177.93347  21148001.303    21148009.813
       239.000         204.000
  20903671.516   -23402247.88949 -18225713.17047  20903671.679    20903679.124
       243.000         208.000
 00  2  6  1 28  0.0000000  0  7G17G 4G24G 6G 5G10G30
  25035238.016    -3914491.06648  -3032528.27545  25035235.447    25035252.213
       194.000         132.000
  24515329.068    -3757062.43649  -2918141.01445  24515328.861    24515339.972
       211.000         140.000
  21417087.507   -16003260.07649 -11610131.04247  21417087.159    21417095.960
       240.000         203.000
  22569644.293   -16486865.94649 -12834387.59646  22569643.641    22569652.912
       228.000         183.000
  20436377.336   -25466469.64549 -19830751.01648  20436376.661    20436384.584
       246.000         217.000
  21138603.997   -22274510.41349 -17340661.70447  21138602.900    21138611.608
       239.000         204.000
  20895296.991   -23446256.25049 -18260005.32247  20895297.007    20895304.610
       243.000         209.000
 00  2  6  1 28 30.0000000  0  7G17G 4G24G 6G 5G10G30
  25017945.775    -4005360.52748  -3103335.25544  25017944.048    25017960.463
       194.000         131.000
  24533682.209    -3660616.18749  -2842988.03745  24533682.095    24533692.530
       211.000         141.000
  21429375.793   -15938684.63349 -11559812.49747  21429375.592    21429384.276
       241.000         203.000
  22557226.372   -16552121.94249 -12885236.28746  22557225.847    22557235.076
       228.000         183.000
  20443206.573   -25430581.58549 -19802786.27348  20443206.023    20443213.772
       246.000         217.000
  21129306.236   -22323369.99449 -17378734.01447  21129305.316    21129313.588
       239.000         204.000
  20887015.539   -23489775.01649 -18293915.97747  20887015.420    20887022.671
       243.000         209.000
 00  2  6  1 29  0.0000000  0  7G17G 4G24G 6G 5G10G30
  25000680.251    -4096089.75848  -3174032.95645  25000679.450    25000694.066
       194.000         132.000
  24552028.235    -3564206.81849  -2767863.80945  24552028.195    24552039.468
       209.000         140.000
  21441696.517   -15873938.67149 -11509361.07747  21441696.103    21441704.805
       241.000         203.000
  22544817.586   -16617330.07649 -12936047.67646  22544817.258    22544826.379
       229.000         183.000
  20450130.915   -25394193.86749 -19774432.18148  20450130.479    20450138.087
       246.000         217.000
  21120105.871   -22371717.88749 -17416407.60547  21120104.806    21120113.489
       239.000         204.000
  20878824.839   -23532817.11149 -18327455.19347  20878825.000    20878832.288
       244.000         209.000
 00  2  6  1 29 30.0000000  0  7G17G 4G24G 6G 5G10G30
  24983437.943    -4186697.43949  -3244635.93445  24983437.126    24983451.898
       200.000         135.000
  24570366.910    -3467835.95749  -2692769.56645  24570367.519    24570377.980
       210.000         139.000
  21454046.157   -15809040.80949 -11458791.29147  21454045.933    21454054.902
       241.000         202.000
  22532415.916   -16682500.95149 -12986830.03746  22532415.653    22532425.086
       229.000         184.000
  20457150.774   -25357304.22949 -19745686.98848  20457150.270    20457157.895
       246.000         217.000
  21111001.770   -22419559.76849 -17453686.90047  21111000.858    21111009.299
       240.000         204.000
  20870724.599   -23575383.95149 -18360624.08747  20870724.608    20870732.040
       244.000         209.000
 00  2  6  1 30  0.0000000  0  7G17G 4G24G 6G 5G10G30
  24966218.899    -4277182.86749  -3315143.64345  24966217.977    24966231.777
       200.000         137.000
  24588698.860    -3371500.64949  -2617703.04345  24588699.018    24588710.368
       208.000         139.000
  21466422.076   -15744004.69549 -11408113.77447  21466421.935    21466430.557
       240.000         202.000
  22520017.716   -16747653.17549 -13037597.86546  22520017.676    22520026.535
       229.000         184.000
  20464268.705   -25319899.11849 -19716540.12548  20464268.182    20464275.832
       246.000         217.000
  21101996.308   -22466883.33649 -17490562.31547  21101995.363    21102003.998
       239.000         205.000
  20862719.663   -23617449.65649 -18393402.48447  20862719.580    20862727.002
       243.000         209.000
 00  2  6  1 30 30.0000000  0  7G17G 4G24G 6G 5G10G30
  24949024.447    -4367538.80449  -3385550.41945  24949023.171    24949039.460
       204.000         138.000
  24607020.058    -3275221.66049  -2542680.42345  24607018.975    24607030.675
       212.000         139.000
  21478825.597   -15678823.65749 -11357323.33047  21478825.519    21478834.183
       239.000         202.000
  22507623.376   -16812785.31649 -13088350.04046  22507622.997    22507632.006
       229.000         184.000
  20471484.307   -25281980.68949 -19686993.27648  20471483.707    20471491.465
       246.000         217.000
  21093092.810   -22513671.18449 -17527020.28547  21093091.826    21093100.488
       239.000         205.000
  20854812.830   -23659000.00449 -18425779.31047  20854813.033    20854820.114
       243.000         209.000
 00  2  6  1 31  0.0000000  0  7G17G 4G24G 6G 5G10G30
  24931855.273    -4457762.14049  -3455853.88945  24931852.767    24931868.197
       205.000         139.000
  24625331.514    -3178993.88449  -2467697.68545  24625331.288    24625342.707
       208.000         139.000
  21491257.655   -15613492.68849 -11306416.04647  21491257.342    21491265.802
       239.000         201.000
  22495233.064   -16877896.20349 -13139085.66846  22495232.485    22495241.687
       229.000         184.000
  20478799.445   -25243539.17549 -19657038.82348  20478798.733    20478806.596
       246.000         217.000
  21084295.500   -22559900.93549 -17563043.37247  21084294.597    21084302.979
       239.000         205.000
  20847005.759   -23700026.27049 -18457747.75447  20847005.958    20847013.115
       243.000         209.000
 00  2  6  1 31 30.0000000  0  6G17G24G 6G 5G10G30
  24914707.964    -4547870.29949  -3526067.57545  24914706.857    24914720.933
       205.000         139.000
  21503718.667   -15548009.54749 -11255390.19047  21503718.635    21503727.133
       239.000         201.000
  22482843.548   -16943003.18549 -13189818.24646  22482842.722    22482852.492
       229.000         184.000
  20486212.091   -25204585.31149 -19626685.14348  20486211.491    20486219.252
       246.000         217.000
  21075602.594   -22605582.05149 -17598638.95447  21075601.605    21075610.135
       239.000         205.000
  20839296.454   -23740538.78449 -18489315.87747  20839296.615    20839303.848
       244.000         210.000
 00  2  6  1 32  0.0000000  0  6G17G24G 6G 5G10G30
  24897596.162    -4637792.08549  -3596136.04445  24897594.824    24897609.069
       208.000         140.000
  21516222.789   -15482299.80249 -11204187.75947  21516222.679    21516231.144
       239.000         201.000
  22470469.709   -17008027.58049 -13240486.48346  22470469.388    22470478.482
       229.000         184.000
  20493732.316   -25165066.14549 -19595890.96648  20493731.755    20493739.491
       246.000         216.000
  21067027.063   -22650646.40849 -17633753.94647  21067026.191    21067034.645
       240.000         205.000
  20831697.527   -23780471.09949 -18520431.90147  20831697.806    20831704.854
       244.000         210.000
 00  2  6  1 32 30.0000000  0  6G17G24G 6G 5G10G30
  24880515.669    -4727549.08749  -3666076.14245  24880514.059    24880527.350
       209.000         139.000
  21528765.968   -15416384.80449 -11152825.39747  21528765.246    21528774.301
       239.000         200.000
  22458109.143   -17072982.13049 -13291100.28246  22458108.615    22458117.858
       229.000         184.000
  20501354.075   -25125013.43649 -19564681.03848  20501353.498    20501361.165
       246.000         216.000
  21058563.797   -22695120.85349 -17668409.26247  21058562.780    21058571.324
       239.000         205.000
  20824202.099   -23819859.61049 -18551124.17747  20824202.125    20824209.419
       244.000         210.000
 00  2  6  1 33  0.0000000  0  6G17G24G 6G 5G10G30
  24863460.379    -4817173.80849  -3735913.14245  24863459.015    24863473.096
       210.000         140.000
  21541344.483   -15350283.89549 -11101318.16847  21541344.418    21541352.870
       239.000         200.000
  22445761.696   -17137867.89249 -13341660.49146  22445761.213    22445770.153
       229.000         185.000
  20509075.571   -25084436.55849 -19533062.66948  20509075.043    20509082.713
       246.000         216.000
  21050208.315   -22739028.81349 -17702623.16647  21050207.445    21050215.740
       240.000         205.000
  20816805.208   -23858730.22349 -18581412.90347  20816805.196    20816812.362
       243.000         210.000
 00  2  6  1 33 30.0000000  0  6G17G24G 6G 5G10G30
  24846429.443    -4906670.49749  -3805650.37245  24846428.436    24846442.217
       212.000         141.000
  21553958.182   -15283998.34049 -11049667.06347  21553957.945    21553966.388
       238.000         200.000
  22433429.612   -17202672.64549 -13392157.58346  22433429.370    22433438.408
       229.000         185.000
  20516896.285   -25043338.33349 -19501038.05948  20516895.789    20516903.471
       246.000         216.000
  21041956.960   -22782389.55949 -17736410.67347  21041955.807    21041964.482
       240.000         205.000
  20809506.097   -23897086.67749 -18611300.98747  20809506.239    20809513.345
       244.000         210.000
 00  2  6  1 34  0.0000000  0  6G17G24G 6G 5G10G30
  24829424.742    -4996029.31649  -3875280.18645  24829422.259    24829436.679
       213.000         141.000
  21566604.593   -15217540.75249 -10997881.89647  21566604.331    21566612.982
       238.000         199.000
  22421112.763   -17267397.48049 -13442592.40046  22421112.067    22421121.249
       230.000         185.000
  20524813.472   -25001733.12349 -19468618.39348  20524812.918    20524820.648
       246.000         216.000
  21033808.172   -22825211.35749 -17769778.21947  21033807.298    21033815.681
       239.000         205.000
  20802304.924   -23934928.80349 -18640788.29247  20802304.894    20802312.165
       244.000         210.000
 00  2  6  1 34 30.0000000  0  6G17G24G 6G 5G10G30
  24812445.967    -5085251.70849  -3944803.69845  24812443.183    24812457.782
       211.000         141.000
  21579281.732   -15150921.77949 -10945970.98847  21579281.504    21579290.292
       238.000         199.000
  22408809.363   -17332051.86849 -13492972.33146  22408809.244    22408817.485
       229.000         186.000
  20532825.020   -24959631.93749 -19435812.25848  20532824.481    20532832.079
       246.000         216.000
  21025760.711   -22867500.74549 -17802730.90347  21025759.729    21025768.067
       240.000         206.000
  20795201.582   -23972256.93549 -18669875.08747  20795201.851    20795208.925
       244.000         210.000
 00  2  6  1 35  0.0000000  0  6G17G24G 6G 5G10G30
  24795493.400    -5174336.38349  -4014219.91245  24795491.928    24795505.484
       212.000         140.000
  21591988.677   -15084146.14749 -10893937.99747  21591988.328    21591996.765
       238.000         199.000
  22396519.509   -17396635.02749 -13543296.76346  22396519.282    22396528.486
       230.000         186.000
  20540930.389   -24917037.87849 -19402622.06248  20540929.970    20540937.590
       246.000         216.000
  21017813.228   -22909264.38349 -17835273.91047  21017812.111    21017820.254
       240.000         206.000
  20788197.199   -24009065.03649 -18698556.65847  20788197.320    20788204.410
       244.000         210.000
 00  2  6  1 35 30.0000000  0  6G17G24G 6G 5G10G30
  24778572.298    -5263255.61349  -4083507.21245  24778570.323    24778583.226
       212.000         140.000
  21604724.690   -15017217.71549 -10841785.94347  21604724.351    21604733.062
       237.000         198.000
  22384240.993   -17461158.72849 -13593574.86046  22384240.713    22384249.837
       231.000         187.000
  20549130.114   -24873948.07449 -19369045.57148  20549129.654    20549137.351
       246.000         216.000
  21009966.799   -22950497.41649 -17867403.46247  21009965.883    21009974.259
       240.000         206.000
  20781295.313   -24045334.51449 -18726818.52147  20781295.379    20781302.389
       244.000         211.000
 00  2  6  1 36  0.0000000  0  6G17G24G 6G 5G10G30
  24761681.922    -5352013.69649  -4152668.94745  24761680.136    24761693.401
       211.000         139.000
  21617488.431   -14950143.77849 -10789520.52347  21617488.014    21617496.905
       237.000         198.000
  22371971.776   -17525633.47149 -13643814.80746  22371971.287    22371980.608
       230.000         187.000
  20557423.057   -24830368.28749 -19335087.27948  20557422.393    20557430.125
       246.000         216.000
  21002225.232   -22991179.33849 -17899103.57847  21002224.343    21002232.672
       240.000         206.000
  20774496.708   -24081061.21749 -18754657.44847  20774496.835    20774504.078
       244.000         211.000
 00  2  6  1 36 30.0000000  0  6G17G24G 6G 5G10G30
  24744819.431    -5440624.94049  -4221716.27145  24744818.189    24744830.562
       211.000         139.000
  21630280.690   -14882919.77449 -10737138.14847  21630280.518    21630289.354
       237.000         198.000
  22359709.309   -17590072.59749 -13694027.00146  22359708.846    22359718.035
       230.000         187.000
  20565809.395   -24786297.58349 -19300746.44948  20565808.757    20565816.465
       246.000         216.000
  20994588.979   -23031307.76549 -17930372.39547  20994587.849    20994596.261
       240.000         206.000
  20767800.055   -24116252.26249 -18782078.97547  20767800.131    20767807.263
       244.000         211.000
 00  2  6  1 37  0.0000000  0  6G17G24G 6G 5G10G30
  24727986.095    -5529082.87749  -4290644.15745  24727984.093    24727997.992
       212.000         140.000
  21643104.978   -14815527.66049 -10684624.79947  21643104.710    21643113.475
       237.000         198.000
  22347452.573   -17654481.78149 -13744215.87347  22347452.011    22347460.965
       232.000         188.000
  20574293.781   -24741711.85249 -19266004.30748  20574293.273    20574300.760
       246.000         216.000
  20987062.639   -23070858.55749 -17961191.11747  20987061.859    20987070.059
       240.000         206.000
  20761207.321   -24150896.99349 -18809074.80947  20761207.665    20761214.430
       244.000         211.000
 00  2  6  1 37 30.0000000  0  6G17G24G 6G 5G10G30
  24711181.742    -5617388.50749  -4359453.38345  24711179.406    24711192.959
       211.000         140.000
  21655962.395   -14747961.54349 -10631975.86047  21655962.239    21655970.645
       237.000         198.000
  22335200.920   -17718864.23749 -13794383.92247  22335200.782    22335209.158
       231.000         188.000
  20582877.166   -24696605.87249 -19230856.77648  20582876.721    20582884.350
       246.000         215.000
  20979650.391   -23109809.78649 -17991542.65047  20979649.521    20979657.552
       241.000         206.000
  20754718.707   -24184994.61749 -18835644.32247  20754718.837    20754725.880
       244.000         211.000
 00  2  6  1 38  0.0000000  0  6G17G24G 6G 5G10G30
  24694403.958    -5705554.72949  -4428153.98545  24694403.470    24694416.197
       208.000         140.000
  21668853.155   -14680220.00549 -10579190.22447  21668852.865    21668861.520
       237.000         197.000
  22322954.274   -17783220.31349 -13844531.40947  22322953.901    22322962.645
       231.000         188.000
  20591558.014   -24650987.59749 -19195310.05248  20591557.302    20591565.073
       246.000         215.000
  20972352.276   -23148161.21749 -18021426.80347  20972351.283    20972359.746
       240.000         206.000
  20748332.822   -24218552.30849 -18861793.10847  20748332.838    20748339.722
       244.000         211.000
 00  2  6  1 38 30.0000000  0  6G17G24G 6G 5G10G30
  24677654.476    -5793572.23049  -4496738.69745  24677652.207    24677665.522
       210.000         142.000
  21681776.096   -14612309.32149 -10526272.79647  21681775.599    21681784.342
       236.000         197.000
  22310716.177   -17847531.57349 -13894643.97747  22310715.893    22310724.539
       231.000         188.000
  20600337.303   -24604851.96649 -19159360.19548  20600336.724    20600344.329
       246.000         215.000
  20965166.543   -23185922.14649 -18050850.82947  20965165.558    20965173.760
       240.000         207.000
  20742051.672   -24251559.49549 -18887512.93647  20742051.766    20742058.657
       244.000         211.000
 00  2  6  1 39  0.0000000  0  6G17G24G 6G 5G10G30
  24660934.647    -5881433.92049  -4565202.02145  24660932.362    24660946.335
       209.000         142.000
  21694728.910   -14544241.70449 -10473233.07247  21694728.732    21694737.393
       237.000         197.000
  22298491.252   -17911773.59349 -13944702.59047  22298490.866    22298499.880
       231.000         188.000
  20609216.078   -24558193.54649 -19123002.96548  20609215.497    20609223.158
       245.000         215.000
  20958093.685   -23223090.02149 -18079812.73147  20958092.644    20958100.959
       240.000         207.000
  20735877.936   -24284002.36149 -18912793.02847  20735877.900    20735885.084
       244.000         211.000
 00  2  6  1 39 30.0000000  0  6G17G24G 6G 5G10G30
  24644245.389    -5969135.11849  -4633540.29245  24644242.616    24644256.410
       210.000         144.000
  21707709.312   -14476029.05649 -10420080.34947  21707709.296    21707717.740
       236.000         197.000
  22286283.665   -17975924.26649 -13994690.02547  22286283.257    22286292.026
       231.000         188.000
  20618193.189   -24511018.54449 -19086243.21148  20618192.632    20618200.233
       246.000         215.000
  20951131.115   -23259678.22649 -18108322.95047  20951130.204    20951138.294
       241.000         207.000
  20729811.415   -24315881.93749 -18937634.20147  20729811.660    20729818.520
       244.000         212.000
 00  2  6  1 40  0.0000000  0  6G17G24G 6G 5G10G30
  24627590.199    -6056657.28849  -4701739.05945  24627588.275    24627602.142
       208.000         144.000
  21720719.525   -14407660.00149 -10366805.74947  21720719.299    21720727.942
       236.000         197.000
  22274099.323   -18039953.07349 -14044582.49647  22274099.092    22274107.949
       231.000         189.000
  20627271.604   -24463310.99749 -19049068.48148  20627271.127    20627278.705
       245.000         215.000
  20944279.248   -23295684.57949 -18136379.77447  20944278.358    20944286.450
       240.000         207.000
  20723857.411   -24347170.24249 -18962014.64447  20723857.572    20723864.590
       245.000         212.000
 00  2  6  1 40 30.0000000  0  6G17G24G 6G 5G10G30
  24610968.943    -6144000.99549  -4769798.77545  24610967.871    24610980.587
       209.000         145.000
  21733757.896   -14339142.77049 -10313415.68047  21733757.483    21733766.178
       236.000         197.000
  22261937.773   -18103862.11049 -14094381.64547  22261937.771    22261945.984
       231.000         189.000
  20636451.144   -24415072.15949 -19011479.76048  20636450.652    20636458.199
       245.000         215.000
  20937539.457   -23331102.07149 -18163977.74347  20937538.574    20937546.644
       240.000         207.000
  20718015.588   -24377869.06649 -18985935.74947  20718015.726    20718022.658
       245.000         212.000
 00  2  6  1 41  0.0000000  0  6G17G24G 6G 5G10G30
  24594381.173    -6231169.21049  -4837721.73845  24594379.335    24594392.777
       209.000         146.000
  21746827.693   -14270460.41449 -10259896.93847  21746827.595    21746836.042
       237.000         196.000
  22249795.790   -18167667.94249 -14144100.37247  22249795.427    22249803.747
       231.000         189.000
  20645731.938   -24366301.20449 -18973476.40248  20645731.418    20645739.188
       245.000         215.000
  20930914.178   -23365917.99949 -18191106.96147  20930913.100    20930921.337
       240.000         207.000
  20712284.681   -24407984.88049 -19009402.56347  20712284.804    20712291.690
       245.000         212.000
 00  2  6  1 41 30.0000000  0  6G17G24G 6G 5G10G30
  24577825.555    -6318168.23149  -4905512.88445  24577824.196    24577836.617
       208.000         146.000
  21759929.757   -14201608.44649 -10206246.03647  21759929.814    21759938.375
       236.000         196.000
  22237670.650   -18231385.61849 -14193750.40247  22237670.201    22237678.556
       232.000         189.000
  20655111.260   -24317012.54749 -18935069.63948  20655110.664    20655118.217
       245.000         215.000
  20924403.420   -23400131.92549 -18217767.08947  20924402.508    20924410.683
       241.000         207.000
  20706664.558   -24437518.63049 -19032415.81947  20706664.654    20706671.690
       244.000         212.000
 00  2  6  1 42  0.0000000  0  6G17G24G 6G 5G10G30
  24561301.173    -6405003.16849  -4973176.15945  24561299.666    24561311.987
       208.000         147.000
  21773064.998   -14132582.29049 -10152459.40147  21773065.041    21773073.293
       236.000         196.000
  22225561.120   -18295021.20649 -14243336.47647  22225560.505    22225569.179
       233.000         190.000
  20664586.266   -24267220.96049 -18896270.98648  20664585.665    20664593.314
       245.000         215.000
  20918008.944   -23433734.87449 -18243951.13547  20918007.934    20918015.892
       241.000         207.000
  20701155.383   -24466469.31849 -19054974.74547  20701155.578    20701162.374
       245.000         212.000
 00  2  6  1 42 30.0000000  0  6G17G24G 6G 5G10G30
  24544806.346    -6491682.88449  -5040718.46845  24544804.695    24544817.342
       207.000         147.000
  21786231.170   -14063393.75149 -10098546.23947  21786231.386    21786239.477
       237.000         196.000
  22213463.375   -18358594.91149 -14292874.32447  22213463.249    22213471.269
       232.000         190.000
  20674152.295   -24216951.07449 -18857099.63348  20674151.653    20674159.315
       246.000         214.000
  20911729.584   -23466732.80849 -18269663.73847  20911728.691    20911736.827
       241.000         208.000
  20695751.821   -24494865.00349 -19077101.20047  20695751.879    20695758.832
       245.000         212.000
 00  2  6  1 43  0.0000000  0  6G17G24G 6G 5G10G30
  24528340.868    -6578208.22949  -5108140.50345  24528339.164    24528352.416
       209.000         147.000
  21799427.905   -13994044.43049 -10044507.78747  21799427.920    21799436.170
       236.000         196.000
  22201378.106   -18422102.97349 -14342361.02147  22201377.896    22201386.007
       232.000         190.000
  20683806.643   -24166216.96749 -18817566.55048  20683806.079    20683813.742
       245.000         214.000
  20905559.364   -23499157.19749 -18294929.42347  20905558.393    20905566.506
       240.000         208.000
  20690451.613   -24522717.31649 -19098804.24647  20690451.788    20690458.742
       245.000         212.000
 00  2  6  1 43 30.0000000  0  6G17G24G 6G 5G10G30
  24511904.356    -6664581.28449  -5175443.86745  24511902.623    24511914.744
       208.000         147.000
  21812650.052   -13924561.65749  -9990365.35747  21812649.937    21812658.127
       236.000         196.000
  22189304.273   -18485550.87749 -14391800.84247  22189303.935    22189312.198
       232.000         190.000
  20693546.105   -24115035.66649 -18777685.00448  20693545.646    20693553.150
       245.000         214.000
  20899493.907   -23531031.01549 -18319766.09847  20899492.962    20899500.941
       241.000         208.000
  20685250.888   -24550047.23249 -19120100.23247  20685251.169    20685257.899
       245.000         212.000
 00  2  6  1 44  0.0000000  0  6G17G24G 6G 5G10G30
  24495495.347    -6750809.68049  -5242634.50445  24495494.562    24495506.209
       208.000         148.000
  21825891.627   -13854976.54849  -9936143.17447  21825891.230    21825899.614
       236.000         195.000
  22177238.750   -18548955.25449 -14441206.74347  22177238.217    22177246.898
       233.000         191.000
  20703371.588   -24063402.17549 -18737451.10148  20703371.014    20703378.582
       245.000         214.000
  20893530.496   -23562368.63349 -18344184.95047  20893529.670    20893537.473
       241.000         208.000
  20680144.465   -24576881.44949 -19141009.95447  20680144.624    20680151.539
       245.000         212.000
 00  2  6  1 44 30.0000000  0  6G17G24G 6G 5G10G30
  24479113.912    -6836893.39849  -5309712.41945  24479112.433    24479124.974
       208.000         148.000
  21839150.623   -13785299.98849  -9881849.74347  21839150.421    21839158.773
       236.000         195.000
  22165180.657   -18612320.61549 -14490582.24547  22165180.085    22165188.890
       233.000         191.000
  20713286.754   -24011297.56549 -18696850.09648  20713286.230    20713293.949
       244.000         214.000
  20887668.332   -23593174.19549 -18368189.21747  20887667.349    20887675.487
       241.000         208.000
  20675134.322   -24603209.74549 -19161525.45447  20675134.672    20675141.457
       244.000         212.000
 00  2  6  1 45  0.0000000  0  6G17G24G 6G 5G10G30
  24462761.485    -6922824.68649  -5376671.55645  24462760.164    24462772.352
       209.000         148.000
  21852427.537   -13715529.37049  -9827483.02047  21852427.269    21852435.592
       236.000         195.000
  22153130.146   -18675645.94849 -14539926.55047  22153129.687    22153137.990
       233.000         191.000
  20723297.085   -23958692.82049 -18655859.37448  20723296.540    20723304.109
       245.000         214.000
  20881909.483   -23623436.87149 -18391770.45147  20881908.576    20881916.537
       241.000         208.000
  20670224.464   -24629011.02749 -19181630.29247  20670224.341    20670231.308
       245.000         212.000
 00  2  6  1 45 30.0000000  0  6G17G24G 6G 5G10G30
  24446439.463    -7008596.25649  -5443506.24645  24446437.603    24446450.322
       209.000         148.000
  21865723.248   -13645659.77249  -9773039.16147  21865723.125    21865731.471
       235.000         195.000
  22141089.532   -18738919.34849 -14589230.39547  22141089.483    22141097.742
       233.000         191.000
  20733407.602   -23905561.60349 -18614458.41248  20733406.981    20733414.741
       245.000         214.000
  20876262.434   -23653112.01149 -18414893.86847  20876261.535    20876269.582
       241.000         208.000
  20665422.531   -24654244.97449 -19201293.05347  20665422.566    20665429.469
       245.000         212.000
 00  2  6  1 46  0.0000000  0  6G17G24G 6G 5G10G30
  24430150.848    -7094192.42649  -5510204.26745  24430149.340    24430161.264
       210.000         149.000
  21879043.484   -13575661.39849  -9718494.96247  21879043.353    21879051.574
       235.000         195.000
  22129064.208   -18802112.50649 -14638471.71947  22129063.458    22129072.231
       233.000         192.000
  20743624.049   -23851873.74649 -18572623.71248  20743623.728    20743631.264
       245.000         213.000
  20870733.972   -23682164.03349 -18437531.74247  20870733.212    20870740.957
       241.000         208.000
  20660736.929   -24678867.79349 -19220479.61247  20660737.019    20660743.840
       245.000         212.000
 00  2  6  1 46 30.0000000  0  6G17G24G 6G 5G10G30
  24413899.601    -7179592.11149  -5576749.18845  24413898.850    24413910.269
       210.000         150.000
  21892395.068   -13505498.24149  -9663822.34647  21892394.611    21892403.355
       235.000         194.000
  22117059.240   -18865198.62349 -14687629.62347  22117058.779    22117067.217
       233.000         192.000
  20753945.137   -23797636.07249 -18530360.56948  20753944.563    20753952.276
       244.000         213.000
  20865327.914   -23710572.73149 -18459668.31447  20865326.875    20865334.887
       241.000         209.000
  20656171.750   -24702857.56349 -19239172.87747  20656171.750    20656178.574
       245.000         212.000
 00  2  6  1 47  0.0000000  0  6G17G24G 6G 5G10G30
  24397685.153    -7264798.27549  -5643143.33545  24397684.365    24397695.484
       211.000         150.000
  21905777.280   -13435174.23449  -9609024.41147  21905777.226    21905785.617
       235.000         194.000
  22105073.987   -18928180.99349 -14736706.69447  22105073.856    22105082.066
       233.000         192.000
  20764364.750   -23742880.57449 -18487693.94048  20764364.180    20764371.816
       244.000         213.000
  20860044.938   -23738334.69649 -18481300.95147  20860043.782    20860051.776
       241.000         209.000
  20651722.794   -24726236.70849 -19257390.34548  20651722.860    20651729.778
       245.000         213.000
 00  2  6  1 47 30.0000000  0  6G17G24G 6G 5G10G30
  24381505.440    -7349822.22049  -5709395.49945  24381504.176    24381516.410
       211.000         151.000
  21919189.082   -13364694.62549  -9554105.21747  21919188.591    21919197.410
       235.000         194.000
  22093109.621   -18991053.91349 -14785698.48547  22093109.529    22093118.004
       233.000         192.000
  20774875.185   -23687647.83949 -18444655.43748  20774874.753    20774882.292
       245.000         213.000
  20854882.972   -23765460.67249 -18502438.01047  20854882.136    20854890.046
       241.000         209.000
  20647387.509   -24749018.75549 -19275142.54048  20647387.681    20647394.481
       245.000         213.000
 00  2  6  1 48  0.0000000  0  6G17G24G 6G 5G10G30
  24365358.049    -7434676.12549  -5775515.18045  24365356.755    24365368.004
       213.000         152.000
  21932627.872   -13294072.99749  -9499075.35947  21932627.478    21932636.612
       235.000         194.000
  22081161.879   -19053839.14849 -14834621.94447  22081161.660    22081169.584
       233.000         192.000
  20785470.147   -23631970.87849 -18401270.77948  20785469.719    20785477.326
       244.000         213.000
  20849837.932   -23791972.34149 -18523096.38347  20849837.018    20849844.755
       241.000         209.000
  20643158.262   -24771243.36349 -19292460.36648  20643158.479    20643165.253
       245.000         213.000
 00  2  6  1 48 30.0000000  0  6G17G24G 6G 5G10G30
  24349239.079    -7519380.83549  -5841518.62745  24349238.293    24349249.443
       212.000         152.000
  21946087.131   -13223343.99949  -9443961.83947  21946086.930    21946095.343
       235.000         193.000
  22069225.988   -19116562.37949 -14883497.09747  22069225.783    22069233.780
       234.000         193.000
  20796141.984   -23575889.86249 -18357571.27648  20796141.491    20796148.861
       244.000         213.000
  20844906.171   -23817888.71349 -18543290.89347  20844905.252    20844913.276
       241.000         209.000
  20639030.321   -24792935.61949 -19309363.37848  20639030.546    20639037.240
       245.000         213.000
 00  2  6  1 49  0.0000000  0  6G17G24G 6G 5G10G30
  24333145.934    -7603949.90349  -5907416.39445  24333145.374    24333156.907
       213.000         153.000
  21959562.363   -13152531.07349  -9388782.91647  21959562.271    21959570.537
       235.000         193.000
  22057300.501   -19179231.00249 -14932329.69447  22057300.099    22057308.355
       234.000         193.000
  20806891.698   -23519399.71349 -18313552.96848  20806891.059    20806898.644
       244.000         213.000
  20840086.256   -23843217.15549 -18563027.27247  20840085.279    20840093.058
       242.000         209.000
  20635003.625   -24814095.88049 -19325851.84548  20635003.764    20635010.439
       245.000         213.000
 00  2  6  1 49 30.0000000  0  6G17G24G 6G 5G10G30
  24317080.205    -7688374.79149  -5973201.82345  24317079.136    24317090.346
       212.000         153.000
  21973055.197   -13081625.78449  -9333532.02947  21973055.090    21973063.385
       235.000         193.000
  22045387.960   -19241831.39949 -14981109.14147  22045387.816    22045395.693
       234.000         193.000
  20817725.594   -23462467.19449 -18269189.95647  20817725.229    20817732.645
       244.000         212.000
  20835378.616   -23867955.78149 -18582304.05747  20835377.788    20835385.609
       241.000         209.000
  20631081.852   -24834704.66449 -19341910.59348  20631082.059    20631088.507
       245.000         213.000
 00  2  6  1 50  0.0000000  0  6G17G24G 6G 5G10G30
  24301044.242    -7772643.15749  -6038865.29145  24301042.938    24301053.928
       213.000         153.000
  21986564.427   -13010634.22249  -9278213.91247  21986564.218    21986572.670
       235.000         192.000
  22033490.124   -19304354.67749 -15029828.49047  22033489.922    22033497.784
       234.000         193.000
  20828649.612   -23405060.89749 -18224457.76447  20828649.246    20828656.521
       244.000         212.000
  20830783.981   -23892100.37649 -18601117.96247  20830783.049    20830790.944
       241.000         209.000
  20627268.128   -24854745.68649 -19357526.92748  20627268.339    20627274.997
       245.000         213.000
 00  2  6  1 50 30.0000000  0  6G17G24G 6G 5G10G30
  24285043.137    -7856728.61349  -6104386.23745  24285041.695    24285053.637
       211.000         153.000
  22000093.385   -12939539.08549  -9222815.09047  22000093.192    22000101.567
       234.000         192.000
  22021611.925   -19366774.52549 -15078467.25247  22021611.366    22021619.739
       234.000         194.000
  20839670.481   -23347145.75549 -18179329.07547  20839670.067    20839677.576
       244.000         212.000
  20826304.461   -23915640.12449 -18619460.56247  20826303.610    20826311.316
       241.000         209.000
  20623566.993   -24874194.92749 -19372682.13748  20623567.162    20623573.750
       245.000         213.000
 00  2  6  1 51  0.0000000  0  6G17G24G 6G 5G10G30
  24269077.408    -7940628.25449  -6169762.40245  24269076.878    24269088.002
       213.000         153.000
  22013645.274   -12868323.19149  -9167322.17447  22013645.161    22013653.718
       234.000         192.000
  22009755.310   -19429081.15649 -15127017.79347  22009755.024    22009763.163
       234.000         194.000
  20850792.187   -23288700.95949 -18133787.67047  20850791.767    20850799.284
       244.000         212.000
  20821938.479   -23938583.61449 -18637338.54547  20821937.433    20821945.435
       241.000         209.000
  20619978.077   -24893054.65349 -19387377.98448  20619978.316    20619984.892
       245.000         213.000
 00  2  6  1 51 30.0000000  0  6G17G24G 6G 5G10G30
  24253146.662    -8024344.22949  -6234995.45345  24253145.607    24253156.848
       216.000         154.000
  22027220.086   -12796987.00749  -9111735.51947  22027219.703    22027228.378
       234.000         192.000
  21997918.027   -19491286.03849 -15175489.04447  21997917.509    21997925.814
       234.000         194.000
  20862011.832   -23229741.28149 -18087845.05447  20862011.380    20862018.831
       244.000         212.000
  20817685.116   -23960934.72049 -18654754.92847  20817684.187    20817692.063
       242.000         209.000
  20616501.826   -24911322.26349 -19401612.44148  20616501.953    20616508.572
       245.000         213.000
 00  2  6  1 52  0.0000000  0  6G17G24G 6G 5G10G30
  24237253.106    -8107864.99349  -6300076.38645  24237252.409    24237262.764
       216.000         155.000
  22040817.661   -12725531.31449  -9056055.73647  22040817.300    22040826.187
       234.000         191.000
  21986099.135   -19553394.43249 -15223885.11147  21986099.120    21986107.031
       235.000         194.000
  20873326.928   -23170279.97849 -18041511.56647  20873326.327    20873333.904
       244.000         212.000
  20813548.391   -23982673.01449 -18671693.80047  20813547.531    20813555.415
       242.000         210.000
  20613139.608   -24928990.65449 -19415379.97748  20613139.780    20613146.473
       245.000         213.000
 00  2  6  1 52 30.0000000  0  6G17G24G 6G 5G10G30
  24221395.318    -8191197.65249  -6365010.74345  24221394.438    24221405.859
       217.000         156.000
  22054438.099   -12653955.44749  -9000282.32147  22054437.800    22054446.327
       234.000         191.000
  21974295.539   -19615422.37849 -15272218.49547  21974295.152    21974303.791
       234.000         194.000
  20884731.619   -23110347.91749 -17994811.25047  20884731.122    20884738.635
       244.000         211.000
  20809526.804   -24003806.26549 -18688161.20947  20809525.875    20809533.715
       242.000         210.000
  20609886.832   -24946084.00449 -19428699.42848  20609887.122    20609893.628
       245.000         213.000
 00  2  6  1 53  0.0000000  0  6G17G24G 6G 5G10G30
  24205570.157    -8274358.99349  -6429811.61845  24205569.233    24205579.675
       217.000         155.000
  22068078.846   -12582272.70049  -8944425.61847  22068078.867    22068087.067
       234.000         191.000
  21962504.254   -19677385.69849 -15320501.51847  21962503.835    21962512.020
       234.000         194.000
  20896219.983   -23049976.19649 -17947768.34647  20896219.588    20896226.847
       244.000         211.000
  20805618.505   -24024344.33449 -18704164.84247  20805617.451    20805625.297
       242.000         210.000
  20606742.728   -24962606.23749 -19441573.85048  20606742.929    20606749.466
       245.000         213.000
 00  2  6  1 53 30.0000000  0  6G17G24G 6G 5G10G30
  24189780.147    -8357335.43549  -6494468.40645  24189778.475    24189790.568
       217.000         155.000
  22081737.133   -12510497.95449  -8888497.22847  22081736.722    22081745.380
       234.000         190.000
  21950724.943   -19739286.08249 -15368735.49947  21950724.630    21950732.780
       235.000         195.000
  20907789.785   -22989176.34549 -17900391.83247  20907789.299    20907796.635
       244.000         211.000
  20801825.700   -24044275.47949 -18719695.54647  20801824.836    20801832.459
       242.000         210.000
  20603708.551   -24978550.68749 -19453998.05048  20603708.819    20603715.270
       245.000         213.000
 00  2  6  1 54  0.0000000  0  6G17G24G 6G 5G10G30
  24174024.486    -8440131.18649  -6558984.41445  24174023.842    24174033.851
       217.000         154.000
  22095411.250   -12438639.85249  -8832503.89047  22095411.095    22095419.412
       233.000         190.000
  21938959.032   -19801115.97449 -15416914.55847  21938958.945    21938967.159
       235.000         195.000
  20919440.424   -22927951.77749 -17852684.37547  20919439.863    20919447.565
       243.000         211.000
  20798147.185   -24063605.98249 -18734758.22347  20798146.353    20798154.094
       241.000         210.000
  20600780.852   -24993935.82849 -19465986.42948  20600781.076    20600787.858
       245.000         213.000
 00  2  6  1 54 30.0000000  0  6G17G24G 6G 5G10G30
  24158299.304    -8522766.71849  -6623375.55645  24158298.798    24158309.866
       215.000         153.000
  22109101.546   -12366696.74049  -8776444.30547  22109101.627    22109109.860
       233.000         190.000
  21927205.983   -19862878.43249 -15465041.05747  21927205.521    21927213.756
       235.000         195.000
  20931171.932   -22866302.33249 -17804645.83847  20931171.312    20931178.989
       243.000         211.000
  20794578.937   -24082357.09449 -18749369.41947  20794577.893    20794585.664
       242.000         210.000
  20597958.067   -25008769.52249 -19477545.10648  20597958.140    20597964.880
       245.000         213.000
 00  2  6  1 55  0.0000000  0  6G17G24G 6G 5G10G30
  24142602.376    -8605253.95749  -6687651.14645  24142601.934    24142612.483
       216.000         153.000
  22122807.554   -12294671.03949  -8720320.37047  22122807.239    22122815.732
       233.000         189.000
  21915467.853   -19924562.47049 -15513106.45147  21915467.657    21915475.221
       235.000         196.000
  20942986.557   -22804216.00449 -17756266.87447  20942985.893    20942993.541
       243.000         210.000
  20791123.855   -24100513.26049 -18763517.02847  20791123.085    20791130.602
       242.000         210.000
  20595243.340   -25023035.22849 -19488661.19948  20595243.400    20595249.970
       245.000         213.000
 00  2  6  1 55 30.0000000  0  6G17G24G 6G 5G10G30
  24126936.787    -8687576.19649  -6751798.17145  24126936.040    24126946.357
       216.000         153.000
  22136530.967   -12222553.96049  -8664125.23247  22136530.929    22136539.404
       232.000         189.000
  21903747.373   -19986153.53649 -15561099.39147  21903746.972    21903755.132
       235.000         196.000
  20954887.678   -22741675.12849 -17707533.72047  20954887.203    20954894.696
       244.000         210.000
  20787785.260   -24118057.50749 -18777187.81347  20787784.206    20787792.170
       241.000         210.000
  20592639.543   -25036718.28849 -19499323.28248  20592639.702    20592646.333
       245.000         213.000
 00  2  6  1 56  0.0000000  0  6G17G24G 6G 5G10G30
  24111301.188    -8769741.39149  -6815822.82745  24111300.484    24111310.305
       216.000         154.000
  22150275.331   -12150326.82149  -8607844.32847  22150275.393    22150283.635
       233.000         189.000
  21892046.292   -20047642.91149 -15609013.09047  21892045.892    21892054.102
       236.000         196.000
  20966876.685   -22678672.47949 -17658440.74347  20966875.964    20966883.436
       244.000         210.000
  20784563.228   -24134989.08749 -18790381.19947  20784562.307    20784569.860
       242.000         210.000
  20590147.256   -25049815.09349 -19509528.54548  20590147.527    20590153.927
       245.000         213.000
 00  2  6  1 56 30.0000000  0  6G17G24G 6G 5G10G30
  24095695.814    -8851747.24249  -6879723.31245  24095694.548    24095705.479
       216.000         153.000
  22164042.679   -12077978.72549  -8551469.17547  22164042.583    22164051.103
       232.000         189.000
  21880364.767   -20109029.36249 -15656846.59347  21880364.359    21880372.409
       236.000         196.000
  20978955.614   -22615197.09249 -17608979.39847  20978955.172    20978962.591
       244.000         210.000
  20781458.466   -24151304.45949 -18803094.41947  20781457.596    20781465.111
       242.000         210.000
  20587770.582   -25062304.43549 -19519260.45948  20587770.863    20587777.218
       245.000         213.000
 00  2  6  1 57  0.0000000  0  6G17G24G 6G 5G10G30
  24080124.570    -8933573.79849  -6943484.08445  24080124.017    24080134.099
       215.000         153.000
  22177832.647   -12005511.79049  -8495001.42747  22177832.646    22177841.057
       232.000         188.000
  21868705.805   -20170297.17049 -15704587.64247  21868705.460    21868713.148
       236.000         197.000
  20991125.580   -22551243.29049 -17559145.26847  20991124.917    20991132.378
       244.000         210.000
  20778472.842   -24166993.84649 -18815319.86447  20778472.173    20778479.666
       242.000         210.000
  20585512.211   -25074172.04149 -19528507.90948  20585512.406    20585518.987
       245.000         213.000
 00  2  6  1 57 30.0000000  0  6G17G24G 6G 5G10G30
  24064591.074    -9015202.12249  -7007090.38945  24064590.361    24064601.104
       214.000         153.000
  22191644.850   -11932928.02649  -8438442.63947  22191644.864    22191653.102
       232.000         188.000
  21857068.394   -20231451.86449 -15752240.55047  21857067.967    21857075.831
       236.000         197.000
  21003387.541   -22486806.18949 -17508934.53647  21003387.088    21003394.534
       243.000         209.000
  20775606.467   -24182056.53449 -18827056.96647  20775605.408    20775613.261
       242.000         210.000
  20583371.388   -25085421.97149 -19537274.05048  20583371.498    20583378.104
       245.000         213.000
 00  2  6  1 58  0.0000000  0  6G17G24G 6G 5G10G30
  24049091.831    -9096650.13949  -7070556.20545  24049089.652    24049101.306
       214.000         151.000
  22205476.912   -11860240.10849  -8381802.69447  22205477.498    22205485.652
       231.000         188.000
  21845451.861   -20292496.66749 -15799807.83347  21845451.698    21845459.517
       236.000         197.000
  21015739.437   -22421896.40449 -17458355.48647  21015739.077    21015746.491
       243.000         209.000
  20772860.572   -24196486.02449 -18838300.67447  20772859.758    20772867.285
       242.000         210.000
  20581343.810   -25096076.69049 -19545576.40048  20581343.882    20581350.576
       245.000         213.000
 00  2  6  1 58 30.0000000  0  6G17G24G 6G 5G10G30
  24033628.148    -9177911.35049  -7133876.46145  24033626.627    24033636.623
       214.000         151.000
  22219324.606   -11787469.85549  -8325098.58046  22219324.432    22219332.808
       231.000         187.000
  21833855.432   -20353435.83149 -15847292.79247  21833855.007    21833862.950
       236.000         197.000
  21028179.068   -22356525.75849 -17407417.31547  21028178.695    21028186.080
       243.000         209.000
  20770235.697   -24210279.75549 -18849048.97747  20770234.656    20770242.468
       242.000         210.000
  20579428.118   -25106143.30649 -19553420.47548  20579428.298    20579434.799
       245.000         213.000
 00  2  6  1 59  0.0000000  0  6G17G24G 6G 5G10G30
  24018202.567    -9258972.53149  -7197040.84245  24018201.255    24018212.090
       214.000         151.000
  22233184.526   -11714635.59049  -8268344.59546  22233184.587    22233193.054
       231.000         187.000
  21822279.636   -20414266.61849 -15894693.30547  21822279.360    21822286.991
       236.000         197.000
  21040704.773   -22290702.70749 -17356126.62547  21040704.443    21040712.051
       243.000         209.000
  20767734.436   -24223423.79049 -18859291.02447  20767733.487    20767741.222
       242.000         210.000
  20577623.466   -25115626.71949 -19560810.11048  20577623.608    20577630.204
       245.000         213.000
 00  2  6  1 59 30.0000000  0  6G17G24G 6G 5G10G30
  24002813.298    -9339843.02849  -7260056.65245  24002812.309    24002822.852
       214.000         151.000
  22247054.867   -11641746.34149  -8211547.76546  22247054.874    22247063.190
       231.000         187.000
  21810723.092   -20474996.20849 -15942014.96547  21810722.901    21810730.715
       236.000         197.000
  21053314.287   -22224439.32149 -17304492.81847  21053313.804    21053321.477
       242.000         208.000
  20765356.142   -24235921.57049 -18869029.49747  20765355.324    20765362.833
       241.000         210.000
  20575927.934   -25124536.77249 -19567752.97648  20575928.101    20575934.788
       245.000         213.000
 00  2  6  2  0  0.0000000  0  6G17G24G 6G 5G10G30
  23987459.410    -9420527.26549  -7322927.31445  23987458.648    23987468.531
       214.000         151.000
  22260938.719   -11568786.21849  -8154695.70546  22260938.833    22260947.410
       231.000         187.000
  21799187.919   -20535613.47049 -15989249.09947  21799187.546    21799195.438
       236.000         197.000
  21066006.208   -22157742.72149 -17252521.43947  21066005.758    21066013.392
       243.000         208.000
  20763099.440   -24247780.19349 -18878269.92347  20763098.456    20763106.023
       242.000         210.000
  20574345.787   -25132850.73349 -19574231.35048  20574345.977    20574352.531
       244.000         213.000
 00  2  6  2  0 30.0000000  0  6G17G24G 6G 5G10G30
  23972145.292    -9501002.77949  -7385635.34245  23972143.870    23972154.725
       213.000         152.000
  22274839.368   -11495737.80749  -8097774.85246  22274839.340    22274847.652
       231.000         186.000
  21787676.163   -20596107.65449 -16036387.32947  21787675.966    21787683.466
       237.000         198.000
  21078781.854   -22090606.22649 -17200207.29047  21078781.203    21078788.895
       242.000         208.000
  20760962.151   -24259011.62249 -18887021.63047  20760961.326    20760968.838
       242.000         210.000
  20572884.438   -25140530.07049 -19580215.22048  20572884.668    20572891.212
       245.000         213.000
 00  2  6  2  1  0.0000000  0  6G17G24G 6G 5G10G30
  23956870.428    -9581271.90749  -7448182.54945  23956869.115    23956879.834
       214.000         153.000
  22288760.103   -11422583.73149  -8040771.65846  22288760.562    22288768.349
       230.000         186.000
  21776186.942   -20656483.50049 -16083433.35147  21776186.720    21776194.268
       236.000         198.000
  21091643.649   -22023016.89049 -17147540.27547  21091643.349    21091650.903
       242.000         208.000
  20758943.132   -24269621.38649 -18895288.92247  20758942.163    20758949.668
       242.000         210.000
  20571545.981   -25147563.63349 -19585695.88948  20571546.005    20571552.606
       245.000         213.000
 00  2  6  2  1 30.0000000  0  6G17G24G 6G 5G10G30
  23941634.281    -9661337.76149  -7510571.36745  23941633.152    23941643.745
       213.000         153.000
  22302705.262   -11349301.32349  -7983668.45646  22302705.228    22302713.419
       230.000         186.000
  21764720.928   -20716737.39349 -16130384.34447  21764720.438    21764728.313
       237.000         198.000
  21104591.458   -21954975.69749 -17094521.16447  21104591.026    21104598.482
       242.000         208.000
  20757040.748   -24279618.26949 -18903078.64347  20757039.890    20757047.223
       242.000         210.000
  20570328.751   -25153960.01149 -19590680.04648  20570328.908    20570335.303
       245.000         213.000
 00  2  6  2  2  0.0000000  0  6G17G24G 6G 5G10G30
  23926435.256    -9741208.47149  -7572808.11845  23926434.304    23926445.163
       215.000         154.000
  22316672.618   -11275902.24549  -7926474.34846  22316672.139    22316680.797
       230.000         185.000
  21753276.074   -20776880.12449 -16177248.72547  21753275.950    21753283.301
       236.000         199.000
  21117622.302   -21886498.23349 -17041162.09847  21117621.835    21117629.406
       242.000         207.000
  20755251.302   -24289021.45249 -18910405.74047  20755250.249    20755257.680
       242.000         210.000
  20569229.463   -25159736.72849 -19595181.34648  20569229.659    20569236.052
       245.000         213.000
 00  2  6  2  2 30.0000000  0  6G17G24G 6G 5G10G30
  23911272.723    -9820887.77849  -7634895.73045  23911271.401    23911282.409
       216.000         155.000
  22330656.010   -11202418.97849  -7869214.63946  22330655.749    22330664.677
       230.000         185.000
  21741849.429   -20836927.10749 -16224038.50747  21741849.091    21741856.806
       237.000         199.000
  21130736.889   -21817580.68849 -16987460.11447  21130736.615    21130744.176
       242.000         207.000
  20753573.336   -24297838.93549 -18917276.45247  20753572.461    20753579.780
       242.000         210.000
  20568242.870   -25164921.18149 -19599221.14448  20568243.281    20568249.560
       245.000         213.000
 00  2  6  2  3  0.0000000  0  6G17G24G 6G 5G10G30
  23896143.407    -9900392.21049  -7696847.08345  23896141.985    23896152.356
       216.000         156.000
  22344651.054   -11128874.34749  -7811907.12046  22344650.720    22344658.608
       230.000         185.000
  21730439.199   -20896887.97849 -16270761.18047  21730438.720    21730446.432
       237.000         199.000
  21143933.856   -21748230.20649 -16933420.77047  21143933.330    21143940.951
       242.000         207.000
  20752005.398   -24306078.28849 -18923696.67147  20752004.426    20752011.902
       242.000         210.000
  20567362.518   -25169547.28549 -19602825.86348  20567362.401    20567368.928
       245.000         213.000
 00  2  6  2  3 30.0000000  0  6G17G24G 6G 5G10G30
  23881046.109    -9979728.64249  -7758667.54045  23881044.977    23881055.341
       219.000         158.000
  22358652.841   -11055294.41549  -7754572.08846  22358652.317    22358661.265
       229.000         184.000
  21719047.203   -20956753.07149 -16317409.22647  21719047.027    21719054.664
       237.000         199.000
  21157206.949   -21678479.40849 -16879069.49847  21157206.371    21157213.979
       242.000         207.000
  20750547.776   -24313737.91649 -18929665.16047  20750546.925    20750554.214
       242.000         210.000
  20566585.729   -25173629.12249 -19606006.48148  20566585.939    20566592.520
       244.000         213.000
 00  2  6  2  4  0.0000000  0  6G17G24G 6G 5G10G30
  23865980.639   -10058897.90049  -7820357.71945  23865979.866    23865989.804
       217.000         160.000
  22372659.581   -10981688.39649  -7697216.72646  22372659.460    22372667.779
       230.000         184.000
  21707675.512   -21016511.26949 -16363973.97147  21707675.299    21707682.694
       237.000         199.000
  21170555.853   -21608330.51449 -16824408.02147  21170555.260    21170563.340
       241.000         206.000
  20749201.639   -24320811.65149 -18935177.11047  20749200.587    20749208.092
       242.000         210.000
  20565915.150   -25177152.99249 -19608752.31948  20565915.453    20565921.599
       245.000         213.000
 00  2  6  2  4 30.0000000  0  6G17G24G 6G 5G10G30
  23850947.894   -10137894.93349  -7881913.70745  23850947.013    23850957.222
       218.000         161.000
  22386673.492   -10908044.74349  -7639832.03746  22386673.319    22386681.579
       231.000         184.000
  21696326.635   -21076149.71949 -16410445.40447  21696326.386    21696334.066
       237.000         199.000
  21183982.482   -21537772.98949 -16769428.12847  21183982.034    21183989.542
       241.000         206.000
  20747971.220   -24327277.37649 -18940215.28747  20747970.449    20747977.753
       242.000         210.000
  20565352.258   -25180110.75649 -19611057.03748  20565352.443    20565358.860
       245.000         213.000
 00  2  6  2  5  0.0000000  0  6G17G24G 6G 5G10G30
  23835948.033   -10216719.24049  -7943335.10345  23835947.347    23835957.215
       218.000         162.000
  22400696.456   -10834353.33849  -7582410.14746  22400696.261    22400704.487
       231.000         183.000
  21685004.043   -21135649.96249 -16456809.14847  21685003.584    21685011.383
       238.000         199.000
  21197482.866   -21466827.97649 -16714146.30047  21197482.468    21197490.029
       241.000         206.000
  20746859.491   -24333119.32149 -18944767.40547  20746858.399    20746866.001
       243.000         210.000
  20564898.398   -25182495.64349 -19612915.36348  20564898.617    20564905.000
       245.000         213.000
 00  2  6  2  5 30.0000000  0  6G17G24G 6G 5G10G30
  23820982.585   -10295362.72349  -8004615.59846  23820981.618    23820991.802
       220.000         163.000
  22414733.539   -10760588.02049  -7524930.66146  22414733.533    22414741.682
       230.000         183.000
  21673709.563   -21195002.56449 -16503057.84847  21673709.173    21673716.774
       237.000         200.000
  21211056.035   -21395500.72649 -16658566.62347  21211055.422    21211063.148
       241.000         206.000
  20745870.811   -24338314.53449 -18948815.57347  20745869.893    20745877.377
       242.000         210.000
  20564556.438   -25184292.51849 -19614315.49048  20564556.674    20564563.027
       245.000         213.000
 00  2  6  2  6  0.0000000  0  6G17G24G 6G 5G10G30
  23806050.505   -10373830.74849  -8065759.38846  23806049.075    23806059.478
       219.000         164.000
  22428786.184   -10686740.86249  -7467387.40446  22428786.124    22428794.555
       231.000         183.000
  21662438.909   -21254229.85449 -16549208.91247  21662438.416    21662446.187
       237.000         200.000
  21224705.439   -21323772.47249 -16602674.47647  21224704.763    21224712.452
       241.000         206.000
  20745003.258   -24342873.26249 -18952367.78447  20745002.324    20745009.611
       242.000         210.000
  20564326.944   -25185498.36949 -19615255.08348  20564327.153    20564333.483
       245.000         213.000
 00  2  6  2  6 30.0000000  0  6G17G24G 6G 5G10G30
  23791153.738   -10452112.92049  -8126758.34946  23791152.658    23791163.119
       218.000         164.000
  22442854.109   -10612813.23749  -7409781.43046  22442853.466    22442862.022
       230.000         182.000
  21651189.112   -21313347.51749 -16595274.53947  21651188.944    21651196.406
       237.000         200.000
  21238434.304   -21251626.77749 -16546457.05247  21238433.968    21238441.526
       240.000         206.000
  20744257.369   -24346792.78149 -18955421.90547  20744256.500    20744263.918
       242.000         210.000
  20564212.369   -25186100.33949 -19615724.11548  20564212.572    20564218.889
       245.000         213.000
 00  2  6  2  7  0.0000000  0  6G17G24G 6G 5G10G30
  23776292.732   -10530207.45949  -8187611.11946  23776291.856    23776302.016
       219.000         165.000
  22456937.676   -10538803.62849  -7352111.59146  22456937.356    22456946.302
       230.000         182.000
  21639957.805   -21372368.19849 -16641264.60347  21639957.459    21639964.944
       237.000         200.000
  21252242.658   -21179063.41349 -16489914.17247  21252241.899    21252249.385
       240.000         205.000
  20743633.125   -24350072.95849 -18957977.84147  20743632.422    20743639.507
       242.000         210.000
  20564214.180   -25186090.71649 -19615716.58348  20564214.431    20564220.811
       245.000         213.000
 00  2  6  2  7 30.0000000  0  6G17G24G 6G 5G10G30
  23761468.132   -10608110.84449  -8248314.93246  23761467.149    23761476.910
       219.000         166.000
  22471035.489   -10464719.00849  -7294383.29246  22471034.856    22471043.654
       230.000         182.000
  21628740.631   -21431314.39949 -16687196.62947  21628740.425    21628747.660
       237.000         201.000
  21266133.639   -21106065.65349 -16433032.80047  21266133.112    21266140.796
       240.000         205.000
  20743130.402   -24352714.58449 -18960036.20147  20743129.430    20743136.900
       242.000         210.000
  20564333.246   -25185464.84149 -19615228.85548  20564333.268    20564339.763
       245.000         213.000
 00  2  6  2  8  0.0000000  0  6G17G24G 6G 5G10G30
  23746681.520   -10685814.52449  -8308863.13546  23746680.875    23746690.444
       219.000         165.000
  22485143.589   -10390580.40649  -7236612.92646  22485143.269    22485151.504
       229.000         182.000
  21617538.687   -21490180.67349 -16733066.37547  21617538.529    21617545.807
       238.000         201.000
  21280111.161   -21032613.27849 -16375797.18847  21280110.636    21280118.160
       240.000         205.000
  20742748.182   -24354722.93249 -18961601.09947  20742747.225    20742754.745
       242.000         210.000
  20564570.968   -25184215.37749 -19614255.21548  20564571.064    20564577.309
       245.000         213.000
 00  2  6  2  8 30.0000000  0  6G17G24G 6G 5G10G30
  23731935.733   -10763303.49649  -8369244.03546  23731935.043    23731944.700
       218.000         165.000
  22499261.130   -10316391.98049  -7178803.73546  22499260.976    22499269.197
       229.000         181.000
  21606356.624   -21548942.60349 -16778854.80647  21606356.511    21606363.743
       238.000         201.000
  21294173.656   -20958714.40249 -16318213.65147  21294173.061    21294180.568
       240.000         205.000
  20742489.238   -24356083.57549 -18962661.28947  20742488.354    20742495.576
       242.000         210.000
  20564927.247   -25182342.97649 -19612796.16648  20564927.367    20564933.966
       244.000         213.000
 00  2  6  2  9  0.0000000  0  6G17G24G 6G 5G10G30
  23717230.354   -10840580.46249  -8429459.73646  23717229.204    23717239.574
       220.000         165.000
  22513387.975   -10242154.85149  -7120956.60346  22513387.826    22513395.584
       229.000         181.000
  21595197.800   -21607582.31449 -16824548.00247  21595197.576    21595204.829
       238.000         201.000
  21308318.130   -20884384.67249 -16260294.38047  21308317.539    21308325.226
       240.000         205.000
  20742354.755   -24356789.96649 -18963211.67347  20742353.867    20742361.192
       242.000         211.000
  20565399.663   -25179860.29449 -19610861.57348  20565399.780    20565406.185
       245.000         213.000
 00  2  6  2  9 30.0000000  0  6G17G24G 6G 5G10G30
  23702567.373   -10917634.40949  -8489501.65246  23702566.445    23702576.270
       220.000         165.000
  22527522.905   -10167875.22049  -7063076.34846  22527522.291    22527530.756
       229.000         181.000
  21584066.026   -21666079.82749 -16870130.39647  21584065.772    21584073.157
       238.000         201.000
  21322542.712   -20809633.95249 -16202047.07147  21322542.271    21322549.696
       240.000         204.000
  20742340.411   -24356865.22249 -18963270.26547  20742339.567    20742346.766
       242.000         211.000
  20565987.329   -25176771.87749 -19608454.98048  20565987.553    20565993.839
       245.000         213.000
 00  2  6  2 10  0.0000000  0  6G17G24G 6G 5G10G30
  23687943.089   -10994485.00049  -8549385.11046  23687941.909    23687952.854
       219.000         165.000
  22541667.392   -10093545.05949  -7005156.72146  22541666.739    22541675.030
       229.000         180.000
  21572962.166   -21724430.59849 -16915598.43947  21572961.969    21572969.188
       238.000         202.000
  21336844.151   -20734479.58449 -16143485.22447  21336843.690    21336851.147
       240.000         204.000
  20742441.029   -24356336.18749 -18962857.97947  20742440.088    20742447.341
       242.000         211.000
  20566687.242   -25173093.56849 -19605588.72948  20566687.449    20566693.702
       244.000         213.000
 00  2  6  2 10 30.0000000  0  6G17G24G 6G 5G10G30
  23673354.366   -11071148.84649  -8609123.05646  23673354.008    23673363.419
       220.000         165.000
  22555821.799   -10019163.13049  -6947196.76146  22555821.470    22555829.850
       229.000         180.000
  21561884.433   -21782644.17249 -16960959.57647  21561884.128    21561891.410
       238.000         202.000
  21351218.001   -20658944.37449 -16084626.62047  21351217.630    21351225.078
       239.000         204.000
  20742654.169   -24355215.72549 -18961984.84347  20742653.510    20742660.663
       242.000         211.000
  20567496.725   -25168839.66849 -19602273.97048  20567496.888    20567503.412
       245.000         213.000
 00  2  6  2 11  0.0000000  0  6G17G24G 6G 5G10G30
  23658797.663   -11147644.36549  -8668729.84046  23658796.656    23658806.989
       219.000         165.000
  22569986.305    -9944728.00549  -6889195.34446  22569986.214    22569994.121
       229.000         180.000
  21550831.708   -21840726.27249 -17006218.26647  21550831.260    21550839.069
       237.000         202.000
  21365662.885   -20583036.09349 -16025477.31547  21365662.440    21365669.961
       239.000         203.000
  20742977.228   -24353518.09149 -18960661.96447  20742976.446    20742983.785
       242.000         211.000
  20568415.319   -25164012.13649 -19598512.22148  20568415.632    20568421.908
       244.000         213.000
 00  2  6  2 11 30.0000000  0  6G17G24G 6G 5G10G30
  23644271.149   -11223981.08449  -8728212.87846  23644270.122    23644280.162
       218.000         165.000
  22584161.703    -9870235.55449  -6831149.27446  22584162.140    22584169.774
       228.000         179.000
  21539803.063   -21898681.88349 -17051378.39547  21539802.855    21539810.035
       238.000         202.000
  21380177.974   -20506758.86549 -15966040.51847  21380177.761    21380184.979
       239.000         203.000
  20743407.766   -24351255.37849 -18958898.76147  20743406.888    20743414.182
       242.000         211.000
  20569443.087   -25158611.11049 -19594303.59648  20569443.201    20569449.656
       245.000         213.000
 00  2  6  2 12  0.0000000  0  6G17G24G 6G 5G10G30
  23629770.725   -11300180.86149  -8787589.20846  23629769.821    23629779.813
       218.000         164.000
  22598348.090    -9795685.54449  -6773058.33646  22598348.409    22598356.543
       229.000         179.000
  21528797.477   -21956516.21249 -17096444.02347  21528797.114    21528804.261
       239.000         202.000
  21394763.500   -20430111.38349 -15906315.20947  21394763.024    21394770.388
       239.000         203.000
  20743951.948   -24348395.21849 -18956670.01647  20743951.072    20743958.261
       243.000         211.000
  20570579.643   -25152638.19849 -19589649.34348  20570579.864    20570586.186
       245.000         213.000
 00  2  6  2 12 30.0000000  0  6G17G24G 6G 5G10G30
  23615302.309   -11376212.09249  -8846834.19746  23615301.657    23615311.146
       218.000         163.000
  22612544.819    -9721081.11349  -6714925.00646  22612544.361    22612552.624
       227.000         179.000
  21517817.976   -22014213.38149 -17141402.76947  21517817.845    21517824.935
       239.000         203.000
  21409418.757   -20353097.48249 -15846304.38247  21409417.868    21409425.654
       239.000         203.000
  20744616.072   -24344904.92949 -18953950.26447  20744615.112    20744622.443
       242.000         211.000
  20571828.958   -25146072.98349 -19584533.55748  20571829.189    20571835.593
       245.000         213.000
 00  2  6  2 13  0.0000000  0  6G17G24G 6G 5G10G30
  23600871.206   -11452047.41149  -8905926.52946  23600869.978    23600880.134
       219.000         163.000
  22626752.969    -9646416.71449  -6656744.93646  22626753.355    22626761.138
       227.000         178.000
  21506867.276   -22071759.36249 -17186243.70847  21506867.026    21506874.304
       239.000         203.000
  21424145.021   -20275710.45449 -15786002.80747  21424144.753    21424152.027
       239.000         202.000
  20745403.676   -24340765.86449 -18950724.97047  20745402.906    20745410.175
       242.000         211.000
  20573193.929   -25138899.75849 -19578943.99748  20573194.144    20573200.426
       244.000         213.000
 00  2  6  2 13 30.0000000  0  6G17G24G 6G 5G10G30
  23586478.406   -11527681.64549  -8964862.17646  23586477.361    23586487.129
       220.000         163.000
  22640971.106    -9571699.78549  -6598523.93046  22640970.862    22640978.880
       228.000         178.000
  21495944.693   -22129157.68649 -17230969.58647  21495944.597    21495951.521
       241.000         203.000
  21438942.370   -20197949.65349 -15725409.97247  21438942.029    21438949.672
       240.000         202.000
  20746314.746   -24335977.95549 -18946994.08147  20746313.946    20746321.027
       243.000         210.000
  20574675.564   -25131113.42949 -19572876.69148  20574675.688    20574682.052
       246.000         213.000
 00  2  6  2 14  0.0000000  0  6G17G24G 6G 5G10G30
  23572129.671   -11603084.20049  -9023617.27445  23572128.725    23572138.039
       218.000         162.000
  22655201.170    -9496920.32349  -6540254.20546  22655201.380    22655209.774
       227.000         178.000
  21485052.748   -22186394.94949 -17275569.96947  21485052.298    21485059.858
       239.000         203.000
  21453813.302   -20119802.27849 -15664515.91747  21453812.754    21453820.806
       238.000         202.000
  20747352.120   -24330526.49549 -18942746.14747  20747351.258    20747358.601
       243.000         210.000
  20576279.364   -25122685.21949 -19566309.22248  20576279.698    20576286.008
       244.000         213.000
 00  2  6  2 14 30.0000000  0  6G17G24G 6G 5G10G30
  23557826.818   -11678245.54749  -9082184.43345  23557826.526    23557835.551
       219.000         162.000
  22669440.213    -9422093.65849  -6481947.69946  22669439.663    22669448.447
       226.000         177.000
  21474193.114   -22243462.18749 -17320037.86647  21474192.616    21474200.094
       239.000         203.000
  21468757.236   -20041271.48849 -15603323.09947  21468756.689    21468764.426
       238.000         202.000
  20748510.816   -24324437.37849 -18938001.33147  20748509.866    20748516.950
       242.000         210.000
  20578006.342   -25113609.87049 -19559237.48548  20578006.592    20578012.958
       244.000         213.000
 00  2  6  2 15  0.0000000  0  6G17G24G 6G 5G10G30
  23543567.803   -11753176.61949  -9140572.15046  23543567.407    23543576.382
       218.000         163.000
  22683689.339    -9347213.67849  -6423599.64246  22683689.099    22683697.591
       225.000         177.000
  21463366.221   -22300357.58149 -17364371.85847  21463365.761    21463373.023
       239.000         204.000
  21483778.739   -19962332.85749 -15541812.48747  21483778.240    21483785.647
       238.000         201.000
  20749788.066   -24317724.96649 -18932770.83547  20749787.011    20749794.339
       242.000         210.000
  20579854.530   -25103897.51749 -19551669.38448  20579854.753    20579861.007
       245.000         213.000
 00  2  6  2 15 30.0000000  0  6G17G24G 6G 5G10G30
  23529349.550   -11827893.63249  -9198793.06346  23529349.031    23529358.474
       218.000         163.000
  22697949.951    -9272273.43149  -6365204.62146  22697949.866    22697958.701
       226.000         177.000
  21452569.100   -22357096.33749 -17408583.79847  21452568.706    21452575.949
       239.000         204.000
  21498877.140   -19882990.34849 -15479987.15747  21498876.807    21498884.204
       238.000         201.000
  20751181.384   -24310402.82249 -18927065.21747  20751180.477    20751187.713
       242.000         210.000
  20581821.853   -25093558.96749 -19543613.33748  20581822.171    20581828.353
       245.000         213.000
 00  2  6  2 16  0.0000000  0  6G17G24G 6G 5G10G30
  23515169.778   -11902408.24049  -9256856.25946  23515169.417    23515178.324
       219.000         163.000
  22712218.031    -9197294.29749  -6306779.31946  22712218.099    22712225.927
       226.000         177.000
  21441799.181   -22413692.45549 -17452684.58847  21441798.812    21441806.133
       239.000         204.000
  21514050.054   -19803256.12749 -15417856.60247  21514049.453    21514057.077
       238.000         201.000
  20752688.286   -24302483.65749 -18920894.39547  20752687.503    20752694.781
       242.000         210.000
  20583902.631   -25082624.20049 -19535092.70848  20583903.030    20583909.176
       244.000         213.000
 00  2  6  2 16 30.0000000  0  6G17G24G 6G 5G10G30
  23501026.497   -11976731.15649  -9314770.07646  23501025.988    23501035.390
       220.000         164.000
  22726490.322    -9122292.95749  -6248336.70746  22726490.168    22726497.909
       226.000         176.000
  21431052.622   -22470165.65349 -17496689.60247  21431052.211    21431059.288
       240.000         204.000
  21529296.781   -19723133.98549 -15355423.76547  21529296.388    21529303.811
       238.000         200.000
  20754308.547   -24293969.16249 -18914259.67947  20754307.672    20754314.839
       242.000         210.000
  20586091.526   -25071121.33149 -19526129.40048  20586091.785    20586098.096
       244.000         213.000
 00  2  6  2 17  0.0000000  0  6G17G24G 6G 5G10G30
  23486919.283   -12050864.57149  -9372536.23346  23486918.325    23486927.903
       220.000         164.000
  22740767.458    -9047266.08449  -6189874.19246  22740767.484    22740776.557
       226.000         176.000
  21420322.399   -22526553.09849 -17540627.79147  21420322.190    21420329.042
       240.000         204.000
  21544612.153   -19642651.24349 -15292709.94547  21544611.496    21544619.245
       237.000         200.000
  20756040.415   -24284868.04149 -18907167.85047  20756039.513    20756046.607
       242.000         210.000
  20588388.255   -25059051.97749 -19516724.67648  20588388.405    20588394.854
       245.000         213.000
 00  2  6  2 17 30.0000000  0  6G17G24G 6G 5G10G30
  23472845.748   -12124821.07849  -9430164.54646  23472845.197    23472854.077
       220.000         165.000
  22755045.283    -8972235.56949  -6131408.86246  22755045.700    22755053.341
       225.000         176.000
  21409607.920   -22582857.85349 -17584501.55347  21409607.727    21409614.939
       240.000         205.000
  21559989.755   -19561841.43949 -15229741.27047  21559989.230    21559996.887
       237.000         200.000
  20757881.124   -24275194.71449 -18899630.15047  20757880.149    20757887.337
       243.000         210.000
  20590793.682   -25046411.31349 -19506874.78348  20590793.880    20590800.400
       244.000         213.000
 00  2  6  2 18  0.0000000  0  6G17G24G 6G 5G10G30
  23458809.383   -12198582.10149  -9487640.51846  23458808.525    23458817.725
       220.000         165.000
  22769325.280    -8897193.56349  -6072934.56546  22769325.384    22769333.414
       226.000         176.000
  21398917.357   -22639036.60449 -17628277.12747  21398917.098    21398924.050
       240.000         205.000
  21575432.621   -19480688.70149 -15166505.37647  21575431.959    21575439.931
       237.000         200.000
  20759835.802   -24264922.60949 -18891625.86947  20759835.035    20759842.019
       243.000         210.000
  20593312.815   -25033173.12549 -19496559.28148  20593313.036    20593319.241
       244.000         213.000
 00  2  6  2 18 30.0000000  0  6G17G24G 6G 5G10G30
  23444811.353   -12272141.65649  -9544959.51646  23444810.376    23444820.438
       219.000         166.000
  22783610.950    -8822121.84749  -6014437.12746  22783610.764    22783618.519
       225.000         175.000
  21388252.219   -22695082.05149 -17671948.83247  21388252.071    21388258.915
       240.000         205.000
  21590939.307   -19399200.54549 -15103008.11647  21590938.724    21590946.587
       237.000         199.000
  20761906.255   -24254042.11349 -18883147.52047  20761905.522    20761912.429
       243.000         210.000
  20595949.738   -25019315.63349 -19485761.20948  20595949.921    20595956.123
       244.000         213.000
 00  2  6  2 19  0.0000000  0  6G17G24G 6G 5G10G30
  23430852.550   -12345495.09149  -9602117.88746  23430851.559    23430860.627
       221.000         166.000
  22797906.755    -8746996.81349  -5955898.13746  22797906.578    22797914.468
       225.000         175.000
  21377619.070   -22750959.35349 -17715489.51447  21377618.733    21377625.743
       240.000         205.000
  21606512.185   -19317364.50649 -15039239.77747  21606511.653    21606519.079
       237.000         199.000
  20764093.579   -24242547.46849 -18874190.60947  20764092.688    20764099.748
       243.000         210.000
  20598706.407   -25004829.11349 -19474472.98048  20598706.602    20598712.825
       244.000         213.000
 00  2  6  2 19 30.0000000  0  6G17G24G 6G 5G10G30
  23416930.627   -12418654.94449  -9659125.42846  23416929.917    23416938.850
       220.000         167.000
  22812211.253    -8671825.75949  -5897323.29446  22812211.295    22812219.954
       224.000         175.000
  21367022.108   -22806646.42749 -17758881.96347  21367021.609    21367028.833
       241.000         205.000
  21622155.147   -19235160.05149 -14975184.36247  21622154.914    21622162.542
       237.000         199.000
  20766400.840   -24230422.50049 -18864742.54747  20766400.070    20766407.036
       243.000         210.000
  20601578.252   -24989737.31149 -19462713.10748  20601578.314    20601584.674
       244.000         213.000
 00  2  6  2 20  0.0000000  0  6G17G24G 6G 5G10G30
  23403046.846   -12491614.22749  -9715976.67746  23403046.378    23403054.712
       221.000         167.000
  22826522.900    -8596617.62449  -5838719.56046  22826522.577    22826530.777
       225.000         175.000
  21356456.092   -22862170.86249 -17802147.68647  21356455.573    21356462.668
       240.000         205.000
  21637868.315   -19152586.65449 -14910841.45647  21637868.026    21637875.471
       236.000         199.000
  20768831.198   -24217650.80449 -18854790.53747  20768830.398    20768837.488
       243.000         210.000
  20604560.627   -24974064.73949 -19450500.68948  20604560.859    20604567.052
       244.000         213.000
 00  2  6  2 20 30.0000000  0  6G17G24G 6G 5G10G30
  23389201.679   -12564370.39849  -9772669.66046  23389200.673    23389210.365
       221.000         168.000
  22840840.838    -8521376.51549  -5780090.13546  22840840.875    22840848.690
       225.000         175.000
  21345917.876   -22917549.27949 -17845299.62747  21345917.599    21345924.581
       240.000         205.000
  21653650.873   -19069648.74149 -14846214.51147  21653650.420    21653657.838
       237.000         198.000
  20771382.864   -24204241.52549 -18844341.70947  20771382.111    20771389.270
       243.000         210.000
  20607651.953   -24957819.58649 -19437842.10148  20607651.959    20607658.265
       244.000         213.000
 00  2  6  2 21  0.0000000  0  6G17G24G 6G 5G10G30
  23375391.165   -12636944.51549  -9829220.78246  23375390.164    23375399.444
       222.000         168.000
  22855160.958    -8446123.84149  -5721451.69746  22855161.361    22855169.302
       224.000         175.000
  21335408.519   -22972776.07849 -17888333.42947  21335408.314    21335415.143
       241.000         205.000
  21669500.559   -18986358.00349 -14781312.64147  21669499.847    21669507.691
       237.000         198.000
  20774052.548   -24190212.20249 -18833409.73247  20774051.733    20774058.604
       243.000         210.000
  20610848.537   -24941021.21949 -19424752.44248  20610848.616    20610854.959
       244.000         213.000
 00  2  6  2 21 30.0000000  0  6G17G24G 6G 5G10G30
  23361617.306   -12709326.10049  -9885621.87746  23361616.140    23361625.238
       221.000         169.000
  22869482.507    -8370863.72849  -5662807.45946  22869483.346    22869490.112
       224.000         175.000
  21324929.883   -23027841.39749 -17931241.39947  21324929.638    21324936.516
       241.000         206.000
  21685417.218   -18902715.38449 -14716136.57847  21685416.638    21685424.351
       236.000         198.000
  20776842.238   -24175552.00549 -18821986.16447  20776841.302    20776848.270
       243.000         210.000
  20614155.850   -24923641.04049 -19411209.42148  20614156.077    20614162.264
       244.000         213.000
 00  2  6  2 22  0.0000000  0  6G17G24G 6G 5G10G30
  23347883.120   -12781499.00849  -9941860.37446  23347882.108    23347890.822
       222.000         169.000
  22883808.254    -8295581.52449  -5604146.00746  22883808.209    22883815.968
       224.000         175.000
  21314483.897   -23082735.18649 -17974015.70747  21314483.850    21314490.338
       240.000         206.000
  21701400.121   -18818724.76749 -14650689.34547  21701399.414    21701407.196
       236.000         197.000
  20779751.113   -24160265.66949 -18810074.69347  20779750.308    20779757.373
       243.000         210.000
  20617577.892   -24905657.91449 -19397196.57048  20617578.178    20617584.497
       244.000         213.000
 00  2  6  2 22 30.0000000  0  6G17G24G 6G 5G10G30
  23334186.992   -12853472.19449  -9997943.24146  23334186.539    23334195.529
       222.000         170.000
  22898141.499    -8220259.81249  -5545453.77446  22898141.077    22898149.134
       224.000         175.000
  21304075.785   -23137429.81649 -18016634.83447  21304075.445    21304082.322
       240.000         206.000
  21717449.884   -18734382.68549 -14584968.24447  21717449.553    21717456.905
       236.000         197.000
  20782775.582   -24144371.78949 -18797689.81747  20782774.615    20782781.603
       243.000         210.000
  20621116.266   -24887063.59649 -19382707.47248  20621116.448    20621122.686
       244.000         213.000
 00  2  6  2 23  0.0000000  0  6G17G24G 6G 5G10G30
  23320529.084   -12925244.54849 -10053869.60746  23320528.534    23320537.605
       223.000         170.000
  22912481.182    -8144904.17849  -5486735.08946  22912480.750    22912488.889
       224.000         174.000
  21293706.806   -23191918.98049 -18059093.84647  21293706.644    21293713.522
       241.000         206.000
  21733568.144   -18649680.56949 -14518966.59647  21733567.504    21733575.177
       236.000         197.000
  20785916.499   -24127866.06349 -18784828.17647  20785915.690    20785922.596
       243.000         210.000
  20624770.567   -24867859.97649 -19367743.58848  20624770.738    20624777.074
       244.000         213.000
 00  2  6  2 23 30.0000000  0  6G17G24G 6G 5G10G30
  23306911.733   -12996803.50149 -10109629.69746  23306910.761    23306919.847
       222.000         170.000
  22926826.529    -8069518.96549  -5427993.37346  22926826.268    22926834.428
       223.000         174.000
  21283371.814   -23246229.41249 -18101413.59247  21283371.419    21283378.236
       241.000         206.000
  21749755.394   -18564616.12649 -14452682.61947  21749754.648    21749762.257
       235.000         196.000
  20789172.364   -24110756.12349 -18771495.71947  20789171.676    20789178.530
       244.000         210.000
  20628538.561   -24848058.95349 -19352314.19648  20628538.860    20628545.232
       244.000         213.000
 00  2  6  2 24  0.0000000  0  6G17G24G 6G 5G10G30
  23293332.866   -13068160.45149 -10165232.38246  23293331.992    23293341.592
       222.000         171.000
  22941175.250    -7994115.71349  -5369237.60846  22941174.755    22941183.733
       223.000         174.000
  21273066.714   -23300382.73649 -18143610.91947  21273066.562    21273073.056
       240.000         206.000
  21766006.611   -18479215.22149 -14386136.46447  21766006.038    21766013.841
       235.000         196.000
  20792540.240   -24093057.83149 -18757704.81147  20792539.694    20792546.380
       243.000         210.000
  20632413.196   -24827697.45949 -19336448.08048  20632413.407    20632419.633
       244.000         213.000
 00  2  6  2 24 30.0000000  0  6G17G24G 6G 5G10G30
  23279789.770   -13139329.14649 -10220688.36346  23279788.868    23279798.655
       222.000         171.000
  22955525.040    -7918707.19049  -5310477.72646  22955524.501    22955533.406
       223.000         174.000
  21262790.260   -23354385.55849 -18185690.96647  21262789.947    21262796.873
       241.000         206.000
  21782319.461   -18393490.56449 -14319338.03147  21782318.974    21782326.734
       235.000         195.000
  20796018.642   -24074778.46649 -18743461.11247  20796017.766    20796024.850
       243.000         210.000
  20636394.003   -24806778.13749 -19320147.28748  20636394.232    20636400.519
       244.000         213.000
 00  2  6  2 25  0.0000000  0  6G17G24G 6G 5G10G30
  23266283.142   -13210306.31949 -10275995.12146  23266282.288    23266291.516
       224.000         171.000
  22969874.555    -7843299.96049  -5251718.84646  22969874.067    22969882.834
       223.000         174.000
  21252540.274   -23408249.28549 -18227662.63047  21252539.953    21252546.582
       241.000         207.000
  21798690.878   -18307458.25649 -14252299.86947  21798690.401    21798698.541
       234.000         195.000
  20799608.982   -24055910.90749 -18728759.08247  20799608.111    20799614.950
       243.000         210.000
  20640483.660   -24785286.56649 -19303400.58248  20640483.760    20640490.096
       244.000         213.000
 00  2  6  2 25 30.0000000  0  6G17G24G 6G 5G10G30
  23252814.111   -13281086.15049 -10331148.10346  23252813.152    23252822.403
       224.000         172.000
  22984228.921    -7767867.36549  -5192940.21346  22984228.160    22984237.084
       224.000         173.000
  21242318.007   -23461967.39049 -18269520.82947  21242317.779    21242324.496
       243.000         207.000
  21815118.346   -18221131.20749 -14185032.04747  21815118.218    21815125.541
       236.000         195.000
  20803313.712   -24036442.22049 -18713588.64647  20803313.156    20803319.751
       245.000         210.000
  20644686.301   -24763201.46349 -19286191.39548  20644686.611    20644692.767
       246.000         213.000
 00  2  6  2 26  0.0000000  0  6G17G24G 6G 5G10G30
  23239379.875   -13351682.88949 -10386158.41446  23239379.782    23239387.448
       223.000         172.000
  22998588.677    -7692406.31649  -5134139.39846  22998588.788    22998596.868
       223.000         173.000
  21232125.943   -23515526.71749 -18311255.29947  21232125.675    21232132.404
       241.000         207.000
  21831601.671   -18134510.94249 -14117535.73447  21831601.437    21831608.820
       235.000         195.000
  20807133.692   -24016367.98349 -18697946.34847  20807132.932    20807139.853
       243.000         210.000
  20649004.314   -24740510.11249 -19268509.80148  20649004.582    20649010.891
       245.000         213.000
 00  2  6  2 26 30.0000000  0  6G17G24G 6G 5G10G30
  23225985.036   -13422072.98549 -10441007.71446  23225984.336    23225993.409
       224.000         172.000
  23012957.950    -7616895.24449  -5075299.60646  23012957.901    23012965.869
       223.000         173.000
  21221968.294   -23568905.27649 -18352848.91547  21221968.047    21221974.633
       241.000         207.000
  21848147.723   -18047560.75749 -14049782.34647  21848147.432    21848154.816
       235.000         194.000
  20811072.178   -23995670.95549 -18681818.76047  20811071.425    20811078.192
       244.000         210.000
  20653444.553   -24717176.33649 -19250327.61648  20653444.688    20653450.965
       244.000         213.000
 00  2  6  2 27  0.0000000  0  6G17G24G 6G 5G10G30
  23212630.488   -13492250.94349 -10495691.70646  23212629.721    23212638.577
       223.000         173.000
  23027336.038    -7541337.90949  -5016423.77246  23027336.217    23027343.876
       223.000         173.000
  21211845.995   -23622098.10249 -18394297.80747  21211845.855    21211852.362
       241.000         207.000
  21864757.127   -17960277.90749 -13981769.74447  21864756.594    21864764.779
       234.000         194.000
  20815128.752   -23974353.27549 -18665207.55247  20815128.007    20815134.982
       244.000         210.000
  20658004.093   -24693215.80249 -19231657.05348  20658004.321    20658010.630
       244.000         213.000
 00  2  6  2 27 30.0000000  0  6G17G24G 6G 5G10G30
  23199317.047   -13562213.05049 -10550207.50346  23199315.968    23199324.774
       225.000         173.000
  23041720.873    -7465745.24449  -4957520.40646  23041721.128    23041728.613
       224.000         172.000
  21201759.671   -23675101.72149 -18435599.26447  21201759.307    21201765.829
       241.000         207.000
  21881431.028   -17872656.04149 -13913492.96647  21881430.661    21881438.223
       234.000         194.000
  20819302.297   -23952421.02749 -18648117.45347  20819301.448    20819308.327
       244.000         210.000
  20662677.476   -24668657.04149 -19212520.33548  20662677.666    20662683.756
       245.000         213.000
 00  2  6  2 28  0.0000000  0  6G17G24G 6G 5G10G30
  23186042.402   -13631971.24249 -10604564.40646  23186041.757    23186050.509
       223.000         173.000
  23056106.855    -7390146.24849  -4898612.11746  23056106.999    23056114.564
       223.000         172.000
  21191708.016   -23727923.24549 -18476758.83347  21191707.506    21191714.323
       242.000         208.000
  21898169.265   -17784696.14649 -13844952.79547  21898168.643    21898176.155
       234.000         193.000
  20823587.323   -23929902.89149 -18630570.82247  20823586.351    20823593.394
       244.000         210.000
  20667460.991   -24643519.20549 -19192932.39348  20667461.244    20667467.452
       244.000         213.000
 00  2  6  2 28 30.0000000  0  6G17G24G 6G 5G10G30
  23172806.932   -13701523.67649 -10658760.99546  23172805.920    23172814.897
       224.000         173.000
  23070493.560    -7314543.70849  -4839701.05246  23070493.740    23070501.983
       222.000         171.000
  21181689.802   -23780569.04749 -18517781.47647  21181689.821    21181696.361
       242.000         208.000
  21914967.697   -17696419.68949 -13776165.95147  21914966.974    21914974.515
       234.000         193.000
  20827980.291   -23906817.36649 -18612582.07547  20827979.540    20827986.262
       244.000         210.000
  20672353.983   -24617806.26949 -19172896.32248  20672354.277    20672360.483
       246.000         213.000
 00  2  6  2 29  0.0000000  0  6G17G24G 6G 5G10G30
  23159607.790   -13770885.13849 -10712808.75146  23159606.838    23159615.737
       224.000         174.000
  23084880.147    -7238941.69749  -4780790.40646  23084880.690    23084888.355
       223.000         171.000
  21171703.703   -23833046.14549 -18558672.65547  21171703.315    21171710.067
       241.000         208.000
  21931821.449   -17607852.67949 -13707152.69847  21931821.066    21931828.918
       233.000         192.000
  20832480.745   -23883167.27449 -18594153.39947  20832479.874    20832486.778
       244.000         210.000
  20677353.237   -24591534.92549 -19152425.12148  20677353.586    20677359.673
       246.000         213.000
 00  2  6  2 29 30.0000000  0  6G17G24G 6G 5G10G30
  23146444.871   -13840056.17649 -10766708.13946  23146444.450    23146452.702
       224.000         174.000
  23099267.341    -7163336.62449  -4721877.37446  23099267.010    23099275.548
       221.000         171.000
  21161747.519   -23885365.82049 -18599441.17447  21161747.357    21161753.837
       242.000         208.000
  21948730.004   -17518997.70649 -13637915.05647  21948729.451    21948736.888
       233.000         192.000
  20837089.597   -23858947.48949 -18575280.81447  20837088.914    20837095.635
       244.000         210.000
  20682460.787   -24564694.45449 -19131510.45148  20682461.090    20682467.131
       246.000         213.000
 00  2  6  2 30  0.0000000  0  6G17G24G 6G 5G10G30
  23133316.965   -13909043.16549 -10820464.10646  23133316.538    23133324.856
       224.000         174.000
  23113656.824    -7087719.46549  -4662954.92746  23113656.778    23113665.257
       221.000         170.000
  21151823.184   -23937518.31549 -18640079.42347  21151822.968    21151829.447
       241.000         208.000
  21965692.420   -17429859.49549 -13568456.72247  21965692.008    21965699.435
       233.000         192.000
  20841807.810   -23834153.03049 -18555960.42847  20841807.107    20841813.808
       244.000         210.000
  20687680.115   -24537266.64349 -19110138.11048  20687680.267    20687686.560
       246.000         213.000
 00  2  6  2 30 30.0000000  0  6G17G24G 6G 5G10G30
  23120226.001   -13977836.14549 -10874068.91146  23120224.991    23120233.820
       224.000         174.000
  23128049.569    -7012085.16049  -4604019.09946  23128049.215    23128057.207
       222.000         170.000
  21141933.024   -23989491.23649 -18680577.74447  21141932.575    21141939.224
       242.000         209.000
  21982708.753   -17340438.18549 -13498777.78147  21982708.168    21982715.874
       233.000         191.000
  20846639.663   -23808761.27249 -18536174.61747  20846638.922    20846645.755
       244.000         210.000
  20693009.006   -24509262.99249 -19088317.06747  20693009.408    20693015.361
       246.000         212.000
 00  2  6  2 31  0.0000000  0  6G17G24G 6G 5G10G30
  23107172.164   -14046434.03349 -10927521.69046  23107172.028    23107179.977
       223.000         174.000
  23142443.415    -6936444.98249  -4545078.70746  23142443.330    23142451.651
       222.000         170.000
  21132078.422   -24041277.08149 -18720930.29447  21132078.247    21132084.613
       242.000         209.000
  21999781.233   -17250721.51649 -13428868.69347  21999780.569    21999788.291
       233.000         191.000
  20851587.213   -23782761.75849 -18515915.22447  20851586.517    20851593.322
       244.000         210.000
  20698443.872   -24480702.49049 -19066062.11347  20698444.045    20698450.180
       246.000         212.000
 00  2  6  2 31 30.0000000  0  6G17G24G 6G 5G10G30
  23094157.804   -14114824.47549 -10980812.82046  23094156.838    23094165.416
       224.000         175.000
  23156836.758    -6860807.49749  -4486140.40846  23156836.426    23156845.106
       222.000         169.000
  21122259.613   -24092875.02149 -18761136.42647  21122259.414    21122265.925
       242.000         209.000
  22016911.944   -17160698.97349 -13358721.26547  22016911.459    22016919.011
       233.000         191.000
  20856649.405   -23756159.64249 -18495186.27147  20856648.872    20856655.453
       244.000         210.000
  20703986.598   -24451575.22049 -19043365.51947  20703986.878    20703992.995
       246.000         212.000
 00  2  6  2 32  0.0000000  0  6G17G24G 6G 5G10G30
  23081182.302   -14183010.64549 -11033944.78646  23081181.760    23081190.170
       224.000         175.000
  23171228.506    -6785178.47749  -4427208.70146  23171229.072    23171236.832
       221.000         168.000
  21112478.216   -24144276.40349 -18801189.39647  21112477.966    21112484.559
       242.000         209.000
  22034098.768   -17070381.55149 -13288344.06147  22034098.351    22034105.775
       232.000         190.000
  20861825.085   -23728961.24249 -18473992.68647  20861824.459    20861831.136
       243.000         209.000
  20709634.530   -24421895.06849 -19020238.11047  20709634.788    20709640.970
       245.000         212.000
 00  2  6  2 32 30.0000000  0  6G17G24G 6G 5G10G30
  23068246.603   -14250987.64049 -11086913.75746  23068246.165    23068255.152
       223.000         175.000
  23185618.264    -6709559.61649  -4368284.93046  23185617.791    23185626.673
       220.000         168.000
  21102733.088   -24195487.18849 -18841093.85347  21102732.942    21102739.522
       242.000         210.000
  22051342.161   -16979766.70149 -13217735.09147  22051341.814    22051349.291
       232.000         190.000
  20867114.166   -23701166.67649 -18452334.55447  20867113.278    20867120.280
       244.000         209.000
  20715386.238   -24391669.52249 -18996685.71747  20715386.606    20715392.524
       246.000         212.000
 00  2  6  2 33  0.0000000  0  6G17G24G 6G 5G10G30
  23055348.878   -14318765.12849 -11139727.26146  23055347.775    23055356.424
       224.000         175.000
  23200006.516    -6633948.49349  -4309367.17546  23200006.120    23200014.522
       220.000         167.000
  21093022.540   -24246516.18249 -18880856.65247  21093022.454    21093028.819
       242.000         210.000
  22068639.373   -16888869.15549 -13146905.84247  22068638.909    22068646.551
       232.000         189.000
  20872515.978   -23672779.78049 -18430214.86947  20872515.178    20872522.108
       244.000         209.000
  20721245.588   -24360878.47549 -18972692.67547  20721245.780    20721251.776
       246.000         212.000
 00  2  6  2 33 30.0000000  0  6G17G24G 6G 5G10G30
  23042488.909   -14386344.31549 -11192386.25546  23042488.177    23042496.657
       224.000         175.000
  23214395.040    -6558336.07049  -4250448.41346  23214394.299    23214403.221
       220.000         166.000
  21083349.227   -24297349.52949 -18920466.99747  21083348.811    21083355.322
       243.000         210.000
  22085991.160   -16797684.94449 -13075853.21947  22085990.597    22085998.751
       232.000         189.000
  20878031.394   -23643795.92949 -18407630.02547  20878030.670    20878037.479
       244.000         209.000
  20727216.798   -24329499.34749 -18948241.39147  20727217.076    20727222.979
       246.000         212.000
 00  2  6  2 34  0.0000000  0  6G17G24G 6G 5G10G30
  23029667.931   -14453718.57049 -11244885.56046  23029666.773    23029675.629
       225.000         175.000
  23228785.001    -6482716.28549  -4191523.92146  23228785.357    23228792.734
       220.000         166.000
  21073718.564   -24347958.77649 -18959902.72547  21073718.368    21073724.937
       243.000         210.000
  22103400.312   -16706199.26849 -13004565.68347  22103400.144    22103407.423
       232.000         189.000
  20883662.399   -23614204.73449 -18384571.92647  20883661.462    20883668.411
       244.000         209.000
  20733301.068   -24297526.29349 -18923327.30947  20733301.484    20733307.251
       246.000         212.000
 00  2  6  2 34 30.0000000  0  6G17G24G 6G 5G10G30
  23016887.499   -14520879.60449 -11297218.72446  23016887.730    23016895.235
       224.000         176.000
  23243178.877    -6407075.94449  -4132583.40146  23243178.662    23243186.471
       220.000         165.000
  21064132.159   -24398335.36649 -18999157.15947  21064131.875    21064138.292
       242.000         210.000
  22120868.911   -16614401.31349 -12933034.81547  22120868.721    22120876.084
       232.000         189.000
  20889408.916   -23584006.42049 -18361040.75047  20889407.974    20889414.968
       244.000         209.000
  20739503.374   -24264933.04149 -18897929.95547  20739503.650    20739509.743
       246.000         212.000
 00  2  6  2 35  0.0000000  0  6G17G24G 6G 5G10G30
  23004148.742   -14587821.75949 -11349381.33146  23004147.960    23004156.578
       224.000         176.000
  23257576.505    -6331415.75049  -4073627.40546  23257576.255    23257584.873
       219.000         164.000
  21054591.255   -24448472.92849 -19038225.33747  21054591.190    21054597.694
       243.000         210.000
  22138396.759   -16522292.06549 -12861261.38647  22138395.997    22138403.974
       232.000         188.000
  20895269.157   -23553210.59649 -18337043.98247  20895268.437    20895275.164
       243.000         209.000
  20745825.643   -24231709.12449 -18872041.17447  20745825.944    20745831.848
       246.000         212.000
 00  2  6  2 35 30.0000000  0  6G17G24G 6G 5G10G30
  22991454.012   -14654532.60849 -11401363.69146  22991452.619    22991461.937
       224.000         176.000
  23271978.021    -6255735.16649  -4014655.52946  23271977.685    23271985.800
       219.000         164.000
  21045096.107   -24498370.22749 -19077106.29747  21045095.863    21045102.416
       243.000         211.000
  22155985.146   -16429864.46449 -12789239.88747  22155985.031    22155992.145
       231.000         188.000
  20901240.499   -23521830.79849 -18312592.17047  20901239.823    20901246.584
       244.000         209.000
  20752264.372   -24197873.37249 -18845675.63947  20752264.646    20752270.599
       246.000         212.000
 00  2  6  2 36  0.0000000  0  6G17G24G 6G 5G10G30
  22978802.366   -14721016.85249 -11453169.49646  22978801.647    22978810.230
       224.000         176.000
  23286381.951    -6180041.69349  -3955673.61746  23286380.974    23286390.565
       218.000         163.000
  21035641.674   -24548053.19949 -19115820.25047  21035641.488    21035648.087
       242.000         211.000
  22173627.519   -16337153.16349 -12716997.32747  22173627.097    22173635.078
       231.000         188.000
  20907319.393   -23489885.92049 -18287700.03647  20907318.624    20907325.518
       242.000         209.000
  20758815.230   -24163448.29649 -18818850.89147  20758815.321    20758821.447
       246.000         212.000
 00  2  6  2 36 30.0000000  0  7G17G24G 6G 5G13G10G30
  22966189.007   -14787299.99949 -11504818.59546  22966188.449    22966196.421
       224.000         176.000
  23300787.196    -6104341.79349  -3896686.67146  23300786.511    23300795.639
       219.000         163.000
  21026221.941   -24597554.11549 -19154392.34347  21026221.860    21026227.991
       242.000         211.000
  22191316.730   -16244195.86149 -12644563.07446  22191316.261    22191323.977
       232.000         187.000
  24840241.988    -1487026.90949  -1095295.60745  24840242.278    24840248.385
       208.000         135.000
  20913501.592   -23457398.22549 -18262384.93147  20913501.064    20913507.667
       242.000         209.000
  20765472.987   -24128461.53849 -18791588.47447  20765473.172    20765479.427
       246.000         212.000
 00  2  6  2 37  0.0000000  0  7G17G24G 6G 5G13G10G30
  22953611.999   -14853392.09449 -11556318.81846  22953610.836    22953619.968
       225.000         177.000
  23315187.235    -6028669.18649  -3837721.00745  23315187.611    23315195.579
       217.000         162.000
  21016833.533   -24646890.55049 -19192836.26947  21016833.469    21016839.821
       243.000         211.000
  22209049.593   -16151009.09449 -12571950.01546  22209049.165    22209056.802
       230.000         187.000
  24836676.285    -1505764.66849  -1109896.40745  24836676.607    24836683.913
       211.000         135.000
  20919784.091   -23424383.28349 -18236658.98147  20919783.485    20919790.222
       242.000         209.000
  20772229.113   -24092957.65449 -18763923.09947  20772229.475    20772235.442
       246.000         212.000
 00  2  6  2 37 30.0000000  0  7G17G24G 6G 5G13G10G30
  22941073.326   -14919282.77749 -11607662.11046  22941072.766    22941081.267
       224.000         177.000
  23329584.355    -5953011.55849  -3778767.02745  23329584.635    23329591.941
       217.000         162.000
  21007479.876   -24696044.03349 -19231137.63547  21007479.585    21007486.130
       243.000         211.000
  22226827.334   -16057586.27449 -12499153.02346  22226827.008    22226834.432
       231.000         187.000
  24833191.485    -1524077.25749  -1124165.89845  24833192.718    24833198.341
       207.000         135.000
  20926171.457   -23390817.44649 -18210503.76147  20926170.594    20926177.582
       242.000         209.000
  20779083.810   -24056935.92049 -18735854.20647  20779083.989    20779090.067
       245.000         211.000
 00  2  6  2 38  0.0000000  0  7G17G24G 6G 5G13G10G30
  22928571.797   -14984978.33549 -11658853.34646  22928571.270    22928579.251
       225.000         177.000
  23343979.104    -5877366.47749  -3719822.81245  23343978.540    23343987.485
       217.000         162.000
  20998162.270   -24745008.23949 -19269291.50947  20998162.035    20998168.549
       243.000         211.000
  22244650.976   -15963922.43949 -12426168.22846  22244650.359    22244658.016
       230.000         186.000
  24829786.745    -1541968.99749  -1138107.47945  24829787.436    24829793.776
       211.000         136.000
  20932664.835   -23356694.40049 -18183914.34847  20932664.068    20932670.886
       243.000         209.000
  20786038.691   -24020387.75949 -18707375.10747  20786038.785    20786045.109
       245.000         211.000
 00  2  6  2 38 30.0000000  0  7G17G24G 6G 5G13G10G30
  22916106.769   -15050482.15449 -11709895.18746  22916106.380    22916114.542
       225.000         177.000
  23358370.444    -5801739.41949  -3660892.65745  23358370.587    23358378.396
       218.000         162.000
  20988882.085   -24793775.64349 -19307292.03847  20988881.839    20988888.132
       243.000         211.000
  22262519.995   -15870020.09949 -12352997.58646  22262519.938    22262527.014
       230.000         186.000
  24826463.388    -1559432.29649  -1151715.19245  24826463.727    24826471.520
       209.000         136.000
  20939264.070   -23322015.08249 -18156891.47847  20939263.220    20939270.071
       242.000         209.000
  20793092.731   -23983318.51949 -18678489.97947  20793092.961    20793098.985
       245.000         211.000
 00  2  6  2 39  0.0000000  0  7G17G24G 6G 5G13G10G30
  22903679.703   -15115786.35349 -11760781.47346  22903679.143    22903687.181
       226.000         177.000
  23372757.636    -5726134.18449  -3601979.48345  23372757.776    23372765.967
       217.000         162.000
  20979640.564   -24842339.99449 -19345134.33847  20979640.467    20979646.896
       243.000         211.000
  22280433.699   -15775883.02249 -12279644.02246  22280433.527    22280441.009
       230.000         185.000
  24823222.983    -1576461.16149  -1164984.39845  24823223.810    24823230.152
       209.000         136.000
  20945971.628   -23286766.50049 -18129425.02447  20945970.956    20945977.591
       243.000         209.000
  20800249.887   -23945707.23849 -18649182.47747  20800250.416    20800256.221
       246.000         211.000
 00  2  6  2 39 30.0000000  0  7G17G24G 6G 5G13G10G30
  22891289.962   -15180894.61549 -11811515.08546  22891289.590    22891297.175
       226.000         178.000
  23387145.430    -5650525.68549  -3543063.78345  23387145.116    23387153.343
       216.000         162.000
  20970438.887   -24890694.92349 -19382813.45847  20970438.667    20970444.896
       243.000         211.000
  22298393.320   -15681504.49049 -12206102.32546  22298392.294    22298400.642
       229.000         185.000
  24820067.065    -1593045.40749  -1177907.12245  24820066.635    24820074.701
       210.000         136.000
  20952788.002   -23250946.11349 -18101513.01347  20952787.337    20952793.870
       242.000         208.000
  20807515.560   -23907525.86049 -18619430.74847  20807515.886    20807522.006
       245.000         211.000
 00  2  6  2 40  0.0000000  0  7G17G24G 6G 5G13G10G30
  22878938.804   -15245800.10349 -11862090.69846  22878937.511    22878946.292
       226.000         178.000
  23401534.225    -5574912.12049  -3484144.14145  23401534.465    23401542.767
       217.000         162.000
  20961277.175   -24938839.86949 -19420328.95447  20961277.100    20961283.291
       243.000         212.000
  22316400.158   -15586877.96549 -12132367.38346  22316399.598    22316407.226
       230.000         184.000
  24816998.118    -1609172.28949  -1190473.48045  24816998.469    24817005.787
       208.000         136.000
  20959711.928   -23214560.57149 -18073160.61947  20959711.074    20959717.713
       242.000         208.000
  20814891.112   -23868767.16149 -18589229.15447  20814891.411    20814897.382
       245.000         211.000
 00  2  6  2 40 30.0000000  0  7G17G24G 6G 5G13G10G30
  22866626.073   -15310503.50649 -11912508.84246  22866624.855    22866633.278
       226.000         178.000
  23415921.386    -5499307.35549  -3425231.34346  23415921.265    23415929.937
       217.000         163.000
  20952155.111   -24986776.40949 -19457682.05647  20952154.925    20952161.299
       243.000         212.000
  22334454.065   -15492004.03349 -12058439.65546  22334453.580    22334461.651
       230.000         184.000
  24814021.169    -1624816.10249  -1202663.41245  24814022.070    24814029.058
       211.000         136.000
  20966743.429   -23177609.71749 -18044367.72447  20966742.706    20966749.367
       242.000         208.000
  20822377.631   -23829425.11349 -18558573.00447  20822377.978    20822383.975
       245.000         211.000
 00  2  6  2 41  0.0000000  0  7G17G24G 6G 5G13G10G30
  22854349.836   -15375015.27049 -11962777.65046  22854349.313    22854357.149
       226.000         178.000
  23430304.919    -5423721.54649  -3366333.31746  23430305.037    23430312.761
       218.000         163.000
  20943073.014   -25034503.01049 -19494871.56547  20943072.682    20943079.080
       243.000         212.000
  22352560.096   -15396856.07649 -11984298.40146  22352559.455    22352567.194
       229.000         184.000
  24811135.761    -1639978.27149  -1214478.03545  24811135.308    24811142.395
       211.000         136.000
  20973881.566   -23140098.33849 -18015138.05247  20973880.794    20973887.477
       241.000         208.000
  20829975.339   -23789498.87349 -18527461.63647  20829975.558    20829981.738
       245.000         211.000
 00  2  6  2 41 30.0000000  0  7G17G24G 6G 5G13G10G30
  22842110.222   -15439334.25149 -12012896.24846  22842108.997    22842117.593
       226.000         178.000
  23444685.294    -5348152.26049  -3307448.17346  23444685.182    23444693.633
       217.000         163.000
  20934033.099   -25082007.76249 -19531888.21147  20934033.040    20934039.437
       243.000         212.000
  22370720.885   -15301420.60949 -11909933.11546  22370720.522    22370728.001
       228.000         183.000
  24808342.191    -1654658.49249  -1225917.13045  24808342.442    24808349.012
       208.000         136.000
  20981125.374   -23102031.65649 -17985475.68647  20981124.620    20981131.352
       241.000         208.000
  20837678.899   -23749016.39549 -18495916.84347  20837679.265    20837685.182
       245.000         211.000
 00  2  6  2 42  0.0000000  0  7G17G24G 6G 5G13G10G30
  22829906.328   -15503465.60749 -12062868.64546  22829905.315    22829913.628
       226.000         178.000
  23459059.132    -5272617.37249  -3248589.83146  23459058.911    23459067.627
       219.000         163.000
  20925037.015   -25129282.38349 -19568725.52847  20925036.778    20925043.162
       243.000         212.000
  22388932.516   -15205717.92949 -11835359.60746  22388931.985    22388939.960
       228.000         183.000
  24805642.357    -1668846.20249  -1236972.44845  24805642.361    24805650.632
       210.000         136.000
  20988477.167   -23063397.61849 -17955371.22147  20988476.280    20988483.087
       241.000         207.000
  20845487.043   -23707984.25449 -18463943.73547  20845487.359    20845493.365
       245.000         211.000
 00  2  6  2 42 30.0000000  0  7G17G24G 6G 5G13G10G30
  22817738.575   -15567407.38349 -12112693.31646  22817737.969    22817745.691
       227.000         179.000
  23473429.358    -5197101.31749  -3189746.15246  23473428.953    23473437.929
       218.000         163.000
  20916087.799   -25176310.70349 -19605370.92147  20916087.644    20916093.918
       243.000         212.000
  22407194.647   -15109749.68549 -11760579.17146  22407194.112    22407202.327
       227.000         182.000
  24803037.591    -1682534.36749  -1247638.51445  24803037.644    24803046.176
       207.000         136.000
  20995941.511   -23024172.19949 -17924805.94047  20995940.723    20995947.511
       241.000         207.000
  20853403.016   -23666385.46149 -18431529.08247  20853403.229    20853409.175
       245.000         211.000
 00  2  6  2 43  0.0000000  0  7G17G24G 6G 5G13G10G30
  22805610.447   -15631140.71249 -12162355.55946  22805610.614    22805618.151
       227.000         179.000
  23487800.732    -5121579.39349  -3130897.90446  23487800.494    23487809.260
       218.000         164.000
  20907187.217   -25223083.43949 -19641817.16347  20907186.956    20907193.189
       243.000         212.000
  22425506.987   -15013517.67049 -11685593.19646  22425506.455    22425514.402
       227.000         182.000
  24800524.444    -1695740.17449  -1257928.70745  24800525.653    24800531.547
       211.000         136.000
  21003519.354   -22984350.17449 -17893775.77547  21003518.547    21003525.324
       241.000         207.000
  20861424.108   -23624234.30349 -18398684.01747  20861424.326    20861430.279
       244.000         211.000
 00  2  6  2 43 30.0000000  0  7G17G24G 6G 5G13G10G30
  22793525.449   -15694647.42749 -12211841.22346  22793524.691    22793532.698
       227.000         180.000
  23502175.059    -5046042.04849  -3072037.64546  23502175.572    23502183.685
       218.000         164.000
  20898332.448   -25269615.24649 -19678075.66447  20898332.196    20898338.370
       243.000         212.000
  22443862.564   -14917058.55249 -11610430.26246  22443862.118    22443870.283
       227.000         182.000
  24798105.413    -1708453.09649  -1267834.85045  24798106.868    24798113.101
       211.000         135.000
  21011210.831   -22943931.03349 -17862280.32547  21011210.052    21011216.795
       241.000         207.000
  20869549.793   -23581533.48149 -18365410.64247  20869550.081    20869555.992
       244.000         211.000
 00  2  6  2 44  0.0000000  0  7G17G24G 6G 5G13G10G30
  22781483.344   -15757928.85949 -12261151.33546  22781482.538    22781490.609
       228.000         180.000
  23516552.521    -4970488.13049  -3013164.46946  23516552.839    23516561.134
       219.000         164.000
  20889519.888   -25315925.33249 -19714161.40047  20889519.437    20889525.919
       243.000         212.000
  22462257.515   -14820392.57749 -11535106.13946  22462256.663    22462264.956
       227.000         181.000
  24795777.005    -1720689.30249  -1277369.50845  24795777.091    24795784.258
       210.000         136.000
  21019012.561   -22902932.64949 -17830333.51547  21019011.701    21019018.484
       241.000         207.000
  20877782.143   -23538272.06949 -18331700.44147  20877782.442    20877788.411
       243.000         211.000
 00  2  6  2 44 30.0000000  0  7G17G24G 6G 5G13G10G30
  22769484.895   -15820980.75749 -12310282.60346  22769484.454    22769491.755
       227.000         180.000
  23530935.171    -4894906.67449  -2954269.84046  23530935.233    23530943.917
       219.000         164.000
  20880746.573   -25362029.06849 -19750086.34647  20880746.430    20880752.619
       243.000         212.000
  22480692.330   -14723516.88949 -11459618.60446  22480692.101    22480699.558
       226.000         181.000
  24793530.278    -1732495.21449  -1286568.89345  24793530.986    24793537.117
       211.000         136.000
  21026918.388   -22861387.13949 -17797960.37547  21026917.708    21026924.391
       241.000         207.000
  20886115.117   -23494481.76449 -18297578.12247  20886115.443    20886121.483
       243.000         210.000
 00  2  6  2 45  0.0000000  0  7G17G24G 6G 5G13G10G30
  22757527.816   -15883815.28549 -12359244.48446  22757527.292    22757534.539
       227.000         180.000
  23545319.088    -4819318.80049  -2895370.21546  23545319.365    23545328.023
       220.000         164.000
  20872009.277   -25407943.78649 -19785864.00447  20872009.159    20872015.304
       243.000         212.000
  22499163.340   -14626451.09949 -11383982.93646  22499163.153    22499170.533
       227.000         180.000
  24791362.196    -1743888.81549  -1295446.99145  24791362.257    24791367.668
       210.000         136.000
  21034920.651   -22819334.96049 -17765192.42947  21034920.098    21034926.704
       241.000         207.000
  20894543.070   -23450192.52649 -18263067.02147  20894543.419    20894549.418
       244.000         210.000
 00  2  6  2 45 30.0000000  0  8G17G26G24G 6G 5G13G10G30
  22745606.898   -15946459.68949 -12408058.22646  22745606.374    22745614.048
       227.000         180.000
  24361476.499    -2631936.75449  -2043245.66845  24361476.841    24361484.756
       204.000         139.000
  23559697.039    -4743762.20149  -2836494.95946  23559696.841    23559705.996
       220.000         164.000
  20863308.597   -25453665.97849 -19821491.64447  20863308.312    20863314.403
       244.000         212.000
  22517666.737   -14529215.24849 -11308214.75246  22517666.524    22517674.296
       226.000         180.000
  24789269.537    -1754883.81949  -1304014.45845  24789269.406    24789278.909
       215.000         137.000
  21043015.381   -22776796.58349 -17732045.62747  21043014.524    21043021.582
       241.000         207.000
  20903066.614   -23405400.88849 -18228164.44147  20903066.908    20903073.152
       244.000         210.000
 00  2  6  2 46  0.0000000  0  8G17G26G24G 6G 5G13G10G30
  22733720.858   -16008920.86349 -12456729.18346  22733719.933    22733727.996
       227.000         180.000
  24345171.862    -2717617.84949  -2110010.04845  24345171.309    24345180.997
       204.000         138.000
  23574066.996    -4668247.96249  -2777652.71146  23574067.063    23574075.108
       218.000         164.000
  20854651.230   -25499160.54649 -19856941.90947  20854651.055    20854657.294
       243.000         212.000
  22536207.919   -14431780.68749 -11232291.73546  22536207.938    22536215.144
       226.000         180.000
  24787250.237    -1765495.82349  -1312283.54245  24787250.993    24787257.471
       213.000         137.000
  21051202.763   -22733771.41249 -17698519.50247  21051201.796    21051208.640
       242.000         207.000
  20911687.531   -23360097.76749 -18192863.30047  20911688.070    20911694.038
       243.000         210.000
 00  2  6  2 46 30.0000000  0  8G17G26G24G 6G 5G13G10G30
  22721871.626   -16071188.74849 -12505249.53546  22721870.996    22721878.796
       227.000         181.000
  24328857.847    -2803348.19949  -2176812.80645  24328857.173    24328866.466
       202.000         137.000
  23588427.321    -4592784.00049  -2718849.63746  23588427.511    23588436.003
       220.000         163.000
  20846042.601   -25544399.03749 -19892192.64047  20846042.545    20846048.646
       243.000         212.000
  22554792.112   -14334120.09349 -11156192.58646  22554791.473    22554799.401
       225.000         179.000
  24785310.029    -1775692.75349  -1320229.15945  24785310.437    24785317.123
       215.000         137.000
  21059487.389   -22690235.37149 -17664595.30547  21059486.771    21059493.508
       241.000         207.000
  20920408.985   -23314265.88149 -18157150.13947  20920409.272    20920415.262
       243.000         210.000
 00  2  6  2 47  0.0000000  0  8G17G26G24G 6G 5G13G10G30
  22710061.736   -16133249.64949 -12553608.59146  22710061.272    22710068.876
       227.000         181.000
  24312541.373    -2889091.26749  -2243625.46445  24312540.578    24312549.909
       201.000         137.000
  23602776.719    -4517377.64149  -2660091.45346  23602776.388    23602784.981
       218.000         163.000
  20837487.853   -25589354.27649 -19927222.65148  20837487.727    20837494.062
       244.000         213.000
  22573423.361   -14236212.16549 -11079900.69946  22573422.645    22573430.541
       225.000         179.000
  24783462.567    -1785401.20949  -1327794.14745  24783462.996    24783469.460
       210.000         137.000
  21067877.718   -22646144.05849 -17630238.41647  21067876.942    21067883.729
       242.000         206.000
  20929241.031   -23267853.21449 -18120984.41847  20929241.098    20929247.090
       243.000         210.000
 00  2  6  2 47 30.0000000  0  8G17G26G24G 6G 5G13G10G30
  22698293.106   -16195093.86749 -12601798.81746  22698292.559    22698300.480
       227.000         181.000
  24296228.176    -2974817.07149  -2310424.67345  24296228.931    24296236.796
       200.000         137.000
  23617118.793    -4442009.64749  -2601363.16445  23617118.969    23617126.986
       220.000         162.000
  20828989.913   -25634010.90549 -19962019.98648  20828989.960    20828996.094
       244.000         213.000
  22592105.819   -14138035.25849 -11003399.23846  22592106.010    22592112.677
       225.000         179.000
  24781714.130    -1794589.04249  -1334953.48145  24781714.546    24781720.554
       206.000         137.000
  21076379.228   -22601468.28149 -17595426.11147  21076378.547    21076384.980
       241.000         206.000
  20938185.690   -23220848.52649 -18084357.38647  20938186.185    20938191.974
       243.000         210.000
 00  2  6  2 48  0.0000000  0  8G17G26G24G 6G 5G13G10G30
  22686566.167   -16256719.02749 -12649818.33246  22686564.948    22686572.915
       228.000         181.000
  24279924.286    -3060494.18349  -2377185.94445  24279925.108    24279932.597
       207.000         139.000
  23631459.039    -4366651.18449  -2542642.27745  23631459.031    23631467.847
       219.000         162.000
  20820546.526   -25678381.19349 -19996594.19048  20820546.336    20820552.442
       244.000         213.000
  22610839.490   -14039589.31249 -10926688.11846  22610839.112    22610846.407
       226.000         179.000
  24780069.859    -1803228.12149  -1341685.19745  24780071.234    24780077.355
       211.000         136.000
  21084991.845   -22556208.50849 -17560158.73847  21084991.134    21084997.808
       241.000         206.000
  20947240.459   -23173265.51749 -18047279.71047  20947240.817    20947246.702
       243.000         209.000
 00  2  6  2 48 30.0000000  0  8G17G26G24G 6G 5G13G10G30
  22674879.975   -16318129.97849 -12697670.95346  22674879.488    22674887.217
       228.000         182.000
  24263634.221    -3146098.86349  -2443890.77945  24263634.895    24263642.930
       207.000         141.000
  23645799.543    -4291291.41549  -2483920.39545  23645799.364    23645808.060
       217.000         161.000
  20812152.382   -25722492.60349 -20030966.67648  20812152.267    20812158.102
       244.000         213.000
  22629618.448   -13940905.18949 -10849791.42146  22629617.842    22629626.053
       225.000         179.000
  24778534.387    -1811298.32449  -1347973.62245  24778532.519    24778542.513
       210.000         136.000
  21093713.165   -22510377.63649 -17524446.35847  21093712.427    21093718.959
       242.000         206.000
  20956402.411   -23125119.18249 -18009763.08247  20956402.624    20956408.562
       243.000         209.000
 00  2  6  2 49  0.0000000  0  8G17G26G24G 6G 5G13G10G30
  22663231.713   -16379341.72449 -12745368.33646  22663230.992    22663239.189
       229.000         182.000
  24247353.532    -3231654.32649  -2510557.25345  24247353.107    24247362.144
       208.000         143.000
  23660142.120    -4215920.72149  -2425190.00545  23660142.334    23660150.222
       218.000         161.000
  20803805.537   -25766355.20349 -20065145.28348  20803805.415    20803811.616
       245.000         213.000
  22648436.693   -13842014.79349 -10772733.98146  22648436.174    22648443.965
       225.000         179.000
  24777103.445    -1818817.40149  -1353832.60645  24777102.569    24777110.302
       211.000         136.000
  21102537.405   -22464005.79249 -17488312.43547  21102536.548    21102543.308
       241.000         206.000
  20965665.954   -23076438.89349 -17971830.38547  20965666.421    20965672.441
       243.000         209.000
 00  2  6  2 49 30.0000000  0  8G17G26G24G 6G 5G13G10G30
  22651619.381   -16440364.47449 -12792918.45246  22651618.651    22651626.170
       228.000         182.000
  24231076.829    -3317188.67849  -2577207.29745  24231077.104    24231085.241
       210.000         143.000
  23674487.007    -4140537.89049  -2366450.15145  23674487.673    23674495.395
       217.000         160.000
  20795502.775   -25809986.40149 -20099143.58048  20795502.723    20795508.833
       245.000         213.000
  22667287.707   -13742952.05249 -10695542.25546  22667287.304    22667295.374
       225.000         178.000
  24775767.478    -1825838.43549  -1359303.51345  24775767.053    24775773.638
       208.000         135.000
  21111457.259   -22417131.51349 -17451787.00647  21111456.393    21111462.963
       240.000         205.000
  20975023.375   -23027265.29749 -17933513.29747  20975023.663    20975029.711
       243.000         209.000
 00  2  6  2 50  0.0000000  0  8G17G26G24G 6G 5G13G10G30
  22640043.412   -16501196.22149 -12840319.74046  22640042.525    22640050.641
       228.000         183.000
  24214801.033    -3402718.18549  -2643853.55745  24214800.982    24214809.455
       210.000         145.000
  23688829.390    -4065168.08049  -2307720.44545  23688829.265    23688837.374
       217.000         160.000
  20787240.585   -25853404.46849 -20132975.80148  20787240.443    20787246.626
       245.000         213.000
  22686167.145   -13643739.72549 -10618233.96546  22686166.644    22686174.786
       224.000         178.000
  24774519.009    -1832397.56249  -1364414.49145  24774517.398    24774526.956
       215.000         135.000
  21120470.838   -22369764.70349 -17414877.79247  21120470.163    21120476.719
       241.000         205.000
  20984475.232   -22977595.37049 -17894809.45547  20984475.610    20984481.629
       242.000         209.000
 00  2  6  2 50 30.0000000  0  8G17G26G24G 6G 5G13G10G30
  22628503.855   -16561836.86349 -12887572.11746  22628502.584    22628510.881
       229.000         183.000
  24198524.118    -3488253.75349  -2710504.55945  24198523.721    24198532.306
       211.000         146.000
  23703164.761    -3989835.40749  -2249019.66945  23703164.860    23703173.106
       217.000         159.000
  20779019.334   -25896607.38549 -20166640.37148  20779019.234    20779025.164
       246.000         213.000
  22705075.469   -13544376.13949 -10540807.80546  22705074.584    22705082.560
       224.000         178.000
  24773354.705    -1838517.26749  -1369183.05745  24773355.823    24773362.489
       213.000         135.000
  21129578.997   -22321900.96949 -17377581.36347  21129578.277    21129584.904
       241.000         205.000
  20994023.518   -22927418.75849 -17855710.79547  20994024.060    20994030.034
       242.000         209.000
 00  2  6  2 51  0.0000000  0  8G17G26G24G 6G 5G13G10G30
  22617001.947   -16622279.41249 -12934670.13246  22617001.226    22617008.966
       230.000         183.000
  24182246.706    -3573791.80449  -2777157.48245  24182246.279    24182254.539
       211.000         146.000
  23717493.957    -3914535.06449  -2190344.08645  23717494.011    23717501.483
       216.000         158.000
  20770842.043   -25939579.25849 -20200124.91248  20770841.855    20770847.909
       246.000         214.000
  22724015.555   -13444845.30449 -10463251.33146  22724014.962    22724022.964
       225.000         178.000
  24772272.448    -1844205.05649  -1373615.07645  24772271.413    24772281.679
       210.000         135.000
  21138785.682   -22273519.61549 -17339881.59847  21138784.844    21138791.591
       241.000         205.000
  21003669.047   -22876731.13149 -17816213.94647  21003669.222    21003675.347
       243.000         208.000
 00  2  6  2 51 30.0000000  0  8G17G26G24G 6G 5G13G10G30
  22605541.302   -16682505.37949 -12981599.39046  22605540.610    22605547.747
       229.000         184.000
  24165975.545    -3659296.86949  -2843784.71145  24165975.763    24165983.872
       211.000         146.000
  23731815.764    -3839273.49449  -2131698.72645  23731814.527    23731824.271
       217.000         157.000
  20762709.933   -25982313.52249 -20233424.30348  20762709.865    20762715.964
       246.000         214.000
  22742990.124   -13345133.40649 -10385553.76346  22742990.056    22742997.502
       224.000         178.000
  24771273.228    -1849453.99049  -1377705.11545  24771274.184    24771279.280
       210.000         136.000
  21148096.225   -22224592.30849 -17301756.41047  21148095.558    21148102.267
       240.000         204.000
  21013415.082   -22825515.42449 -17776305.60347  21013415.565    21013421.415
       242.000         208.000
 00  2  6  2 52  0.0000000  0  8G17G26G24G 6G 5G13G10G30
  22594121.421   -16742516.79749 -13028361.45846  22594120.526    22594128.809
       229.000         184.000
  24149716.148    -3744740.28149  -2910363.90245  24149715.950    24149724.430
       212.000         145.000
  23746131.103    -3764045.80649  -2073079.75845  23746131.086    23746139.414
       215.000         156.000
  20754625.414   -26024797.73849 -20266528.84748  20754625.332    20754631.354
       246.000         214.000
  22762003.401   -13245218.06549 -10307697.67146  22762003.073    22762010.657
       224.000         177.000
  24770363.001    -1854238.00849  -1381432.88445  24770363.204    24770370.290
       212.000         136.000
  21157512.668   -22175108.51449 -17263197.59747  21157511.919    21157518.706
       240.000         204.000
  21023264.669   -22773755.50849 -17735973.19947  21023265.096    21023271.200
       242.000         208.000
 00  2  6  2 52 30.0000000  0  8G17G26G24G 6G 5G13G10G30
  22582740.254   -16802324.93549 -13074965.13546  22582739.595    22582746.933
       229.000         184.000
  24133471.132    -3830107.85149  -2976883.99545  24133471.815    24133478.762
       210.000         143.000
  23760444.014    -3688831.12049  -2014470.93845  23760443.897    23760452.192
       215.000         155.000
  20746592.287   -26067011.89849 -20299422.95948  20746591.973    20746598.123
       246.000         214.000
  22781058.958   -13145080.47349 -10229668.38946  22781058.991    22781066.395
       224.000         177.000
  24769545.559    -1858536.18549  -1384782.08845  24769545.460    24769552.972
       214.000         137.000
  21167032.464   -22125081.49749 -17224215.49447  21167031.559    21167038.186
       240.000         204.000
  21033215.090   -22721465.67849 -17695227.87747  21033215.328    21033221.279
       242.000         208.000
 00  2  6  2 53  0.0000000  0  8G17G26G24G 6G 5G13G10G30
  22571399.881   -16861918.67749 -13121401.74446  22571399.046    22571406.903
       229.000         185.000
  24117239.792    -3915403.78549  -3043348.28645  24117238.593    24117248.093
       209.000         142.000
  23774753.981    -3613631.60649  -1955873.92545  23774753.531    23774762.295
       213.000         154.000
  20738610.833   -26108954.47549 -20332105.44748  20738610.599    20738616.839
       246.000         214.000
  22800155.111   -13044729.28249 -10151472.68246  22800154.242    22800162.839
       224.000         176.000
  24768821.838    -1862340.79549  -1387746.70445  24768820.772    24768828.331
       213.000         136.000
  21176653.251   -22074523.91849 -17184819.96447  21176652.499    21176659.198
       239.000         204.000
  21043262.516   -22668665.95049 -17654085.23047  21043262.812    21043268.913
       242.000         208.000
 00  2  6  2 53 30.0000000  0  8G17G26G24G 6G 5G13G10G30
  22560099.999   -16921299.45649 -13167672.41246  22560099.298    22560107.213
       230.000         185.000
  24101017.307    -4000652.98849  -3109776.14345  24101016.883    24101025.221
       211.000         141.000
  23789057.481    -3538466.07249  -1897303.39445  23789057.108    23789066.388
       212.000         154.000
  20730679.134   -26150635.75749 -20364584.33348  20730678.960    20730685.128
       246.000         214.000
  22819289.464   -12944177.74749 -10073120.85546  22819289.485    22819297.028
       224.000         176.000
  24768190.354    -1865658.23549  -1390331.69045  24768190.039    24768194.128
       213.000         136.000
  21186369.739   -22023463.13849 -17145032.33847  21186368.922    21186375.856
       239.000         204.000
  21053403.936   -22615372.52349 -17612557.88647  21053404.222    21053410.245
       242.000         207.000
 00  2  6  2 54  0.0000000  0  8G17G26G24G 6G 5G13G10G30
  22548838.099   -16980480.94449 -13213787.78746  22548837.205    22548845.219
       229.000         185.000
  24084799.233    -4085879.36949  -3176186.22645  24084799.640    24084807.361
       210.000         142.000
  23803355.955    -3463326.84749  -1838753.36645  23803355.440    23803363.804
       211.000         153.000
  20722795.115   -26192066.38349 -20396867.90148  20722794.928    20722800.842
       246.000         214.000
  22838460.322   -12843434.27249  -9994619.46546  22838460.403    22838467.428
       223.000         176.000
  24767650.584    -1868494.18949  -1392541.46845  24767650.682    24767658.780
       208.000         135.000
  21196176.664   -21971927.39549 -17104874.61047  21196175.823    21196182.593
       240.000         204.000
  21063636.365   -22561600.55349 -17570657.65547  21063636.588    21063642.595
       242.000         207.000
 00  2  6  2 54 30.0000000  0  8G17G26G24G 6G 5G13G10G30
  22537613.402   -17039466.88549 -13259750.78246  22537612.795    22537620.292
       230.000         186.000
  24068581.525    -4171103.61849  -3242594.64945  24068580.778    24068589.312
       210.000         142.000
  23817647.490    -3388224.30549  -1780231.90945  23817646.726    23817656.078
       213.000         153.000
  20714958.598   -26233247.34549 -20428956.91548  20714958.473    20714964.534
       246.000         214.000
  22857661.049   -12742533.70949  -9915995.66446  22857659.861    22857668.650
       223.000         175.000
  24767200.830    -1870857.84949  -1394383.26645  24767200.664    24767206.980
       212.000         135.000
  21206072.064   -21919926.65549 -17064354.53947  21206071.222    21206077.849
       240.000         204.000
  21073954.936   -22507376.04649 -17528404.78847  21073955.204    21073961.230
       241.000         207.000
 00  2  6  2 55  0.0000000  0  8G17G26G24G 6G 5G13G10G30
  22526425.052   -17098261.79049 -13305564.92446  22526424.061    22526431.916
       230.000         186.000
  24052361.414    -4256340.25949  -3309012.70445  24052361.197    24052370.058
       211.000         143.000
  23831930.846    -3313164.68949  -1721743.91645  23831931.027    23831938.804
       212.000         152.000
  20707167.704   -26274188.54849 -20460859.10848  20707167.436    20707173.577
       246.000         214.000
  22876886.167   -12641505.11249  -9837272.09846  22876885.941    22876893.922
       223.000         175.000
  24766841.008    -1872749.70949  -1395857.41845  24766840.793    24766849.140
       211.000         134.000
  21216056.096   -21867460.07449 -17023471.47547  21216055.510    21216062.189
       240.000         204.000
  21084360.545   -22452694.21149 -17485795.56647  21084360.791    21084366.762
       241.000         207.000
 00  2  6  2 55 30.0000000  0  8G17G26G24G 6G 5G13G10G30
  22515268.280   -17156890.88649 -13351249.86946  22515267.195    22515275.068
       229.000         186.000
  24036141.516    -4341576.17149  -3375430.19545  24036142.245    24036149.893
       211.000         145.000
  23846209.390    -3238130.21049  -1663275.51145  23846208.194    23846217.261
       212.000         151.000
  20699423.560   -26314884.31249 -20492570.05948  20699423.497    20699429.388
       246.000         215.000
  22896134.932   -12540352.32949  -9758451.77046  22896134.026    22896141.788
       224.000         174.000
  24766569.615    -1874174.71749  -1396967.75745  24766567.652    24766576.765
       210.000         134.000
  21226130.139   -21814520.80749 -16982220.09047  21226129.316    21226136.460
       240.000         204.000
  21094857.128   -22397534.20349 -17442813.74647  21094857.424    21094863.697
       242.000         207.000
 00  2  6  2 56  0.0000000  0  9G17G26G24G 6G 5G13G10G23G30
  22504140.095   -17215369.45249 -13396817.51646  22504139.648    22504146.926
       230.000         186.000
  24019928.232    -4426777.44749  -3441820.69245  24019928.120    24019936.625
       210.000         146.000
  23860484.944    -3163111.51549  -1604819.39645  23860485.060    23860492.643
       211.000         151.000
  20691729.831   -26355314.98349 -20524074.44048  20691729.684    20691735.666
       246.000         215.000
  22915407.844   -12439072.56349  -9679532.48846  22915407.923    22915414.845
       223.000         174.000
  24766390.884    -1875112.94849  -1397698.82445  24766391.044    24766397.745
       207.000         135.000
  21236295.496   -21761101.45949 -16940594.61547  21236294.859    21236301.363
       240.000         204.000
  24588542.389    -2739202.90749  -2112713.26645  24588540.937    24588552.584
       195.000         137.000
  21105449.286   -22341872.06249 -17399440.65647  21105449.481    21105455.863
       241.000         207.000
 00  2  6  2 56 30.0000000  0  9G17G26G24G 6G 5G13G10G23G30
  22493045.070   -17273673.80349 -13442249.41046  22493044.539    22493052.514
       230.000         186.000
  24003727.516    -4511912.42349  -3508159.51945  24003727.006    24003735.302
       211.000         146.000
  23874757.771    -3088107.26149  -1546374.54945  23874758.179    23874766.678
       212.000         151.000
  20684092.776   -26395447.78849 -20555346.72248  20684092.741    20684098.711
       246.000         215.000
  22934707.884   -12337650.21249  -9600502.10946  22934707.632    22934714.704
       222.000         174.000
  24766311.458    -1875529.74549  -1398023.55545  24766311.090    24766318.383
       209.000         135.000
  21246558.726   -21707167.77949 -16898568.36247  21246557.984    21246564.697
       240.000         204.000
  24568361.976    -2845250.01149  -2195347.01145  24568360.348    24568371.741
       197.000         137.000
  21116142.541   -22285678.61349 -17355653.55547  21116142.689    21116148.819
       241.000         207.000
 00  2  6  2 57  0.0000000  0  9G17G26G24G 6G 5G13G10G23G30
  22481988.948   -17331773.89949 -13487522.14446  22481988.133    22481996.132
       230.000         187.000
  23987543.832    -4596957.56749  -3574428.33545  23987543.909    23987552.085
       210.000         148.000
  23889030.237    -3013104.72949  -1487931.02345  23889030.278    23889038.440
       211.000         151.000
  20676515.236   -26435267.92349 -20586375.35948  20676515.066    20676520.935
       246.000         215.000
  22954041.237   -12236052.63249  -9521335.18446  22954040.648    22954048.531
       222.000         173.000
  24766334.233    -1875411.65149  -1397931.50145  24766332.435    24766341.100
       211.000         135.000
  21256924.322   -21652696.12349 -16856122.90847  21256923.608    21256930.222
       240.000         204.000
  24548200.864    -2951195.89949  -2277901.90945  24548198.346    24548210.573
       197.000         138.000
  21126942.849   -22228922.34649 -17311427.89247  21126943.192    21126949.220
       241.000         207.000
 00  2  6  2 57 30.0000000  0  9G17G26G24G 6G 5G13G10G23G30
  22470974.686   -17389653.95149 -13532623.41646  22470974.298    22470981.543
       230.000         187.000
  23971379.381    -4681902.00549  -3640618.67445  23971380.059    23971387.461
       210.000         148.000
  23903300.562    -2938113.47649  -1429496.30145  23903301.239    23903308.533
       211.000         151.000
  20668997.095   -26474775.84949 -20617160.71848  20668996.991    20669002.923
       246.000         215.000
  22973408.688   -12134276.04449  -9442028.76846  22973408.770    22973416.976
       222.000         172.000
  24766457.092    -1874764.03149  -1397426.85145  24766457.328    24766464.489
       214.000         136.000
  21267390.639   -21597695.29449 -16813265.10647  21267389.992    21267396.500
       240.000         203.000
  24528061.554    -3057026.91649  -2360367.30445  24528060.387    24528070.727
       201.000         141.000
  21137846.896   -22171621.33549 -17266777.75647  21137847.423    21137853.341
       241.000         207.000
 00  2  6  2 58  0.0000000  0  9G17G26G24G 6G 5G13G10G23G30
  22460006.092   -17447294.01249 -13577537.68346  22460004.892    22460012.443
       230.000         187.000
  23955234.257    -4766744.62549  -3706729.66345  23955234.346    23955241.360
       208.000         148.000
  23917564.956    -2863153.83749  -1371086.19645  23917565.304    23917573.484
       211.000         150.000
  20661536.096   -26513983.48549 -20647712.08348  20661535.936    20661541.913
       246.000         215.000
  22992810.671   -12032318.00549  -9362580.96646  22992810.738    22992817.798
       221.000         172.000
  24766682.422    -1873579.66149  -1396503.98645  24766682.562    24766689.042
       212.000         136.000
  21277957.050   -21542168.37049 -16769997.36247  21277956.088    21277962.979
       240.000         203.000
  24507945.326    -3162737.29249  -2442738.72045  24507944.433    24507954.588
       203.000         142.000
  21148848.185   -22113809.31749 -17221729.42947  21148848.637    21148854.704
       241.000         207.000
 00  2  6  2 58 30.0000000  0  9G17G26G24G 6G 5G13G10G23G30
  22449084.713   -17504686.03649 -13622258.67846  22449084.172    22449091.382
       229.000         187.000
  23939105.319    -4851501.99449  -3772774.22845  23939105.602    23939113.537
       209.000         148.000
  23931819.455    -2788246.06849  -1312716.53345  23931820.016    23931827.891
       213.000         151.000
  20654126.721   -26552919.76649 -20678052.00748  20654126.506    20654132.444
       246.000         215.000
  23012243.271   -11930199.21549  -9283007.90146  23012243.046    23012249.964
       221.000         171.000
  24767001.775    -1871901.99749  -1395196.63845  24766999.803    24767010.922
       207.000         137.000
  21288623.572   -21486115.48749 -16726319.77947  21288622.613    21288629.520
       239.000         203.000
  24487848.867    -3268343.85349  -2525029.24045  24487847.696    24487859.041
       205.000         144.000
  21159938.029   -22055532.05349 -17176318.57647  21159938.379    21159944.249
       241.000         206.000
 00  2  6  2 59  0.0000000  0  9G17G26G24G 6G 5G13G10G23G30
  22438205.695   -17561855.35649 -13666806.13846  22438204.854    22438212.325
       231.000         187.000
  23922991.540    -4936179.72349  -3838756.74045  23922992.267    23922999.440
       208.000         148.000
  23946063.609    -2713392.88249  -1254389.39345  23946063.215    23946072.409
       214.000         151.000
  20646767.103   -26591594.70649 -20708188.28748  20646766.991    20646772.888
       247.000         215.000
  23031705.066   -11827927.12849  -9203315.38346  23031705.062    23031712.233
       222.000         170.000
  24767407.397    -1869769.53949  -1393534.98345  24767406.411    24767414.781
       210.000         138.000
  21299385.209   -21429562.61449 -16682252.59547  21299384.353    21299390.769
       240.000         203.000
  24467770.842    -3373853.79049  -2607244.47245  24467769.606    24467779.884
       208.000         144.000
  21171110.898   -21996818.11149 -17130567.45447  21171111.345    21171117.207
       242.000         206.000
 00  2  6  2 59 30.0000000  0  9G17G26G24G 6G 5G13G10G23G30
  22427365.045   -17618823.05449 -13711196.48646  22427364.659    22427372.073
       230.000         187.000
  23906896.386    -5020759.94949  -3904663.27245  23906896.230    23906904.768
       207.000         147.000
  23960297.040    -2638595.72549  -1196105.90445  23960297.151    23960305.014
       214.000         151.000
  20639457.896   -26630004.73749 -20738118.14248  20639457.721    20639463.644
       246.000         215.000
  23051195.572   -11725504.00649  -9123505.18046  23051195.769    23051202.354
       220.000         169.000
  24767899.647    -1867180.57349  -1391517.58445  24767899.630    24767906.180
       212.000         137.000
  21310237.623   -21372532.69049 -16637813.68147  21310236.960    21310243.480
       239.000         203.000
  24447710.865    -3479268.79349  -2689385.76645  24447709.743    24447720.150
       210.000         144.000
  21182365.564   -21937674.53249 -17084481.54947  21182365.883    21182372.166
       241.000         206.000
 00  2  6  3  0  0.0000000  0  9G17G26G24G 6G 5G13G10G23G30
  22416558.023   -17675614.08549 -13755449.17746  22416557.020    22416564.991
       231.000         187.000
  23890819.477    -5105243.87249  -3970494.78345  23890819.290    23890826.930
       207.000         147.000
  23974518.648    -2563860.89549  -1137870.98645  23974518.166    23974526.714
       213.000         152.000
  20632201.620   -26668136.49849 -20767831.17048  20632201.574    20632207.425
       246.000         215.000
  23070713.247   -11622937.94049  -9043583.58546  23070712.678    23070720.589
       221.000         169.000
  24768477.193    -1864146.72949  -1389153.52645  24768477.180    24768483.695
       213.000         138.000
  21321179.849   -21315030.73549 -16593006.95847  21321179.115    21321185.870
       239.000         202.000
  24427666.345    -3584602.51349  -2771463.72945  24427665.769    24427674.990
       209.000         143.000
  21193702.936   -21878096.11149 -17038056.81247  21193703.195    21193709.314
       241.000         206.000
 00  2  6  3  0 30.0000000  0  9G17G26G24G 6G 5G13G10G23G30
  22405787.676   -17732212.49849 -13799551.77447  22405786.767    22405794.535
       231.000         188.000
  23874762.816    -5189621.63349  -4036243.56545  23874762.916    23874770.400
       208.000         147.000
  23988735.626    -2489150.43349  -1079655.07045  23988735.374    23988743.983
       214.000         153.000
  20625007.821   -26705939.94249 -20797288.36248  20625007.724    20625013.642
       246.000         215.000
  23090259.433   -11520222.08249  -8963545.26946  23090258.876    23090267.104
       221.000         168.000
  24769145.561    -1860636.09349  -1386417.94745  24769146.017    24769152.893
       214.000         139.000
  21332212.381   -21257054.31749 -16547830.52047  21332211.807    21332218.101
       239.000         202.000
  24407642.022    -3689830.11149  -2853458.99945  24407641.791    24407652.171
       209.000         141.000
  21205132.647   -21818032.44449 -16991253.95747  21205133.052    21205139.149
       241.000         205.000
 00  2  6  3  1  0.0000000  0  9G17G26G24G 6G 5G13G10G23G30
  22395052.802   -17788624.38649 -13843509.03047  22395052.518    22395059.738
       230.000         188.000
  23858725.463    -5273898.02349  -4101913.38045  23858725.488    23858733.892
       208.000         149.000
  24002952.038    -2414443.01649  -1021441.49245  24002952.102    24002960.377
       215.000         153.000
  20617878.355   -26743405.50249 -20826482.27248  20617878.240    20617884.111
       246.000         215.000
  23109834.684   -11417353.50649  -8883387.94746  23109834.305    23109842.267
       219.000         167.000
  24769912.182    -1856607.56249  -1383278.84245  24769910.728    24769918.436
       215.000         138.000
  21343331.560   -21198622.70949 -16502299.38647  21343330.899    21343337.563
       239.000         202.000
  24387639.026    -3794945.55649  -2935366.88545  24387638.109    24387647.712
       210.000         140.000
  21216661.765   -21757446.50749 -16944044.14047  21216662.170    21216668.294
       240.000         205.000
 00  2  6  3  1 30.0000000  0  9G17G26G24G 6G 5G13G10G23G30
  22384355.897   -17844836.61249 -13887310.70147  22384354.964    22384362.588
       231.000         188.000
  23842706.497    -5358077.74949  -4167507.87045  23842705.928    23842714.178
       207.000         149.000
  24017169.615    -2339729.39149   -963223.09345  24017169.400    24017178.636
       216.000         154.000
  20610809.702   -26780551.27049 -20855426.99548  20610809.673    20610815.514
       246.000         216.000
  23129436.400   -11314345.68849  -8803122.13446  23129436.055    23129444.104
       219.000         167.000
  24770781.129    -1852038.65149  -1379718.60345  24770781.895    24770788.255
       209.000         137.000
  21354538.652   -21139728.87849 -16456408.08247  21354537.891    21354544.396
       239.000         202.000
  24367658.088    -3899944.86449  -3017184.27245  24367657.032    24367666.735
       209.000         140.000
  21228292.785   -21696325.02749 -16896417.01447  21228293.248    21228299.237
       240.000         205.000
 00  2  6  3  2  0.0000000  0  9G17G26G24G 6G 5G13G10G23G30
  22373699.408   -17900836.57249 -13930946.97947  22373698.811    22373706.251
       231.000         188.000
  23826702.741    -5442177.45349  -4233040.00345  23826702.707    23826710.988
       209.000         149.000
  24031390.061    -2265000.74049   -904993.00345  24031389.995    24031398.572
       214.000         155.000
  20603799.458   -26817390.34249 -20884132.73248  20603799.267    20603805.064
       246.000         216.000
  23149062.066   -11211211.99449  -8722758.23746  23149061.338    23149069.499
       218.000         166.000
  24771754.598    -1846922.67749  -1375732.12045  24771755.920    24771763.595
       206.000         137.000
  21365838.476   -21080347.88849 -16410137.17247  21365837.758    21365844.308
       239.000         201.000
  24347701.169    -4004817.97049  -3098903.33345  24347700.028    24347709.651
       209.000         140.000
  21240026.406   -21634664.49449 -16848369.84947  21240026.735    21240032.943
       241.000         205.000
 00  2  6  3  2 30.0000000  0  9G17G26G24G 6G 5G13G10G23G30
  22363081.984   -17956631.23649 -13974423.28347  22363081.391    22363088.641
       231.000         189.000
  23810712.093    -5526208.44649  -4298518.61945  23810712.407    23810719.310
       209.000         150.000
  24045612.032    -2190264.22549   -846756.76145  24045611.280    24045620.547
       217.000         156.000
  20596839.362   -26853965.69249 -20912632.97548  20596839.195    20596845.094
       246.000         216.000
  23168709.704   -11107962.89549  -8642304.41346  23168709.766    23168717.584
       219.000         166.000
  24772831.683    -1841262.33449  -1371321.46845  24772831.845    24772838.843
       214.000         137.000
  21377228.094   -21020494.83149 -16363498.41747  21377227.204    21377233.803
       239.000         201.000
  24327766.374    -4109575.06849  -3180532.00645  24327765.478    24327775.091
       212.000         142.000
  21251859.008   -21572483.80149 -16799917.36547  21251859.364    21251865.422
       241.000         205.000
 00  2  6  3  3  0.0000000  0  9G17G26G24G 6G 5G13G10G23G30
  22352501.882   -18012229.84749 -14017746.82047  22352501.535    22352509.072
       232.000         189.000
  23794738.111    -5610151.93649  -4363929.04045  23794738.295    23794746.390
       208.000         151.000
  24059832.649    -2115534.47549   -788525.81445  24059833.074    24059841.104
       217.000         156.000
  20589924.540   -26890303.09949 -20940947.80948  20589924.302    20589930.282
       246.000         216.000
  23188381.182   -11004588.72149  -8561753.12246  23188380.888    23188388.337
       219.000         166.000
  24774007.995    -1835079.49449  -1366503.66945  24774008.651    24774017.157
       213.000         137.000
  21388709.583   -20960159.22349 -16316483.65147  21388708.925    21388715.626
       238.000         201.000
  24307854.451    -4214211.66349  -3262066.76645  24307853.803    24307863.240
       209.000         143.000
  21263786.809   -21509802.78949 -16751075.02247  21263787.266    21263793.324
       240.000         205.000
 00  2  6  3  3 30.0000000  0  9G17G26G24G 6G 5G13G10G23G30
  22341959.126   -18067632.17649 -14060917.40647  22341958.224    22341965.594
       232.000         189.000
  23778781.176    -5694005.75049  -4429269.59445  23778780.793    23778789.159
       211.000         152.000
  24074046.605    -2040839.94349   -730322.29545  24074046.295    24074054.815
       214.000         156.000
  20583055.991   -26926397.39349 -20969073.20348  20583055.907    20583061.623
       246.000         216.000
  23208074.537   -10901099.48149  -8481112.18246  23208074.165    23208082.247
       218.000         166.000
  24775279.062    -1828400.05049  -1361298.89045  24775278.991    24775284.370
       210.000         137.000
  21400281.923   -20899346.06449 -16269096.76547  21400281.304    21400287.870
       238.000         201.000
  24287963.916    -4318735.94649  -3343514.00345  24287963.173    24287972.629
       208.000         144.000
  21275801.322   -21446666.16149 -16701877.65647  21275801.659    21275807.719
       240.000         205.000
 00  2  6  3  4  0.0000000  0  9G17G26G24G 6G 5G13G10G23G30
  22331453.168   -18122840.97849 -14103937.19747  22331452.747    22331460.013
       232.000         189.000
  23762841.953    -5777766.78849  -4494537.86645  23762841.727    23762849.950
       210.000         153.000
  24088249.297    -1966204.10649   -672164.52745  24088249.622    24088258.902
       214.000         155.000
  20576237.442   -26962229.10149 -20996993.98848  20576237.307    20576243.149
       246.000         216.000
  23227788.964   -10797499.60649  -8400385.02346  23227788.637    23227796.061
       218.000         166.000
  24776643.172    -1821229.73949  -1355711.64345  24776646.375    24776651.550
       213.000         137.000
  21411940.426   -20838080.31249 -16221357.21247  21411939.842    21411946.472
       238.000         201.000
  24268094.509    -4423149.44649  -3424874.92845  24268093.588    24268103.120
       208.000         144.000
  21287898.042   -21383097.43849 -16652343.59447  21287898.315    21287904.664
       241.000         204.000
